<?xml version="1.0" encoding="UTF-8" standalone="no" ?>
<gpx xmlns="http://www.topografix.com/GPX/1/1" xmlns:xsi="http://www.w3.org/2001/XMLSchema-instance" xsi:schemaLocation="http://www.topografix.com/GPX/1/1 http://www.topografix.com/GPX/1/1/gpx.xsd" version="1.1" creator="VisuGPX - https://www.visugpx.com">
  <metadata>
    <name>83 - Me - Lorgues</name>
    <desc><![CDATA[83 - Me - Lorgues : St Férréol
2026-05-27-ARR]]></desc>
  </metadata>
  <trk>
    <name><![CDATA[Lorgues 27 mai 2026]]></name>
    <cmt><![CDATA[autour de Bernes]]></cmt>
    <desc><![CDATA[comment ...]]></desc>
    <trkseg>
      <trkpt lat="43.4994" lon="6.36984">
        <ele>295</ele>
        <time>2026-05-27T06:44:19Z</time>
      </trkpt>
      <trkpt lat="43.49941" lon="6.36986">
        <ele>295</ele>
        <time>2026-05-27T06:44:21Z</time>
      </trkpt>
      <trkpt lat="43.49945" lon="6.3699">
        <ele>294</ele>
        <time>2026-05-27T06:44:27Z</time>
      </trkpt>
      <trkpt lat="43.49949" lon="6.36993">
        <ele>295</ele>
        <time>2026-05-27T06:44:31Z</time>
      </trkpt>
      <trkpt lat="43.49951" lon="6.3699">
        <ele>296</ele>
        <time>2026-05-27T06:44:37Z</time>
      </trkpt>
      <trkpt lat="43.49959" lon="6.37002">
        <ele>296</ele>
        <time>2026-05-27T06:44:45Z</time>
      </trkpt>
      <trkpt lat="43.49962" lon="6.37002">
        <ele>296</ele>
        <time>2026-05-27T06:44:47Z</time>
      </trkpt>
      <trkpt lat="43.49967" lon="6.37004">
        <ele>297</ele>
        <time>2026-05-27T06:44:55Z</time>
      </trkpt>
      <trkpt lat="43.49972" lon="6.37004">
        <ele>298</ele>
        <time>2026-05-27T06:45:01Z</time>
      </trkpt>
      <trkpt lat="43.49974" lon="6.37004">
        <ele>298</ele>
        <time>2026-05-27T06:45:03Z</time>
      </trkpt>
      <trkpt lat="43.49977" lon="6.37006">
        <ele>298</ele>
        <time>2026-05-27T06:45:07Z</time>
      </trkpt>
      <trkpt lat="43.49979" lon="6.37008">
        <ele>299</ele>
        <time>2026-05-27T06:45:11Z</time>
      </trkpt>
      <trkpt lat="43.49982" lon="6.3701">
        <ele>299</ele>
        <time>2026-05-27T06:45:15Z</time>
      </trkpt>
      <trkpt lat="43.49984" lon="6.37012">
        <ele>299</ele>
        <time>2026-05-27T06:45:17Z</time>
      </trkpt>
      <trkpt lat="43.49986" lon="6.37014">
        <ele>299</ele>
        <time>2026-05-27T06:45:19Z</time>
      </trkpt>
      <trkpt lat="43.49988" lon="6.37016">
        <ele>299</ele>
        <time>2026-05-27T06:45:23Z</time>
      </trkpt>
      <trkpt lat="43.4999" lon="6.3702">
        <ele>299</ele>
        <time>2026-05-27T06:45:27Z</time>
      </trkpt>
      <trkpt lat="43.49993" lon="6.37022">
        <ele>300</ele>
        <time>2026-05-27T06:45:29Z</time>
      </trkpt>
      <trkpt lat="43.49994" lon="6.37024">
        <ele>299</ele>
        <time>2026-05-27T06:45:31Z</time>
      </trkpt>
      <trkpt lat="43.49999" lon="6.37028">
        <ele>298</ele>
        <time>2026-05-27T06:45:35Z</time>
      </trkpt>
      <trkpt lat="43.50001" lon="6.37027">
        <ele>297</ele>
        <time>2026-05-27T06:45:37Z</time>
      </trkpt>
      <trkpt lat="43.50009" lon="6.37034">
        <ele>294</ele>
        <time>2026-05-27T06:45:49Z</time>
      </trkpt>
      <trkpt lat="43.50014" lon="6.37038">
        <ele>292</ele>
        <time>2026-05-27T06:45:55Z</time>
      </trkpt>
      <trkpt lat="43.50015" lon="6.37041">
        <ele>291</ele>
        <time>2026-05-27T06:45:57Z</time>
      </trkpt>
      <trkpt lat="43.50018" lon="6.37044">
        <ele>290</ele>
        <time>2026-05-27T06:46:01Z</time>
      </trkpt>
      <trkpt lat="43.50019" lon="6.37046">
        <ele>289</ele>
        <time>2026-05-27T06:46:03Z</time>
      </trkpt>
      <trkpt lat="43.50021" lon="6.37051">
        <ele>288</ele>
        <time>2026-05-27T06:46:07Z</time>
      </trkpt>
      <trkpt lat="43.50026" lon="6.37055">
        <ele>286</ele>
        <time>2026-05-27T06:46:13Z</time>
      </trkpt>
      <trkpt lat="43.50026" lon="6.37058">
        <ele>285</ele>
        <time>2026-05-27T06:46:15Z</time>
      </trkpt>
      <trkpt lat="43.50029" lon="6.37059">
        <ele>285</ele>
        <time>2026-05-27T06:46:17Z</time>
      </trkpt>
      <trkpt lat="43.50031" lon="6.37059">
        <ele>284</ele>
        <time>2026-05-27T06:46:19Z</time>
      </trkpt>
      <trkpt lat="43.50035" lon="6.37075">
        <ele>283</ele>
        <time>2026-05-27T06:46:27Z</time>
      </trkpt>
      <trkpt lat="43.50035" lon="6.37085">
        <ele>284</ele>
        <time>2026-05-27T06:46:33Z</time>
      </trkpt>
      <trkpt lat="43.50035" lon="6.37088">
        <ele>284</ele>
        <time>2026-05-27T06:46:35Z</time>
      </trkpt>
      <trkpt lat="43.50036" lon="6.37093">
        <ele>285</ele>
        <time>2026-05-27T06:46:41Z</time>
      </trkpt>
      <trkpt lat="43.50036" lon="6.37097">
        <ele>285</ele>
        <time>2026-05-27T06:46:45Z</time>
      </trkpt>
      <trkpt lat="43.50038" lon="6.37099">
        <ele>286</ele>
        <time>2026-05-27T06:46:47Z</time>
      </trkpt>
      <trkpt lat="43.50041" lon="6.37113">
        <ele>289</ele>
        <time>2026-05-27T06:47:01Z</time>
      </trkpt>
      <trkpt lat="43.50041" lon="6.37116">
        <ele>289</ele>
        <time>2026-05-27T06:47:07Z</time>
      </trkpt>
      <trkpt lat="43.5004" lon="6.37124">
        <ele>289</ele>
        <time>2026-05-27T06:47:13Z</time>
      </trkpt>
      <trkpt lat="43.50043" lon="6.37132">
        <ele>290</ele>
        <time>2026-05-27T06:47:19Z</time>
      </trkpt>
      <trkpt lat="43.50042" lon="6.37148">
        <ele>289</ele>
        <time>2026-05-27T06:47:29Z</time>
      </trkpt>
      <trkpt lat="43.50042" lon="6.37151">
        <ele>289</ele>
        <time>2026-05-27T06:47:31Z</time>
      </trkpt>
      <trkpt lat="43.50043" lon="6.37154">
        <ele>289</ele>
        <time>2026-05-27T06:47:33Z</time>
      </trkpt>
      <trkpt lat="43.50044" lon="6.37157">
        <ele>289</ele>
        <time>2026-05-27T06:47:35Z</time>
      </trkpt>
      <trkpt lat="43.50042" lon="6.37175">
        <ele>286</ele>
        <time>2026-05-27T06:47:45Z</time>
      </trkpt>
      <trkpt lat="43.50041" lon="6.37177">
        <ele>286</ele>
        <time>2026-05-27T06:47:47Z</time>
      </trkpt>
      <trkpt lat="43.5004" lon="6.3718">
        <ele>285</ele>
        <time>2026-05-27T06:47:49Z</time>
      </trkpt>
      <trkpt lat="43.50042" lon="6.37185">
        <ele>285</ele>
        <time>2026-05-27T06:47:53Z</time>
      </trkpt>
      <trkpt lat="43.50041" lon="6.37187">
        <ele>284</ele>
        <time>2026-05-27T06:47:55Z</time>
      </trkpt>
      <trkpt lat="43.50042" lon="6.37193">
        <ele>284</ele>
        <time>2026-05-27T06:47:59Z</time>
      </trkpt>
      <trkpt lat="43.50043" lon="6.37203">
        <ele>282</ele>
        <time>2026-05-27T06:48:05Z</time>
      </trkpt>
      <trkpt lat="43.50044" lon="6.37206">
        <ele>282</ele>
        <time>2026-05-27T06:48:07Z</time>
      </trkpt>
      <trkpt lat="43.50045" lon="6.37209">
        <ele>282</ele>
        <time>2026-05-27T06:48:09Z</time>
      </trkpt>
      <trkpt lat="43.50046" lon="6.37214">
        <ele>282</ele>
        <time>2026-05-27T06:48:13Z</time>
      </trkpt>
      <trkpt lat="43.50046" lon="6.37217">
        <ele>282</ele>
        <time>2026-05-27T06:48:15Z</time>
      </trkpt>
      <trkpt lat="43.50046" lon="6.37224">
        <ele>282</ele>
        <time>2026-05-27T06:48:19Z</time>
      </trkpt>
      <trkpt lat="43.50046" lon="6.37227">
        <ele>282</ele>
        <time>2026-05-27T06:48:21Z</time>
      </trkpt>
      <trkpt lat="43.50046" lon="6.37232">
        <ele>282</ele>
        <time>2026-05-27T06:48:23Z</time>
      </trkpt>
      <trkpt lat="43.50047" lon="6.37236">
        <ele>282</ele>
        <time>2026-05-27T06:48:27Z</time>
      </trkpt>
      <trkpt lat="43.50053" lon="6.37235">
        <ele>285</ele>
        <time>2026-05-27T06:48:55Z</time>
      </trkpt>
      <trkpt lat="43.50055" lon="6.37237">
        <ele>285</ele>
        <time>2026-05-27T06:48:59Z</time>
      </trkpt>
      <trkpt lat="43.50058" lon="6.37236">
        <ele>286</ele>
        <time>2026-05-27T06:49:03Z</time>
      </trkpt>
      <trkpt lat="43.50061" lon="6.37235">
        <ele>286</ele>
        <time>2026-05-27T06:49:07Z</time>
      </trkpt>
      <trkpt lat="43.50063" lon="6.37236">
        <ele>286</ele>
        <time>2026-05-27T06:49:09Z</time>
      </trkpt>
      <trkpt lat="43.50069" lon="6.37235">
        <ele>284</ele>
        <time>2026-05-27T06:49:21Z</time>
      </trkpt>
      <trkpt lat="43.50071" lon="6.37236">
        <ele>284</ele>
        <time>2026-05-27T06:49:25Z</time>
      </trkpt>
      <trkpt lat="43.50073" lon="6.37235">
        <ele>283</ele>
        <time>2026-05-27T06:49:27Z</time>
      </trkpt>
      <trkpt lat="43.50078" lon="6.37234">
        <ele>282</ele>
        <time>2026-05-27T06:49:33Z</time>
      </trkpt>
      <trkpt lat="43.50081" lon="6.37233">
        <ele>281</ele>
        <time>2026-05-27T06:49:37Z</time>
      </trkpt>
      <trkpt lat="43.50079" lon="6.37237">
        <ele>280</ele>
        <time>2026-05-27T06:49:43Z</time>
      </trkpt>
      <trkpt lat="43.5008" lon="6.37237">
        <ele>280</ele>
        <time>2026-05-27T06:49:55Z</time>
      </trkpt>
      <trkpt lat="43.50082" lon="6.37236">
        <ele>280</ele>
        <time>2026-05-27T06:49:57Z</time>
      </trkpt>
      <trkpt lat="43.50086" lon="6.37233">
        <ele>280</ele>
        <time>2026-05-27T06:49:59Z</time>
      </trkpt>
      <trkpt lat="43.50084" lon="6.37234">
        <ele>280</ele>
        <time>2026-05-27T06:50:01Z</time>
      </trkpt>
      <trkpt lat="43.50083" lon="6.37237">
        <ele>280</ele>
        <time>2026-05-27T06:50:03Z</time>
      </trkpt>
      <trkpt lat="43.50081" lon="6.37237">
        <ele>281</ele>
        <time>2026-05-27T06:50:15Z</time>
      </trkpt>
      <trkpt lat="43.50078" lon="6.37235">
        <ele>281</ele>
        <time>2026-05-27T06:50:19Z</time>
      </trkpt>
      <trkpt lat="43.5008" lon="6.37234">
        <ele>283</ele>
        <time>2026-05-27T06:50:39Z</time>
      </trkpt>
      <trkpt lat="43.50081" lon="6.37231">
        <ele>284</ele>
        <time>2026-05-27T06:50:47Z</time>
      </trkpt>
      <trkpt lat="43.50079" lon="6.37229">
        <ele>284</ele>
        <time>2026-05-27T06:50:49Z</time>
      </trkpt>
      <trkpt lat="43.50079" lon="6.37232">
        <ele>283</ele>
        <time>2026-05-27T06:51:03Z</time>
      </trkpt>
      <trkpt lat="43.50081" lon="6.37233">
        <ele>282</ele>
        <time>2026-05-27T06:51:07Z</time>
      </trkpt>
      <trkpt lat="43.5008" lon="6.37236">
        <ele>282</ele>
        <time>2026-05-27T06:51:19Z</time>
      </trkpt>
      <trkpt lat="43.50079" lon="6.37233">
        <ele>282</ele>
        <time>2026-05-27T06:51:23Z</time>
      </trkpt>
      <trkpt lat="43.50082" lon="6.37234">
        <ele>282</ele>
        <time>2026-05-27T06:51:31Z</time>
      </trkpt>
      <trkpt lat="43.50083" lon="6.37238">
        <ele>282</ele>
        <time>2026-05-27T06:51:37Z</time>
      </trkpt>
      <trkpt lat="43.50084" lon="6.37241">
        <ele>282</ele>
        <time>2026-05-27T06:51:41Z</time>
      </trkpt>
      <trkpt lat="43.50083" lon="6.37247">
        <ele>283</ele>
        <time>2026-05-27T06:51:45Z</time>
      </trkpt>
      <trkpt lat="43.50084" lon="6.3725">
        <ele>284</ele>
        <time>2026-05-27T06:51:47Z</time>
      </trkpt>
      <trkpt lat="43.50084" lon="6.37253">
        <ele>285</ele>
        <time>2026-05-27T06:51:49Z</time>
      </trkpt>
      <trkpt lat="43.50084" lon="6.37256">
        <ele>285</ele>
        <time>2026-05-27T06:51:51Z</time>
      </trkpt>
      <trkpt lat="43.50083" lon="6.37259">
        <ele>285</ele>
        <time>2026-05-27T06:51:55Z</time>
      </trkpt>
      <trkpt lat="43.50081" lon="6.37267">
        <ele>285</ele>
        <time>2026-05-27T06:51:59Z</time>
      </trkpt>
      <trkpt lat="43.50079" lon="6.3727">
        <ele>285</ele>
        <time>2026-05-27T06:52:01Z</time>
      </trkpt>
      <trkpt lat="43.50081" lon="6.37276">
        <ele>285</ele>
        <time>2026-05-27T06:52:05Z</time>
      </trkpt>
      <trkpt lat="43.50085" lon="6.37283">
        <ele>284</ele>
        <time>2026-05-27T06:52:07Z</time>
      </trkpt>
      <trkpt lat="43.50087" lon="6.37288">
        <ele>284</ele>
        <time>2026-05-27T06:52:09Z</time>
      </trkpt>
      <trkpt lat="43.50085" lon="6.3729">
        <ele>284</ele>
        <time>2026-05-27T06:52:11Z</time>
      </trkpt>
      <trkpt lat="43.50082" lon="6.37296">
        <ele>284</ele>
        <time>2026-05-27T06:52:15Z</time>
      </trkpt>
      <trkpt lat="43.50083" lon="6.37302">
        <ele>284</ele>
        <time>2026-05-27T06:52:19Z</time>
      </trkpt>
      <trkpt lat="43.50083" lon="6.37305">
        <ele>283</ele>
        <time>2026-05-27T06:52:21Z</time>
      </trkpt>
      <trkpt lat="43.50081" lon="6.37311">
        <ele>283</ele>
        <time>2026-05-27T06:52:27Z</time>
      </trkpt>
      <trkpt lat="43.50082" lon="6.37314">
        <ele>283</ele>
        <time>2026-05-27T06:52:29Z</time>
      </trkpt>
      <trkpt lat="43.50081" lon="6.37317">
        <ele>283</ele>
        <time>2026-05-27T06:52:31Z</time>
      </trkpt>
      <trkpt lat="43.50082" lon="6.37324">
        <ele>285</ele>
        <time>2026-05-27T06:52:37Z</time>
      </trkpt>
      <trkpt lat="43.50082" lon="6.37328">
        <ele>285</ele>
        <time>2026-05-27T06:52:39Z</time>
      </trkpt>
      <trkpt lat="43.50082" lon="6.37331">
        <ele>286</ele>
        <time>2026-05-27T06:52:41Z</time>
      </trkpt>
      <trkpt lat="43.50087" lon="6.37341">
        <ele>287</ele>
        <time>2026-05-27T06:52:45Z</time>
      </trkpt>
      <trkpt lat="43.50087" lon="6.37346">
        <ele>287</ele>
        <time>2026-05-27T06:52:49Z</time>
      </trkpt>
      <trkpt lat="43.50089" lon="6.37353">
        <ele>287</ele>
        <time>2026-05-27T06:52:51Z</time>
      </trkpt>
      <trkpt lat="43.50087" lon="6.3736">
        <ele>288</ele>
        <time>2026-05-27T06:52:55Z</time>
      </trkpt>
      <trkpt lat="43.50087" lon="6.37363">
        <ele>288</ele>
        <time>2026-05-27T06:52:57Z</time>
      </trkpt>
      <trkpt lat="43.50087" lon="6.37367">
        <ele>288</ele>
        <time>2026-05-27T06:53:01Z</time>
      </trkpt>
      <trkpt lat="43.50088" lon="6.37369">
        <ele>288</ele>
        <time>2026-05-27T06:53:03Z</time>
      </trkpt>
      <trkpt lat="43.50087" lon="6.37375">
        <ele>288</ele>
        <time>2026-05-27T06:53:07Z</time>
      </trkpt>
      <trkpt lat="43.5009" lon="6.37385">
        <ele>287</ele>
        <time>2026-05-27T06:53:13Z</time>
      </trkpt>
      <trkpt lat="43.50092" lon="6.37391">
        <ele>287</ele>
        <time>2026-05-27T06:53:17Z</time>
      </trkpt>
      <trkpt lat="43.50094" lon="6.37397">
        <ele>286</ele>
        <time>2026-05-27T06:53:21Z</time>
      </trkpt>
      <trkpt lat="43.50093" lon="6.37393">
        <ele>286</ele>
        <time>2026-05-27T06:53:23Z</time>
      </trkpt>
      <trkpt lat="43.50092" lon="6.374">
        <ele>285</ele>
        <time>2026-05-27T06:53:31Z</time>
      </trkpt>
      <trkpt lat="43.50091" lon="6.37404">
        <ele>284</ele>
        <time>2026-05-27T06:53:33Z</time>
      </trkpt>
      <trkpt lat="43.5009" lon="6.37407">
        <ele>284</ele>
        <time>2026-05-27T06:53:37Z</time>
      </trkpt>
      <trkpt lat="43.5009" lon="6.37415">
        <ele>283</ele>
        <time>2026-05-27T06:53:41Z</time>
      </trkpt>
      <trkpt lat="43.50089" lon="6.37419">
        <ele>282</ele>
        <time>2026-05-27T06:53:43Z</time>
      </trkpt>
      <trkpt lat="43.50089" lon="6.37422">
        <ele>282</ele>
        <time>2026-05-27T06:53:45Z</time>
      </trkpt>
      <trkpt lat="43.50087" lon="6.37424">
        <ele>281</ele>
        <time>2026-05-27T06:53:47Z</time>
      </trkpt>
      <trkpt lat="43.50087" lon="6.37427">
        <ele>281</ele>
        <time>2026-05-27T06:53:49Z</time>
      </trkpt>
      <trkpt lat="43.50087" lon="6.3743">
        <ele>281</ele>
        <time>2026-05-27T06:53:51Z</time>
      </trkpt>
      <trkpt lat="43.50088" lon="6.37435">
        <ele>280</ele>
        <time>2026-05-27T06:53:55Z</time>
      </trkpt>
      <trkpt lat="43.50089" lon="6.37438">
        <ele>279</ele>
        <time>2026-05-27T06:53:57Z</time>
      </trkpt>
      <trkpt lat="43.5009" lon="6.37444">
        <ele>278</ele>
        <time>2026-05-27T06:54:01Z</time>
      </trkpt>
      <trkpt lat="43.5009" lon="6.37448">
        <ele>277</ele>
        <time>2026-05-27T06:54:05Z</time>
      </trkpt>
      <trkpt lat="43.5009" lon="6.37451">
        <ele>276</ele>
        <time>2026-05-27T06:54:09Z</time>
      </trkpt>
      <trkpt lat="43.50092" lon="6.37454">
        <ele>275</ele>
        <time>2026-05-27T06:54:11Z</time>
      </trkpt>
      <trkpt lat="43.50094" lon="6.37463">
        <ele>274</ele>
        <time>2026-05-27T06:54:17Z</time>
      </trkpt>
      <trkpt lat="43.50094" lon="6.37466">
        <ele>273</ele>
        <time>2026-05-27T06:54:19Z</time>
      </trkpt>
      <trkpt lat="43.50094" lon="6.37471">
        <ele>273</ele>
        <time>2026-05-27T06:54:23Z</time>
      </trkpt>
      <trkpt lat="43.50094" lon="6.37474">
        <ele>273</ele>
        <time>2026-05-27T06:54:25Z</time>
      </trkpt>
      <trkpt lat="43.50095" lon="6.37476">
        <ele>272</ele>
        <time>2026-05-27T06:54:27Z</time>
      </trkpt>
      <trkpt lat="43.50096" lon="6.37479">
        <ele>272</ele>
        <time>2026-05-27T06:54:29Z</time>
      </trkpt>
      <trkpt lat="43.50095" lon="6.37482">
        <ele>271</ele>
        <time>2026-05-27T06:54:33Z</time>
      </trkpt>
      <trkpt lat="43.50097" lon="6.37487">
        <ele>269</ele>
        <time>2026-05-27T06:54:37Z</time>
      </trkpt>
      <trkpt lat="43.50099" lon="6.37489">
        <ele>268</ele>
        <time>2026-05-27T06:54:39Z</time>
      </trkpt>
      <trkpt lat="43.50101" lon="6.37495">
        <ele>266</ele>
        <time>2026-05-27T06:54:43Z</time>
      </trkpt>
      <trkpt lat="43.501" lon="6.37498">
        <ele>265</ele>
        <time>2026-05-27T06:54:45Z</time>
      </trkpt>
      <trkpt lat="43.50099" lon="6.37503">
        <ele>264</ele>
        <time>2026-05-27T06:54:49Z</time>
      </trkpt>
      <trkpt lat="43.50101" lon="6.3751">
        <ele>264</ele>
        <time>2026-05-27T06:54:53Z</time>
      </trkpt>
      <trkpt lat="43.50102" lon="6.37512">
        <ele>263</ele>
        <time>2026-05-27T06:54:55Z</time>
      </trkpt>
      <trkpt lat="43.50103" lon="6.37515">
        <ele>263</ele>
        <time>2026-05-27T06:54:57Z</time>
      </trkpt>
      <trkpt lat="43.50104" lon="6.37518">
        <ele>262</ele>
        <time>2026-05-27T06:54:59Z</time>
      </trkpt>
      <trkpt lat="43.50107" lon="6.37521">
        <ele>262</ele>
        <time>2026-05-27T06:55:01Z</time>
      </trkpt>
      <trkpt lat="43.50109" lon="6.37523">
        <ele>261</ele>
        <time>2026-05-27T06:55:03Z</time>
      </trkpt>
      <trkpt lat="43.5011" lon="6.37526">
        <ele>261</ele>
        <time>2026-05-27T06:55:05Z</time>
      </trkpt>
      <trkpt lat="43.50111" lon="6.37529">
        <ele>260</ele>
        <time>2026-05-27T06:55:09Z</time>
      </trkpt>
      <trkpt lat="43.50113" lon="6.37532">
        <ele>260</ele>
        <time>2026-05-27T06:55:11Z</time>
      </trkpt>
      <trkpt lat="43.50113" lon="6.37535">
        <ele>259</ele>
        <time>2026-05-27T06:55:13Z</time>
      </trkpt>
      <trkpt lat="43.50114" lon="6.37539">
        <ele>259</ele>
        <time>2026-05-27T06:55:17Z</time>
      </trkpt>
      <trkpt lat="43.50116" lon="6.37542">
        <ele>259</ele>
        <time>2026-05-27T06:55:21Z</time>
      </trkpt>
      <trkpt lat="43.50117" lon="6.37545">
        <ele>258</ele>
        <time>2026-05-27T06:55:23Z</time>
      </trkpt>
      <trkpt lat="43.50123" lon="6.37556">
        <ele>259</ele>
        <time>2026-05-27T06:55:33Z</time>
      </trkpt>
      <trkpt lat="43.50124" lon="6.37565">
        <ele>258</ele>
        <time>2026-05-27T06:55:39Z</time>
      </trkpt>
      <trkpt lat="43.50126" lon="6.37572">
        <ele>257</ele>
        <time>2026-05-27T06:55:45Z</time>
      </trkpt>
      <trkpt lat="43.50129" lon="6.37574">
        <ele>257</ele>
        <time>2026-05-27T06:55:47Z</time>
      </trkpt>
      <trkpt lat="43.50131" lon="6.37579">
        <ele>255</ele>
        <time>2026-05-27T06:55:51Z</time>
      </trkpt>
      <trkpt lat="43.50133" lon="6.37584">
        <ele>254</ele>
        <time>2026-05-27T06:55:55Z</time>
      </trkpt>
      <trkpt lat="43.50136" lon="6.37586">
        <ele>253</ele>
        <time>2026-05-27T06:55:57Z</time>
      </trkpt>
      <trkpt lat="43.50141" lon="6.37589">
        <ele>252</ele>
        <time>2026-05-27T06:56:01Z</time>
      </trkpt>
      <trkpt lat="43.50143" lon="6.37592">
        <ele>252</ele>
        <time>2026-05-27T06:56:03Z</time>
      </trkpt>
      <trkpt lat="43.50145" lon="6.37594">
        <ele>251</ele>
        <time>2026-05-27T06:56:05Z</time>
      </trkpt>
      <trkpt lat="43.50147" lon="6.37596">
        <ele>251</ele>
        <time>2026-05-27T06:56:07Z</time>
      </trkpt>
      <trkpt lat="43.50155" lon="6.37609">
        <ele>249</ele>
        <time>2026-05-27T06:56:19Z</time>
      </trkpt>
      <trkpt lat="43.50157" lon="6.37611">
        <ele>248</ele>
        <time>2026-05-27T06:56:21Z</time>
      </trkpt>
      <trkpt lat="43.50159" lon="6.37616">
        <ele>247</ele>
        <time>2026-05-27T06:56:25Z</time>
      </trkpt>
      <trkpt lat="43.50165" lon="6.37628">
        <ele>247</ele>
        <time>2026-05-27T06:56:35Z</time>
      </trkpt>
      <trkpt lat="43.50168" lon="6.37632">
        <ele>246</ele>
        <time>2026-05-27T06:56:39Z</time>
      </trkpt>
      <trkpt lat="43.50171" lon="6.37635">
        <ele>246</ele>
        <time>2026-05-27T06:56:43Z</time>
      </trkpt>
      <trkpt lat="43.50175" lon="6.37637">
        <ele>247</ele>
        <time>2026-05-27T06:56:47Z</time>
      </trkpt>
      <trkpt lat="43.50181" lon="6.37645">
        <ele>247</ele>
        <time>2026-05-27T06:56:55Z</time>
      </trkpt>
      <trkpt lat="43.50186" lon="6.37648">
        <ele>248</ele>
        <time>2026-05-27T06:56:59Z</time>
      </trkpt>
      <trkpt lat="43.50188" lon="6.37651">
        <ele>248</ele>
        <time>2026-05-27T06:57:01Z</time>
      </trkpt>
      <trkpt lat="43.5019" lon="6.37653">
        <ele>249</ele>
        <time>2026-05-27T06:57:03Z</time>
      </trkpt>
      <trkpt lat="43.50191" lon="6.37656">
        <ele>249</ele>
        <time>2026-05-27T06:57:05Z</time>
      </trkpt>
      <trkpt lat="43.50193" lon="6.37663">
        <ele>250</ele>
        <time>2026-05-27T06:57:11Z</time>
      </trkpt>
      <trkpt lat="43.50193" lon="6.37667">
        <ele>252</ele>
        <time>2026-05-27T06:57:13Z</time>
      </trkpt>
      <trkpt lat="43.50193" lon="6.3767">
        <ele>253</ele>
        <time>2026-05-27T06:57:15Z</time>
      </trkpt>
      <trkpt lat="43.50193" lon="6.37677">
        <ele>255</ele>
        <time>2026-05-27T06:57:23Z</time>
      </trkpt>
      <trkpt lat="43.50192" lon="6.37684">
        <ele>258</ele>
        <time>2026-05-27T06:57:31Z</time>
      </trkpt>
      <trkpt lat="43.50192" lon="6.37687">
        <ele>259</ele>
        <time>2026-05-27T06:57:33Z</time>
      </trkpt>
      <trkpt lat="43.50194" lon="6.37692">
        <ele>260</ele>
        <time>2026-05-27T06:57:37Z</time>
      </trkpt>
      <trkpt lat="43.50195" lon="6.37696">
        <ele>260</ele>
        <time>2026-05-27T06:57:41Z</time>
      </trkpt>
      <trkpt lat="43.50195" lon="6.377">
        <ele>261</ele>
        <time>2026-05-27T06:57:45Z</time>
      </trkpt>
      <trkpt lat="43.50197" lon="6.37705">
        <ele>261</ele>
        <time>2026-05-27T06:57:49Z</time>
      </trkpt>
      <trkpt lat="43.50196" lon="6.3771">
        <ele>262</ele>
        <time>2026-05-27T06:57:53Z</time>
      </trkpt>
      <trkpt lat="43.50195" lon="6.37713">
        <ele>262</ele>
        <time>2026-05-27T06:57:55Z</time>
      </trkpt>
      <trkpt lat="43.50195" lon="6.37716">
        <ele>262</ele>
        <time>2026-05-27T06:57:57Z</time>
      </trkpt>
      <trkpt lat="43.50195" lon="6.37718">
        <ele>262</ele>
        <time>2026-05-27T06:57:59Z</time>
      </trkpt>
      <trkpt lat="43.50196" lon="6.37721">
        <ele>262</ele>
        <time>2026-05-27T06:58:01Z</time>
      </trkpt>
      <trkpt lat="43.502" lon="6.37729">
        <ele>261</ele>
        <time>2026-05-27T06:58:09Z</time>
      </trkpt>
      <trkpt lat="43.502" lon="6.37733">
        <ele>260</ele>
        <time>2026-05-27T06:58:11Z</time>
      </trkpt>
      <trkpt lat="43.50201" lon="6.37735">
        <ele>260</ele>
        <time>2026-05-27T06:58:13Z</time>
      </trkpt>
      <trkpt lat="43.502" lon="6.37739">
        <ele>260</ele>
        <time>2026-05-27T06:58:15Z</time>
      </trkpt>
      <trkpt lat="43.502" lon="6.37742">
        <ele>259</ele>
        <time>2026-05-27T06:58:17Z</time>
      </trkpt>
      <trkpt lat="43.50203" lon="6.37748">
        <ele>259</ele>
        <time>2026-05-27T06:58:21Z</time>
      </trkpt>
      <trkpt lat="43.50204" lon="6.37751">
        <ele>259</ele>
        <time>2026-05-27T06:58:23Z</time>
      </trkpt>
      <trkpt lat="43.50205" lon="6.37753">
        <ele>258</ele>
        <time>2026-05-27T06:58:25Z</time>
      </trkpt>
      <trkpt lat="43.50207" lon="6.37759">
        <ele>258</ele>
        <time>2026-05-27T06:58:29Z</time>
      </trkpt>
      <trkpt lat="43.50207" lon="6.37762">
        <ele>258</ele>
        <time>2026-05-27T06:58:31Z</time>
      </trkpt>
      <trkpt lat="43.50207" lon="6.37768">
        <ele>257</ele>
        <time>2026-05-27T06:58:35Z</time>
      </trkpt>
      <trkpt lat="43.5021" lon="6.37772">
        <ele>256</ele>
        <time>2026-05-27T06:58:39Z</time>
      </trkpt>
      <trkpt lat="43.50211" lon="6.37774">
        <ele>256</ele>
        <time>2026-05-27T06:58:41Z</time>
      </trkpt>
      <trkpt lat="43.50212" lon="6.37779">
        <ele>255</ele>
        <time>2026-05-27T06:58:45Z</time>
      </trkpt>
      <trkpt lat="43.50212" lon="6.37791">
        <ele>255</ele>
        <time>2026-05-27T06:58:51Z</time>
      </trkpt>
      <trkpt lat="43.50213" lon="6.37794">
        <ele>254</ele>
        <time>2026-05-27T06:58:53Z</time>
      </trkpt>
      <trkpt lat="43.50212" lon="6.37798">
        <ele>254</ele>
        <time>2026-05-27T06:58:55Z</time>
      </trkpt>
      <trkpt lat="43.50213" lon="6.37802">
        <ele>254</ele>
        <time>2026-05-27T06:58:59Z</time>
      </trkpt>
      <trkpt lat="43.50212" lon="6.37811">
        <ele>254</ele>
        <time>2026-05-27T06:59:05Z</time>
      </trkpt>
      <trkpt lat="43.50213" lon="6.37814">
        <ele>253</ele>
        <time>2026-05-27T06:59:09Z</time>
      </trkpt>
      <trkpt lat="43.50214" lon="6.37824">
        <ele>253</ele>
        <time>2026-05-27T06:59:15Z</time>
      </trkpt>
      <trkpt lat="43.50215" lon="6.3783">
        <ele>252</ele>
        <time>2026-05-27T06:59:19Z</time>
      </trkpt>
      <trkpt lat="43.50215" lon="6.37835">
        <ele>252</ele>
        <time>2026-05-27T06:59:23Z</time>
      </trkpt>
      <trkpt lat="43.50216" lon="6.37841">
        <ele>252</ele>
        <time>2026-05-27T06:59:27Z</time>
      </trkpt>
      <trkpt lat="43.50216" lon="6.37844">
        <ele>252</ele>
        <time>2026-05-27T06:59:29Z</time>
      </trkpt>
      <trkpt lat="43.50215" lon="6.37848">
        <ele>251</ele>
        <time>2026-05-27T06:59:31Z</time>
      </trkpt>
      <trkpt lat="43.50215" lon="6.37855">
        <ele>251</ele>
        <time>2026-05-27T06:59:35Z</time>
      </trkpt>
      <trkpt lat="43.50216" lon="6.37861">
        <ele>250</ele>
        <time>2026-05-27T06:59:39Z</time>
      </trkpt>
      <trkpt lat="43.50218" lon="6.37872">
        <ele>250</ele>
        <time>2026-05-27T06:59:45Z</time>
      </trkpt>
      <trkpt lat="43.5022" lon="6.37886">
        <ele>249</ele>
        <time>2026-05-27T06:59:53Z</time>
      </trkpt>
      <trkpt lat="43.5022" lon="6.37889">
        <ele>249</ele>
        <time>2026-05-27T06:59:55Z</time>
      </trkpt>
      <trkpt lat="43.5022" lon="6.37892">
        <ele>249</ele>
        <time>2026-05-27T06:59:57Z</time>
      </trkpt>
      <trkpt lat="43.50221" lon="6.37895">
        <ele>249</ele>
        <time>2026-05-27T06:59:59Z</time>
      </trkpt>
      <trkpt lat="43.50221" lon="6.37904">
        <ele>249</ele>
        <time>2026-05-27T07:00:05Z</time>
      </trkpt>
      <trkpt lat="43.50221" lon="6.37907">
        <ele>249</ele>
        <time>2026-05-27T07:00:07Z</time>
      </trkpt>
      <trkpt lat="43.50222" lon="6.3791">
        <ele>249</ele>
        <time>2026-05-27T07:00:09Z</time>
      </trkpt>
      <trkpt lat="43.50223" lon="6.37914">
        <ele>248</ele>
        <time>2026-05-27T07:00:11Z</time>
      </trkpt>
      <trkpt lat="43.50229" lon="6.37923">
        <ele>248</ele>
        <time>2026-05-27T07:00:17Z</time>
      </trkpt>
      <trkpt lat="43.50226" lon="6.37923">
        <ele>247</ele>
        <time>2026-05-27T07:00:19Z</time>
      </trkpt>
      <trkpt lat="43.50239" lon="6.37935">
        <ele>245</ele>
        <time>2026-05-27T07:00:27Z</time>
      </trkpt>
      <trkpt lat="43.50244" lon="6.37936">
        <ele>246</ele>
        <time>2026-05-27T07:00:31Z</time>
      </trkpt>
      <trkpt lat="43.50248" lon="6.37938">
        <ele>247</ele>
        <time>2026-05-27T07:00:33Z</time>
      </trkpt>
      <trkpt lat="43.50252" lon="6.37944">
        <ele>249</ele>
        <time>2026-05-27T07:00:37Z</time>
      </trkpt>
      <trkpt lat="43.50254" lon="6.37947">
        <ele>250</ele>
        <time>2026-05-27T07:00:43Z</time>
      </trkpt>
      <trkpt lat="43.50257" lon="6.37953">
        <ele>251</ele>
        <time>2026-05-27T07:00:49Z</time>
      </trkpt>
      <trkpt lat="43.50258" lon="6.37956">
        <ele>251</ele>
        <time>2026-05-27T07:00:53Z</time>
      </trkpt>
      <trkpt lat="43.50257" lon="6.37959">
        <ele>251</ele>
        <time>2026-05-27T07:00:57Z</time>
      </trkpt>
      <trkpt lat="43.50259" lon="6.37962">
        <ele>251</ele>
        <time>2026-05-27T07:01:03Z</time>
      </trkpt>
      <trkpt lat="43.50263" lon="6.37967">
        <ele>250</ele>
        <time>2026-05-27T07:01:07Z</time>
      </trkpt>
      <trkpt lat="43.50268" lon="6.37971">
        <ele>250</ele>
        <time>2026-05-27T07:01:15Z</time>
      </trkpt>
      <trkpt lat="43.5027" lon="6.3798">
        <ele>251</ele>
        <time>2026-05-27T07:01:21Z</time>
      </trkpt>
      <trkpt lat="43.5027" lon="6.37984">
        <ele>250</ele>
        <time>2026-05-27T07:01:23Z</time>
      </trkpt>
      <trkpt lat="43.5027" lon="6.37988">
        <ele>250</ele>
        <time>2026-05-27T07:01:25Z</time>
      </trkpt>
      <trkpt lat="43.5027" lon="6.37995">
        <ele>250</ele>
        <time>2026-05-27T07:01:29Z</time>
      </trkpt>
      <trkpt lat="43.5027" lon="6.38">
        <ele>250</ele>
        <time>2026-05-27T07:01:31Z</time>
      </trkpt>
      <trkpt lat="43.50271" lon="6.38006">
        <ele>250</ele>
        <time>2026-05-27T07:01:35Z</time>
      </trkpt>
      <trkpt lat="43.50271" lon="6.38011">
        <ele>250</ele>
        <time>2026-05-27T07:01:37Z</time>
      </trkpt>
      <trkpt lat="43.50272" lon="6.38014">
        <ele>250</ele>
        <time>2026-05-27T07:01:39Z</time>
      </trkpt>
      <trkpt lat="43.50274" lon="6.38018">
        <ele>250</ele>
        <time>2026-05-27T07:01:43Z</time>
      </trkpt>
      <trkpt lat="43.50275" lon="6.38025">
        <ele>250</ele>
        <time>2026-05-27T07:01:49Z</time>
      </trkpt>
      <trkpt lat="43.50275" lon="6.38032">
        <ele>250</ele>
        <time>2026-05-27T07:01:55Z</time>
      </trkpt>
      <trkpt lat="43.50277" lon="6.38041">
        <ele>250</ele>
        <time>2026-05-27T07:01:57Z</time>
      </trkpt>
      <trkpt lat="43.50277" lon="6.38046">
        <ele>250</ele>
        <time>2026-05-27T07:01:59Z</time>
      </trkpt>
      <trkpt lat="43.50276" lon="6.3806">
        <ele>253</ele>
        <time>2026-05-27T07:02:07Z</time>
      </trkpt>
      <trkpt lat="43.50278" lon="6.38062">
        <ele>254</ele>
        <time>2026-05-27T07:02:09Z</time>
      </trkpt>
      <trkpt lat="43.50279" lon="6.38065">
        <ele>255</ele>
        <time>2026-05-27T07:02:11Z</time>
      </trkpt>
      <trkpt lat="43.50279" lon="6.38068">
        <ele>255</ele>
        <time>2026-05-27T07:02:13Z</time>
      </trkpt>
      <trkpt lat="43.50279" lon="6.38071">
        <ele>256</ele>
        <time>2026-05-27T07:02:15Z</time>
      </trkpt>
      <trkpt lat="43.50279" lon="6.38074">
        <ele>256</ele>
        <time>2026-05-27T07:02:19Z</time>
      </trkpt>
      <trkpt lat="43.5028" lon="6.38078">
        <ele>257</ele>
        <time>2026-05-27T07:02:23Z</time>
      </trkpt>
      <trkpt lat="43.50281" lon="6.38082">
        <ele>257</ele>
        <time>2026-05-27T07:02:25Z</time>
      </trkpt>
      <trkpt lat="43.50279" lon="6.38082">
        <ele>256</ele>
        <time>2026-05-27T07:02:27Z</time>
      </trkpt>
      <trkpt lat="43.50279" lon="6.38086">
        <ele>255</ele>
        <time>2026-05-27T07:02:31Z</time>
      </trkpt>
      <trkpt lat="43.50286" lon="6.38097">
        <ele>254</ele>
        <time>2026-05-27T07:02:41Z</time>
      </trkpt>
      <trkpt lat="43.50286" lon="6.38101">
        <ele>253</ele>
        <time>2026-05-27T07:02:43Z</time>
      </trkpt>
      <trkpt lat="43.50289" lon="6.38115">
        <ele>252</ele>
        <time>2026-05-27T07:02:55Z</time>
      </trkpt>
      <trkpt lat="43.5029" lon="6.3812">
        <ele>252</ele>
        <time>2026-05-27T07:02:57Z</time>
      </trkpt>
      <trkpt lat="43.5029" lon="6.38123">
        <ele>252</ele>
        <time>2026-05-27T07:02:59Z</time>
      </trkpt>
      <trkpt lat="43.5029" lon="6.38127">
        <ele>251</ele>
        <time>2026-05-27T07:03:01Z</time>
      </trkpt>
      <trkpt lat="43.50295" lon="6.3813">
        <ele>249</ele>
        <time>2026-05-27T07:03:07Z</time>
      </trkpt>
      <trkpt lat="43.50296" lon="6.38134">
        <ele>248</ele>
        <time>2026-05-27T07:03:11Z</time>
      </trkpt>
      <trkpt lat="43.50297" lon="6.3814">
        <ele>245</ele>
        <time>2026-05-27T07:03:15Z</time>
      </trkpt>
      <trkpt lat="43.50299" lon="6.38144">
        <ele>244</ele>
        <time>2026-05-27T07:03:19Z</time>
      </trkpt>
      <trkpt lat="43.503" lon="6.38147">
        <ele>244</ele>
        <time>2026-05-27T07:03:21Z</time>
      </trkpt>
      <trkpt lat="43.50304" lon="6.38153">
        <ele>242</ele>
        <time>2026-05-27T07:03:25Z</time>
      </trkpt>
      <trkpt lat="43.50306" lon="6.38158">
        <ele>241</ele>
        <time>2026-05-27T07:03:29Z</time>
      </trkpt>
      <trkpt lat="43.50307" lon="6.38162">
        <ele>241</ele>
        <time>2026-05-27T07:03:31Z</time>
      </trkpt>
      <trkpt lat="43.50308" lon="6.38168">
        <ele>240</ele>
        <time>2026-05-27T07:03:35Z</time>
      </trkpt>
      <trkpt lat="43.50309" lon="6.38175">
        <ele>240</ele>
        <time>2026-05-27T07:03:39Z</time>
      </trkpt>
      <trkpt lat="43.5031" lon="6.38179">
        <ele>239</ele>
        <time>2026-05-27T07:03:41Z</time>
      </trkpt>
      <trkpt lat="43.50313" lon="6.38187">
        <ele>238</ele>
        <time>2026-05-27T07:03:45Z</time>
      </trkpt>
      <trkpt lat="43.50315" lon="6.3819">
        <ele>238</ele>
        <time>2026-05-27T07:03:47Z</time>
      </trkpt>
      <trkpt lat="43.50316" lon="6.38192">
        <ele>238</ele>
        <time>2026-05-27T07:03:49Z</time>
      </trkpt>
      <trkpt lat="43.50319" lon="6.38192">
        <ele>237</ele>
        <time>2026-05-27T07:03:53Z</time>
      </trkpt>
      <trkpt lat="43.50318" lon="6.38191">
        <ele>238</ele>
        <time>2026-05-27T07:04:09Z</time>
      </trkpt>
      <trkpt lat="43.50317" lon="6.38195">
        <ele>238</ele>
        <time>2026-05-27T07:04:15Z</time>
      </trkpt>
      <trkpt lat="43.50327" lon="6.38198">
        <ele>241</ele>
        <time>2026-05-27T07:04:25Z</time>
      </trkpt>
      <trkpt lat="43.5033" lon="6.38199">
        <ele>242</ele>
        <time>2026-05-27T07:04:29Z</time>
      </trkpt>
      <trkpt lat="43.50332" lon="6.38201">
        <ele>242</ele>
        <time>2026-05-27T07:04:33Z</time>
      </trkpt>
      <trkpt lat="43.50335" lon="6.38205">
        <ele>242</ele>
        <time>2026-05-27T07:04:37Z</time>
      </trkpt>
      <trkpt lat="43.50337" lon="6.38207">
        <ele>242</ele>
        <time>2026-05-27T07:04:41Z</time>
      </trkpt>
      <trkpt lat="43.50341" lon="6.38211">
        <ele>242</ele>
        <time>2026-05-27T07:04:45Z</time>
      </trkpt>
      <trkpt lat="43.50342" lon="6.38215">
        <ele>242</ele>
        <time>2026-05-27T07:04:49Z</time>
      </trkpt>
      <trkpt lat="43.50347" lon="6.38222">
        <ele>241</ele>
        <time>2026-05-27T07:04:57Z</time>
      </trkpt>
      <trkpt lat="43.50352" lon="6.38226">
        <ele>241</ele>
        <time>2026-05-27T07:05:01Z</time>
      </trkpt>
      <trkpt lat="43.50353" lon="6.38228">
        <ele>241</ele>
        <time>2026-05-27T07:05:03Z</time>
      </trkpt>
      <trkpt lat="43.50356" lon="6.38228">
        <ele>241</ele>
        <time>2026-05-27T07:05:05Z</time>
      </trkpt>
      <trkpt lat="43.50361" lon="6.38233">
        <ele>240</ele>
        <time>2026-05-27T07:05:11Z</time>
      </trkpt>
      <trkpt lat="43.50363" lon="6.38235">
        <ele>240</ele>
        <time>2026-05-27T07:05:13Z</time>
      </trkpt>
      <trkpt lat="43.50365" lon="6.38237">
        <ele>240</ele>
        <time>2026-05-27T07:05:15Z</time>
      </trkpt>
      <trkpt lat="43.50366" lon="6.3824">
        <ele>240</ele>
        <time>2026-05-27T07:05:17Z</time>
      </trkpt>
      <trkpt lat="43.50367" lon="6.38242">
        <ele>239</ele>
        <time>2026-05-27T07:05:19Z</time>
      </trkpt>
      <trkpt lat="43.50369" lon="6.38244">
        <ele>239</ele>
        <time>2026-05-27T07:05:21Z</time>
      </trkpt>
      <trkpt lat="43.50371" lon="6.38246">
        <ele>238</ele>
        <time>2026-05-27T07:05:23Z</time>
      </trkpt>
      <trkpt lat="43.50375" lon="6.38249">
        <ele>237</ele>
        <time>2026-05-27T07:05:27Z</time>
      </trkpt>
      <trkpt lat="43.50377" lon="6.38251">
        <ele>236</ele>
        <time>2026-05-27T07:05:31Z</time>
      </trkpt>
      <trkpt lat="43.50379" lon="6.38254">
        <ele>236</ele>
        <time>2026-05-27T07:05:35Z</time>
      </trkpt>
      <trkpt lat="43.50378" lon="6.38257">
        <ele>236</ele>
        <time>2026-05-27T07:05:37Z</time>
      </trkpt>
      <trkpt lat="43.50379" lon="6.38262">
        <ele>236</ele>
        <time>2026-05-27T07:05:41Z</time>
      </trkpt>
      <trkpt lat="43.50392" lon="6.38269">
        <ele>236</ele>
        <time>2026-05-27T07:05:57Z</time>
      </trkpt>
      <trkpt lat="43.50401" lon="6.38269">
        <ele>235</ele>
        <time>2026-05-27T07:06:07Z</time>
      </trkpt>
      <trkpt lat="43.50412" lon="6.38269">
        <ele>234</ele>
        <time>2026-05-27T07:06:17Z</time>
      </trkpt>
      <trkpt lat="43.50419" lon="6.38269">
        <ele>233</ele>
        <time>2026-05-27T07:06:21Z</time>
      </trkpt>
      <trkpt lat="43.50421" lon="6.38268">
        <ele>232</ele>
        <time>2026-05-27T07:06:23Z</time>
      </trkpt>
      <trkpt lat="43.50423" lon="6.38265">
        <ele>232</ele>
        <time>2026-05-27T07:06:25Z</time>
      </trkpt>
      <trkpt lat="43.50425" lon="6.38263">
        <ele>232</ele>
        <time>2026-05-27T07:06:27Z</time>
      </trkpt>
      <trkpt lat="43.50426" lon="6.3826">
        <ele>232</ele>
        <time>2026-05-27T07:06:29Z</time>
      </trkpt>
      <trkpt lat="43.50427" lon="6.38258">
        <ele>232</ele>
        <time>2026-05-27T07:06:31Z</time>
      </trkpt>
      <trkpt lat="43.50429" lon="6.38255">
        <ele>232</ele>
        <time>2026-05-27T07:06:33Z</time>
      </trkpt>
      <trkpt lat="43.50432" lon="6.38246">
        <ele>234</ele>
        <time>2026-05-27T07:06:42Z</time>
      </trkpt>
      <trkpt lat="43.50432" lon="6.38243">
        <ele>235</ele>
        <time>2026-05-27T07:06:44Z</time>
      </trkpt>
      <trkpt lat="43.50432" lon="6.3824">
        <ele>236</ele>
        <time>2026-05-27T07:06:46Z</time>
      </trkpt>
      <trkpt lat="43.50432" lon="6.38232">
        <ele>238</ele>
        <time>2026-05-27T07:06:52Z</time>
      </trkpt>
      <trkpt lat="43.50432" lon="6.38229">
        <ele>239</ele>
        <time>2026-05-27T07:06:54Z</time>
      </trkpt>
      <trkpt lat="43.50433" lon="6.38218">
        <ele>241</ele>
        <time>2026-05-27T07:07:02Z</time>
      </trkpt>
      <trkpt lat="43.50434" lon="6.38213">
        <ele>242</ele>
        <time>2026-05-27T07:07:06Z</time>
      </trkpt>
      <trkpt lat="43.50435" lon="6.38206">
        <ele>244</ele>
        <time>2026-05-27T07:07:16Z</time>
      </trkpt>
      <trkpt lat="43.50436" lon="6.38201">
        <ele>245</ele>
        <time>2026-05-27T07:07:18Z</time>
      </trkpt>
      <trkpt lat="43.50437" lon="6.38199">
        <ele>245</ele>
        <time>2026-05-27T07:07:20Z</time>
      </trkpt>
      <trkpt lat="43.50438" lon="6.38196">
        <ele>246</ele>
        <time>2026-05-27T07:07:22Z</time>
      </trkpt>
      <trkpt lat="43.50439" lon="6.38194">
        <ele>246</ele>
        <time>2026-05-27T07:07:26Z</time>
      </trkpt>
      <trkpt lat="43.50442" lon="6.38194">
        <ele>247</ele>
        <time>2026-05-27T07:07:32Z</time>
      </trkpt>
      <trkpt lat="43.50443" lon="6.38196">
        <ele>248</ele>
        <time>2026-05-27T07:07:38Z</time>
      </trkpt>
      <trkpt lat="43.50445" lon="6.38198">
        <ele>248</ele>
        <time>2026-05-27T07:07:42Z</time>
      </trkpt>
      <trkpt lat="43.50448" lon="6.38201">
        <ele>248</ele>
        <time>2026-05-27T07:07:46Z</time>
      </trkpt>
      <trkpt lat="43.50448" lon="6.38198">
        <ele>248</ele>
        <time>2026-05-27T07:07:52Z</time>
      </trkpt>
      <trkpt lat="43.50446" lon="6.38197">
        <ele>249</ele>
        <time>2026-05-27T07:07:56Z</time>
      </trkpt>
      <trkpt lat="43.50448" lon="6.38194">
        <ele>249</ele>
        <time>2026-05-27T07:08:02Z</time>
      </trkpt>
      <trkpt lat="43.50456" lon="6.38195">
        <ele>249</ele>
        <time>2026-05-27T07:08:08Z</time>
      </trkpt>
      <trkpt lat="43.50458" lon="6.38195">
        <ele>249</ele>
        <time>2026-05-27T07:08:10Z</time>
      </trkpt>
      <trkpt lat="43.50464" lon="6.38196">
        <ele>249</ele>
        <time>2026-05-27T07:08:16Z</time>
      </trkpt>
      <trkpt lat="43.50473" lon="6.38199">
        <ele>248</ele>
        <time>2026-05-27T07:08:24Z</time>
      </trkpt>
      <trkpt lat="43.50484" lon="6.38202">
        <ele>247</ele>
        <time>2026-05-27T07:08:34Z</time>
      </trkpt>
      <trkpt lat="43.50487" lon="6.38202">
        <ele>247</ele>
        <time>2026-05-27T07:08:36Z</time>
      </trkpt>
      <trkpt lat="43.50493" lon="6.38205">
        <ele>246</ele>
        <time>2026-05-27T07:08:42Z</time>
      </trkpt>
      <trkpt lat="43.50496" lon="6.38207">
        <ele>246</ele>
        <time>2026-05-27T07:08:44Z</time>
      </trkpt>
      <trkpt lat="43.50497" lon="6.38209">
        <ele>245</ele>
        <time>2026-05-27T07:08:46Z</time>
      </trkpt>
      <trkpt lat="43.50501" lon="6.38208">
        <ele>245</ele>
        <time>2026-05-27T07:08:52Z</time>
      </trkpt>
      <trkpt lat="43.50508" lon="6.38209">
        <ele>246</ele>
        <time>2026-05-27T07:08:56Z</time>
      </trkpt>
      <trkpt lat="43.50511" lon="6.38209">
        <ele>246</ele>
        <time>2026-05-27T07:08:58Z</time>
      </trkpt>
      <trkpt lat="43.50519" lon="6.3821">
        <ele>247</ele>
        <time>2026-05-27T07:09:04Z</time>
      </trkpt>
      <trkpt lat="43.50523" lon="6.3821">
        <ele>247</ele>
        <time>2026-05-27T07:09:08Z</time>
      </trkpt>
      <trkpt lat="43.50529" lon="6.38212">
        <ele>247</ele>
        <time>2026-05-27T07:09:12Z</time>
      </trkpt>
      <trkpt lat="43.50532" lon="6.38214">
        <ele>248</ele>
        <time>2026-05-27T07:09:14Z</time>
      </trkpt>
      <trkpt lat="43.50531" lon="6.38221">
        <ele>247</ele>
        <time>2026-05-27T07:09:17Z</time>
      </trkpt>
      <trkpt lat="43.50531" lon="6.38223">
        <ele>247</ele>
        <time>2026-05-27T07:09:19Z</time>
      </trkpt>
      <trkpt lat="43.50548" lon="6.38214">
        <ele>244</ele>
        <time>2026-05-27T07:09:27Z</time>
      </trkpt>
      <trkpt lat="43.50553" lon="6.38213">
        <ele>244</ele>
        <time>2026-05-27T07:09:29Z</time>
      </trkpt>
      <trkpt lat="43.50562" lon="6.38208">
        <ele>246</ele>
        <time>2026-05-27T07:09:37Z</time>
      </trkpt>
      <trkpt lat="43.50566" lon="6.38207">
        <ele>247</ele>
        <time>2026-05-27T07:09:43Z</time>
      </trkpt>
      <trkpt lat="43.50571" lon="6.38205">
        <ele>248</ele>
        <time>2026-05-27T07:09:49Z</time>
      </trkpt>
      <trkpt lat="43.50574" lon="6.38204">
        <ele>248</ele>
        <time>2026-05-27T07:09:51Z</time>
      </trkpt>
      <trkpt lat="43.50576" lon="6.38204">
        <ele>249</ele>
        <time>2026-05-27T07:09:53Z</time>
      </trkpt>
      <trkpt lat="43.5058" lon="6.38202">
        <ele>249</ele>
        <time>2026-05-27T07:09:59Z</time>
      </trkpt>
      <trkpt lat="43.50589" lon="6.38196">
        <ele>249</ele>
        <time>2026-05-27T07:10:07Z</time>
      </trkpt>
      <trkpt lat="43.50591" lon="6.38194">
        <ele>249</ele>
        <time>2026-05-27T07:10:09Z</time>
      </trkpt>
      <trkpt lat="43.50595" lon="6.38192">
        <ele>249</ele>
        <time>2026-05-27T07:10:11Z</time>
      </trkpt>
      <trkpt lat="43.50596" lon="6.38191">
        <ele>249</ele>
        <time>2026-05-27T07:10:13Z</time>
      </trkpt>
      <trkpt lat="43.506" lon="6.3819">
        <ele>248</ele>
        <time>2026-05-27T07:10:17Z</time>
      </trkpt>
      <trkpt lat="43.50605" lon="6.38186">
        <ele>247</ele>
        <time>2026-05-27T07:10:21Z</time>
      </trkpt>
      <trkpt lat="43.50616" lon="6.38174">
        <ele>246</ele>
        <time>2026-05-27T07:10:31Z</time>
      </trkpt>
      <trkpt lat="43.5062" lon="6.38168">
        <ele>245</ele>
        <time>2026-05-27T07:10:37Z</time>
      </trkpt>
      <trkpt lat="43.50628" lon="6.38161">
        <ele>244</ele>
        <time>2026-05-27T07:10:43Z</time>
      </trkpt>
      <trkpt lat="43.50634" lon="6.38154">
        <ele>243</ele>
        <time>2026-05-27T07:10:49Z</time>
      </trkpt>
      <trkpt lat="43.50639" lon="6.38148">
        <ele>241</ele>
        <time>2026-05-27T07:10:55Z</time>
      </trkpt>
      <trkpt lat="43.50646" lon="6.38133">
        <ele>239</ele>
        <time>2026-05-27T07:11:03Z</time>
      </trkpt>
      <trkpt lat="43.50647" lon="6.38131">
        <ele>239</ele>
        <time>2026-05-27T07:11:05Z</time>
      </trkpt>
      <trkpt lat="43.50648" lon="6.38128">
        <ele>239</ele>
        <time>2026-05-27T07:11:07Z</time>
      </trkpt>
      <trkpt lat="43.50657" lon="6.38118">
        <ele>237</ele>
        <time>2026-05-27T07:11:15Z</time>
      </trkpt>
      <trkpt lat="43.50658" lon="6.38117">
        <ele>237</ele>
        <time>2026-05-27T07:11:17Z</time>
      </trkpt>
      <trkpt lat="43.5066" lon="6.38112">
        <ele>236</ele>
        <time>2026-05-27T07:11:21Z</time>
      </trkpt>
      <trkpt lat="43.50662" lon="6.38109">
        <ele>236</ele>
        <time>2026-05-27T07:11:23Z</time>
      </trkpt>
      <trkpt lat="43.50665" lon="6.38104">
        <ele>236</ele>
        <time>2026-05-27T07:11:29Z</time>
      </trkpt>
      <trkpt lat="43.50666" lon="6.38101">
        <ele>235</ele>
        <time>2026-05-27T07:11:31Z</time>
      </trkpt>
      <trkpt lat="43.5067" lon="6.38095">
        <ele>235</ele>
        <time>2026-05-27T07:11:35Z</time>
      </trkpt>
      <trkpt lat="43.50674" lon="6.38085">
        <ele>235</ele>
        <time>2026-05-27T07:11:41Z</time>
      </trkpt>
      <trkpt lat="43.50676" lon="6.38084">
        <ele>235</ele>
        <time>2026-05-27T07:11:43Z</time>
      </trkpt>
      <trkpt lat="43.50678" lon="6.38081">
        <ele>235</ele>
        <time>2026-05-27T07:11:45Z</time>
      </trkpt>
      <trkpt lat="43.50681" lon="6.3807">
        <ele>234</ele>
        <time>2026-05-27T07:11:53Z</time>
      </trkpt>
      <trkpt lat="43.50689" lon="6.38063">
        <ele>232</ele>
        <time>2026-05-27T07:12:01Z</time>
      </trkpt>
      <trkpt lat="43.50691" lon="6.38061">
        <ele>232</ele>
        <time>2026-05-27T07:12:03Z</time>
      </trkpt>
      <trkpt lat="43.50693" lon="6.38058">
        <ele>231</ele>
        <time>2026-05-27T07:12:07Z</time>
      </trkpt>
      <trkpt lat="43.50697" lon="6.38054">
        <ele>231</ele>
        <time>2026-05-27T07:12:11Z</time>
      </trkpt>
      <trkpt lat="43.50708" lon="6.38039">
        <ele>227</ele>
        <time>2026-05-27T07:12:25Z</time>
      </trkpt>
      <trkpt lat="43.50711" lon="6.38039">
        <ele>227</ele>
        <time>2026-05-27T07:12:27Z</time>
      </trkpt>
      <trkpt lat="43.50717" lon="6.38034">
        <ele>226</ele>
        <time>2026-05-27T07:12:33Z</time>
      </trkpt>
      <trkpt lat="43.5072" lon="6.38033">
        <ele>225</ele>
        <time>2026-05-27T07:12:35Z</time>
      </trkpt>
      <trkpt lat="43.50722" lon="6.38032">
        <ele>225</ele>
        <time>2026-05-27T07:12:37Z</time>
      </trkpt>
      <trkpt lat="43.50729" lon="6.38026">
        <ele>223</ele>
        <time>2026-05-27T07:12:43Z</time>
      </trkpt>
      <trkpt lat="43.50742" lon="6.38017">
        <ele>219</ele>
        <time>2026-05-27T07:12:55Z</time>
      </trkpt>
      <trkpt lat="43.50745" lon="6.38015">
        <ele>219</ele>
        <time>2026-05-27T07:12:57Z</time>
      </trkpt>
      <trkpt lat="43.50747" lon="6.38013">
        <ele>218</ele>
        <time>2026-05-27T07:12:59Z</time>
      </trkpt>
      <trkpt lat="43.50748" lon="6.38011">
        <ele>218</ele>
        <time>2026-05-27T07:13:01Z</time>
      </trkpt>
      <trkpt lat="43.50751" lon="6.3801">
        <ele>218</ele>
        <time>2026-05-27T07:13:03Z</time>
      </trkpt>
      <trkpt lat="43.50753" lon="6.38008">
        <ele>218</ele>
        <time>2026-05-27T07:13:05Z</time>
      </trkpt>
      <trkpt lat="43.5076" lon="6.38">
        <ele>219</ele>
        <time>2026-05-27T07:13:13Z</time>
      </trkpt>
      <trkpt lat="43.50762" lon="6.37999">
        <ele>219</ele>
        <time>2026-05-27T07:13:15Z</time>
      </trkpt>
      <trkpt lat="43.50767" lon="6.37997">
        <ele>220</ele>
        <time>2026-05-27T07:13:19Z</time>
      </trkpt>
      <trkpt lat="43.50769" lon="6.37995">
        <ele>220</ele>
        <time>2026-05-27T07:13:21Z</time>
      </trkpt>
      <trkpt lat="43.50773" lon="6.3799">
        <ele>221</ele>
        <time>2026-05-27T07:13:25Z</time>
      </trkpt>
      <trkpt lat="43.50774" lon="6.37986">
        <ele>221</ele>
        <time>2026-05-27T07:13:27Z</time>
      </trkpt>
      <trkpt lat="43.50777" lon="6.37984">
        <ele>222</ele>
        <time>2026-05-27T07:13:29Z</time>
      </trkpt>
      <trkpt lat="43.50779" lon="6.37983">
        <ele>222</ele>
        <time>2026-05-27T07:13:31Z</time>
      </trkpt>
      <trkpt lat="43.50803" lon="6.37985">
        <ele>222</ele>
        <time>2026-05-27T07:13:49Z</time>
      </trkpt>
      <trkpt lat="43.50808" lon="6.37986">
        <ele>222</ele>
        <time>2026-05-27T07:13:53Z</time>
      </trkpt>
      <trkpt lat="43.50812" lon="6.37989">
        <ele>222</ele>
        <time>2026-05-27T07:13:57Z</time>
      </trkpt>
      <trkpt lat="43.50822" lon="6.37995">
        <ele>223</ele>
        <time>2026-05-27T07:14:05Z</time>
      </trkpt>
      <trkpt lat="43.50824" lon="6.37997">
        <ele>224</ele>
        <time>2026-05-27T07:14:07Z</time>
      </trkpt>
      <trkpt lat="43.50827" lon="6.37997">
        <ele>224</ele>
        <time>2026-05-27T07:14:09Z</time>
      </trkpt>
      <trkpt lat="43.50829" lon="6.37998">
        <ele>224</ele>
        <time>2026-05-27T07:14:11Z</time>
      </trkpt>
      <trkpt lat="43.50834" lon="6.37994">
        <ele>225</ele>
        <time>2026-05-27T07:14:15Z</time>
      </trkpt>
      <trkpt lat="43.50839" lon="6.37995">
        <ele>226</ele>
        <time>2026-05-27T07:14:19Z</time>
      </trkpt>
      <trkpt lat="43.50845" lon="6.37996">
        <ele>227</ele>
        <time>2026-05-27T07:14:23Z</time>
      </trkpt>
      <trkpt lat="43.50848" lon="6.37997">
        <ele>228</ele>
        <time>2026-05-27T07:14:25Z</time>
      </trkpt>
      <trkpt lat="43.50853" lon="6.37998">
        <ele>229</ele>
        <time>2026-05-27T07:14:29Z</time>
      </trkpt>
      <trkpt lat="43.50867" lon="6.38008">
        <ele>232</ele>
        <time>2026-05-27T07:14:43Z</time>
      </trkpt>
      <trkpt lat="43.50868" lon="6.3801">
        <ele>232</ele>
        <time>2026-05-27T07:14:45Z</time>
      </trkpt>
      <trkpt lat="43.50871" lon="6.38013">
        <ele>232</ele>
        <time>2026-05-27T07:14:49Z</time>
      </trkpt>
      <trkpt lat="43.50873" lon="6.38016">
        <ele>233</ele>
        <time>2026-05-27T07:14:51Z</time>
      </trkpt>
      <trkpt lat="43.50877" lon="6.38018">
        <ele>233</ele>
        <time>2026-05-27T07:14:55Z</time>
      </trkpt>
      <trkpt lat="43.50882" lon="6.38019">
        <ele>234</ele>
        <time>2026-05-27T07:14:59Z</time>
      </trkpt>
      <trkpt lat="43.50914" lon="6.38007">
        <ele>236</ele>
        <time>2026-05-27T07:15:25Z</time>
      </trkpt>
      <trkpt lat="43.50923" lon="6.38005">
        <ele>237</ele>
        <time>2026-05-27T07:15:31Z</time>
      </trkpt>
      <trkpt lat="43.50931" lon="6.38002">
        <ele>236</ele>
        <time>2026-05-27T07:15:37Z</time>
      </trkpt>
      <trkpt lat="43.50937" lon="6.38">
        <ele>236</ele>
        <time>2026-05-27T07:15:43Z</time>
      </trkpt>
      <trkpt lat="43.50948" lon="6.37995">
        <ele>235</ele>
        <time>2026-05-27T07:15:53Z</time>
      </trkpt>
      <trkpt lat="43.5095" lon="6.37994">
        <ele>235</ele>
        <time>2026-05-27T07:15:55Z</time>
      </trkpt>
      <trkpt lat="43.50956" lon="6.3799">
        <ele>234</ele>
        <time>2026-05-27T07:15:59Z</time>
      </trkpt>
      <trkpt lat="43.50958" lon="6.37989">
        <ele>234</ele>
        <time>2026-05-27T07:16:01Z</time>
      </trkpt>
      <trkpt lat="43.5097" lon="6.37986">
        <ele>233</ele>
        <time>2026-05-27T07:16:11Z</time>
      </trkpt>
      <trkpt lat="43.50973" lon="6.37985">
        <ele>233</ele>
        <time>2026-05-27T07:16:13Z</time>
      </trkpt>
      <trkpt lat="43.50978" lon="6.37986">
        <ele>234</ele>
        <time>2026-05-27T07:16:17Z</time>
      </trkpt>
      <trkpt lat="43.50983" lon="6.37985">
        <ele>235</ele>
        <time>2026-05-27T07:16:23Z</time>
      </trkpt>
      <trkpt lat="43.50981" lon="6.37985">
        <ele>238</ele>
        <time>2026-05-27T07:16:47Z</time>
      </trkpt>
      <trkpt lat="43.5098" lon="6.37986">
        <ele>255</ele>
        <time>2026-05-27T07:20:21Z</time>
      </trkpt>
      <trkpt lat="43.5098" lon="6.37982">
        <ele>255</ele>
        <time>2026-05-27T07:20:23Z</time>
      </trkpt>
      <trkpt lat="43.50981" lon="6.3798">
        <ele>257</ele>
        <time>2026-05-27T07:20:27Z</time>
      </trkpt>
      <trkpt lat="43.50983" lon="6.37982">
        <ele>257</ele>
        <time>2026-05-27T07:20:29Z</time>
      </trkpt>
      <trkpt lat="43.50986" lon="6.37984">
        <ele>257</ele>
        <time>2026-05-27T07:20:31Z</time>
      </trkpt>
      <trkpt lat="43.50988" lon="6.37987">
        <ele>257</ele>
        <time>2026-05-27T07:20:33Z</time>
      </trkpt>
      <trkpt lat="43.50996" lon="6.37989">
        <ele>256</ele>
        <time>2026-05-27T07:20:41Z</time>
      </trkpt>
      <trkpt lat="43.50999" lon="6.3799">
        <ele>256</ele>
        <time>2026-05-27T07:20:45Z</time>
      </trkpt>
      <trkpt lat="43.51008" lon="6.37992">
        <ele>254</ele>
        <time>2026-05-27T07:20:51Z</time>
      </trkpt>
      <trkpt lat="43.51014" lon="6.37993">
        <ele>252</ele>
        <time>2026-05-27T07:20:59Z</time>
      </trkpt>
      <trkpt lat="43.51016" lon="6.37994">
        <ele>251</ele>
        <time>2026-05-27T07:21:01Z</time>
      </trkpt>
      <trkpt lat="43.51039" lon="6.38">
        <ele>247</ele>
        <time>2026-05-27T07:21:21Z</time>
      </trkpt>
      <trkpt lat="43.51041" lon="6.38001">
        <ele>246</ele>
        <time>2026-05-27T07:21:23Z</time>
      </trkpt>
      <trkpt lat="43.51054" lon="6.38002">
        <ele>246</ele>
        <time>2026-05-27T07:21:35Z</time>
      </trkpt>
      <trkpt lat="43.51059" lon="6.38003">
        <ele>245</ele>
        <time>2026-05-27T07:21:39Z</time>
      </trkpt>
      <trkpt lat="43.51069" lon="6.38004">
        <ele>244</ele>
        <time>2026-05-27T07:21:47Z</time>
      </trkpt>
      <trkpt lat="43.51073" lon="6.38006">
        <ele>243</ele>
        <time>2026-05-27T07:21:51Z</time>
      </trkpt>
      <trkpt lat="43.51084" lon="6.38013">
        <ele>240</ele>
        <time>2026-05-27T07:22:03Z</time>
      </trkpt>
      <trkpt lat="43.51086" lon="6.38013">
        <ele>239</ele>
        <time>2026-05-27T07:22:05Z</time>
      </trkpt>
      <trkpt lat="43.51088" lon="6.38013">
        <ele>239</ele>
        <time>2026-05-27T07:22:07Z</time>
      </trkpt>
      <trkpt lat="43.51097" lon="6.38015">
        <ele>237</ele>
        <time>2026-05-27T07:22:19Z</time>
      </trkpt>
      <trkpt lat="43.51106" lon="6.38015">
        <ele>235</ele>
        <time>2026-05-27T07:22:27Z</time>
      </trkpt>
      <trkpt lat="43.51121" lon="6.38007">
        <ele>232</ele>
        <time>2026-05-27T07:22:39Z</time>
      </trkpt>
      <trkpt lat="43.51135" lon="6.37996">
        <ele>230</ele>
        <time>2026-05-27T07:22:53Z</time>
      </trkpt>
      <trkpt lat="43.51137" lon="6.37993">
        <ele>229</ele>
        <time>2026-05-27T07:22:55Z</time>
      </trkpt>
      <trkpt lat="43.51139" lon="6.37992">
        <ele>229</ele>
        <time>2026-05-27T07:22:57Z</time>
      </trkpt>
      <trkpt lat="43.51153" lon="6.37975">
        <ele>227</ele>
        <time>2026-05-27T07:23:11Z</time>
      </trkpt>
      <trkpt lat="43.51156" lon="6.37973">
        <ele>226</ele>
        <time>2026-05-27T07:23:13Z</time>
      </trkpt>
      <trkpt lat="43.51158" lon="6.37971">
        <ele>226</ele>
        <time>2026-05-27T07:23:15Z</time>
      </trkpt>
      <trkpt lat="43.5116" lon="6.37968">
        <ele>225</ele>
        <time>2026-05-27T07:23:17Z</time>
      </trkpt>
      <trkpt lat="43.51162" lon="6.37966">
        <ele>225</ele>
        <time>2026-05-27T07:23:19Z</time>
      </trkpt>
      <trkpt lat="43.51165" lon="6.37963">
        <ele>224</ele>
        <time>2026-05-27T07:23:23Z</time>
      </trkpt>
      <trkpt lat="43.51167" lon="6.3796">
        <ele>223</ele>
        <time>2026-05-27T07:23:25Z</time>
      </trkpt>
      <trkpt lat="43.51173" lon="6.37948">
        <ele>221</ele>
        <time>2026-05-27T07:23:33Z</time>
      </trkpt>
      <trkpt lat="43.51173" lon="6.37939">
        <ele>219</ele>
        <time>2026-05-27T07:23:39Z</time>
      </trkpt>
      <trkpt lat="43.51173" lon="6.37936">
        <ele>218</ele>
        <time>2026-05-27T07:23:43Z</time>
      </trkpt>
      <trkpt lat="43.51173" lon="6.37931">
        <ele>218</ele>
        <time>2026-05-27T07:23:47Z</time>
      </trkpt>
      <trkpt lat="43.51173" lon="6.37928">
        <ele>218</ele>
        <time>2026-05-27T07:23:49Z</time>
      </trkpt>
      <trkpt lat="43.51175" lon="6.37911">
        <ele>219</ele>
        <time>2026-05-27T07:24:01Z</time>
      </trkpt>
      <trkpt lat="43.51176" lon="6.37908">
        <ele>219</ele>
        <time>2026-05-27T07:24:03Z</time>
      </trkpt>
      <trkpt lat="43.51181" lon="6.37902">
        <ele>220</ele>
        <time>2026-05-27T07:24:11Z</time>
      </trkpt>
      <trkpt lat="43.51183" lon="6.37901">
        <ele>220</ele>
        <time>2026-05-27T07:24:15Z</time>
      </trkpt>
      <trkpt lat="43.51189" lon="6.37905">
        <ele>221</ele>
        <time>2026-05-27T07:24:21Z</time>
      </trkpt>
      <trkpt lat="43.51193" lon="6.37916">
        <ele>222</ele>
        <time>2026-05-27T07:24:29Z</time>
      </trkpt>
      <trkpt lat="43.51195" lon="6.37918">
        <ele>222</ele>
        <time>2026-05-27T07:24:31Z</time>
      </trkpt>
      <trkpt lat="43.51198" lon="6.37926">
        <ele>222</ele>
        <time>2026-05-27T07:24:37Z</time>
      </trkpt>
      <trkpt lat="43.51204" lon="6.37931">
        <ele>222</ele>
        <time>2026-05-27T07:24:51Z</time>
      </trkpt>
      <trkpt lat="43.51208" lon="6.3793">
        <ele>223</ele>
        <time>2026-05-27T07:25:05Z</time>
      </trkpt>
      <trkpt lat="43.51211" lon="6.37928">
        <ele>223</ele>
        <time>2026-05-27T07:25:09Z</time>
      </trkpt>
      <trkpt lat="43.51214" lon="6.37921">
        <ele>225</ele>
        <time>2026-05-27T07:25:33Z</time>
      </trkpt>
      <trkpt lat="43.51214" lon="6.37917">
        <ele>225</ele>
        <time>2026-05-27T07:25:37Z</time>
      </trkpt>
      <trkpt lat="43.51224" lon="6.37901">
        <ele>225</ele>
        <time>2026-05-27T07:25:55Z</time>
      </trkpt>
      <trkpt lat="43.51225" lon="6.379">
        <ele>225</ele>
        <time>2026-05-27T07:25:57Z</time>
      </trkpt>
      <trkpt lat="43.51236" lon="6.37889">
        <ele>225</ele>
        <time>2026-05-27T07:26:09Z</time>
      </trkpt>
      <trkpt lat="43.51238" lon="6.37888">
        <ele>225</ele>
        <time>2026-05-27T07:26:11Z</time>
      </trkpt>
      <trkpt lat="43.5124" lon="6.37884">
        <ele>225</ele>
        <time>2026-05-27T07:26:17Z</time>
      </trkpt>
      <trkpt lat="43.51242" lon="6.37882">
        <ele>224</ele>
        <time>2026-05-27T07:26:19Z</time>
      </trkpt>
      <trkpt lat="43.51247" lon="6.37879">
        <ele>224</ele>
        <time>2026-05-27T07:26:23Z</time>
      </trkpt>
      <trkpt lat="43.51256" lon="6.37875">
        <ele>222</ele>
        <time>2026-05-27T07:26:31Z</time>
      </trkpt>
      <trkpt lat="43.51274" lon="6.37868">
        <ele>222</ele>
        <time>2026-05-27T07:26:45Z</time>
      </trkpt>
      <trkpt lat="43.513" lon="6.37853">
        <ele>221</ele>
        <time>2026-05-27T07:27:05Z</time>
      </trkpt>
      <trkpt lat="43.51304" lon="6.37851">
        <ele>221</ele>
        <time>2026-05-27T07:27:07Z</time>
      </trkpt>
      <trkpt lat="43.51307" lon="6.37849">
        <ele>221</ele>
        <time>2026-05-27T07:27:09Z</time>
      </trkpt>
      <trkpt lat="43.51308" lon="6.37848">
        <ele>220</ele>
        <time>2026-05-27T07:27:11Z</time>
      </trkpt>
      <trkpt lat="43.51312" lon="6.37846">
        <ele>220</ele>
        <time>2026-05-27T07:27:15Z</time>
      </trkpt>
      <trkpt lat="43.51319" lon="6.37845">
        <ele>220</ele>
        <time>2026-05-27T07:27:23Z</time>
      </trkpt>
      <trkpt lat="43.51331" lon="6.37835">
        <ele>220</ele>
        <time>2026-05-27T07:27:35Z</time>
      </trkpt>
      <trkpt lat="43.51333" lon="6.37834">
        <ele>220</ele>
        <time>2026-05-27T07:27:37Z</time>
      </trkpt>
      <trkpt lat="43.51337" lon="6.37833">
        <ele>220</ele>
        <time>2026-05-27T07:27:41Z</time>
      </trkpt>
      <trkpt lat="43.51339" lon="6.37832">
        <ele>220</ele>
        <time>2026-05-27T07:27:43Z</time>
      </trkpt>
      <trkpt lat="43.51343" lon="6.3783">
        <ele>220</ele>
        <time>2026-05-27T07:27:47Z</time>
      </trkpt>
      <trkpt lat="43.51346" lon="6.37829">
        <ele>220</ele>
        <time>2026-05-27T07:27:49Z</time>
      </trkpt>
      <trkpt lat="43.51355" lon="6.37826">
        <ele>219</ele>
        <time>2026-05-27T07:27:55Z</time>
      </trkpt>
      <trkpt lat="43.51358" lon="6.37825">
        <ele>219</ele>
        <time>2026-05-27T07:27:57Z</time>
      </trkpt>
      <trkpt lat="43.51361" lon="6.37824">
        <ele>219</ele>
        <time>2026-05-27T07:27:59Z</time>
      </trkpt>
      <trkpt lat="43.51367" lon="6.37825">
        <ele>218</ele>
        <time>2026-05-27T07:28:03Z</time>
      </trkpt>
      <trkpt lat="43.51372" lon="6.37825">
        <ele>218</ele>
        <time>2026-05-27T07:28:07Z</time>
      </trkpt>
      <trkpt lat="43.51375" lon="6.37825">
        <ele>218</ele>
        <time>2026-05-27T07:28:09Z</time>
      </trkpt>
      <trkpt lat="43.51381" lon="6.37825">
        <ele>218</ele>
        <time>2026-05-27T07:28:15Z</time>
      </trkpt>
      <trkpt lat="43.51386" lon="6.37825">
        <ele>218</ele>
        <time>2026-05-27T07:28:21Z</time>
      </trkpt>
      <trkpt lat="43.51388" lon="6.37825">
        <ele>219</ele>
        <time>2026-05-27T07:28:23Z</time>
      </trkpt>
      <trkpt lat="43.5139" lon="6.37824">
        <ele>219</ele>
        <time>2026-05-27T07:28:25Z</time>
      </trkpt>
      <trkpt lat="43.51402" lon="6.37821">
        <ele>219</ele>
        <time>2026-05-27T07:28:37Z</time>
      </trkpt>
      <trkpt lat="43.51406" lon="6.37819">
        <ele>219</ele>
        <time>2026-05-27T07:28:41Z</time>
      </trkpt>
      <trkpt lat="43.51411" lon="6.37818">
        <ele>218</ele>
        <time>2026-05-27T07:28:45Z</time>
      </trkpt>
      <trkpt lat="43.51417" lon="6.3782">
        <ele>217</ele>
        <time>2026-05-27T07:28:51Z</time>
      </trkpt>
      <trkpt lat="43.51422" lon="6.3782">
        <ele>217</ele>
        <time>2026-05-27T07:28:55Z</time>
      </trkpt>
      <trkpt lat="43.51424" lon="6.37821">
        <ele>216</ele>
        <time>2026-05-27T07:28:57Z</time>
      </trkpt>
      <trkpt lat="43.51427" lon="6.37822">
        <ele>216</ele>
        <time>2026-05-27T07:29:01Z</time>
      </trkpt>
      <trkpt lat="43.51433" lon="6.37825">
        <ele>215</ele>
        <time>2026-05-27T07:29:07Z</time>
      </trkpt>
      <trkpt lat="43.51435" lon="6.37829">
        <ele>215</ele>
        <time>2026-05-27T07:29:11Z</time>
      </trkpt>
      <trkpt lat="43.51439" lon="6.37831">
        <ele>214</ele>
        <time>2026-05-27T07:29:15Z</time>
      </trkpt>
      <trkpt lat="43.51443" lon="6.37831">
        <ele>214</ele>
        <time>2026-05-27T07:29:17Z</time>
      </trkpt>
      <trkpt lat="43.51449" lon="6.37831">
        <ele>214</ele>
        <time>2026-05-27T07:29:21Z</time>
      </trkpt>
      <trkpt lat="43.51454" lon="6.37831">
        <ele>214</ele>
        <time>2026-05-27T07:29:25Z</time>
      </trkpt>
      <trkpt lat="43.51458" lon="6.3783">
        <ele>213</ele>
        <time>2026-05-27T07:29:27Z</time>
      </trkpt>
      <trkpt lat="43.51462" lon="6.37829">
        <ele>213</ele>
        <time>2026-05-27T07:29:29Z</time>
      </trkpt>
      <trkpt lat="43.51464" lon="6.37828">
        <ele>213</ele>
        <time>2026-05-27T07:29:31Z</time>
      </trkpt>
      <trkpt lat="43.51467" lon="6.37826">
        <ele>213</ele>
        <time>2026-05-27T07:29:33Z</time>
      </trkpt>
      <trkpt lat="43.51471" lon="6.37822">
        <ele>211</ele>
        <time>2026-05-27T07:29:39Z</time>
      </trkpt>
      <trkpt lat="43.51474" lon="6.37822">
        <ele>209</ele>
        <time>2026-05-27T07:29:43Z</time>
      </trkpt>
      <trkpt lat="43.51476" lon="6.37816">
        <ele>207</ele>
        <time>2026-05-27T07:29:50Z</time>
      </trkpt>
      <trkpt lat="43.51476" lon="6.37812">
        <ele>206</ele>
        <time>2026-05-27T07:29:52Z</time>
      </trkpt>
      <trkpt lat="43.51478" lon="6.37813">
        <ele>205</ele>
        <time>2026-05-27T07:29:58Z</time>
      </trkpt>
      <trkpt lat="43.51482" lon="6.37811">
        <ele>204</ele>
        <time>2026-05-27T07:30:02Z</time>
      </trkpt>
      <trkpt lat="43.51485" lon="6.37809">
        <ele>203</ele>
        <time>2026-05-27T07:30:06Z</time>
      </trkpt>
      <trkpt lat="43.51484" lon="6.37807">
        <ele>205</ele>
        <time>2026-05-27T07:30:18Z</time>
      </trkpt>
      <trkpt lat="43.51484" lon="6.37809">
        <ele>208</ele>
        <time>2026-05-27T07:30:30Z</time>
      </trkpt>
      <trkpt lat="43.51482" lon="6.37808">
        <ele>209</ele>
        <time>2026-05-27T07:30:32Z</time>
      </trkpt>
      <trkpt lat="43.5148" lon="6.37809">
        <ele>211</ele>
        <time>2026-05-27T07:30:36Z</time>
      </trkpt>
      <trkpt lat="43.51479" lon="6.37812">
        <ele>212</ele>
        <time>2026-05-27T07:30:42Z</time>
      </trkpt>
      <trkpt lat="43.5148" lon="6.37817">
        <ele>212</ele>
        <time>2026-05-27T07:31:08Z</time>
      </trkpt>
      <trkpt lat="43.51482" lon="6.37821">
        <ele>212</ele>
        <time>2026-05-27T07:31:12Z</time>
      </trkpt>
      <trkpt lat="43.51485" lon="6.37826">
        <ele>212</ele>
        <time>2026-05-27T07:31:16Z</time>
      </trkpt>
      <trkpt lat="43.51486" lon="6.37829">
        <ele>211</ele>
        <time>2026-05-27T07:31:18Z</time>
      </trkpt>
      <trkpt lat="43.51489" lon="6.37831">
        <ele>211</ele>
        <time>2026-05-27T07:31:22Z</time>
      </trkpt>
      <trkpt lat="43.51496" lon="6.37842">
        <ele>211</ele>
        <time>2026-05-27T07:31:36Z</time>
      </trkpt>
      <trkpt lat="43.51499" lon="6.37849">
        <ele>211</ele>
        <time>2026-05-27T07:31:42Z</time>
      </trkpt>
      <trkpt lat="43.515" lon="6.37852">
        <ele>211</ele>
        <time>2026-05-27T07:31:44Z</time>
      </trkpt>
      <trkpt lat="43.51503" lon="6.37857">
        <ele>210</ele>
        <time>2026-05-27T07:31:52Z</time>
      </trkpt>
      <trkpt lat="43.51503" lon="6.37863">
        <ele>210</ele>
        <time>2026-05-27T07:31:56Z</time>
      </trkpt>
      <trkpt lat="43.51504" lon="6.37865">
        <ele>210</ele>
        <time>2026-05-27T07:31:58Z</time>
      </trkpt>
      <trkpt lat="43.51504" lon="6.37869">
        <ele>210</ele>
        <time>2026-05-27T07:32:02Z</time>
      </trkpt>
      <trkpt lat="43.51506" lon="6.37872">
        <ele>211</ele>
        <time>2026-05-27T07:32:20Z</time>
      </trkpt>
      <trkpt lat="43.51504" lon="6.37872">
        <ele>211</ele>
        <time>2026-05-27T07:32:32Z</time>
      </trkpt>
      <trkpt lat="43.51509" lon="6.3787">
        <ele>213</ele>
        <time>2026-05-27T07:32:42Z</time>
      </trkpt>
      <trkpt lat="43.51511" lon="6.37873">
        <ele>218</ele>
        <time>2026-05-27T07:32:50Z</time>
      </trkpt>
      <trkpt lat="43.51513" lon="6.3787">
        <ele>220</ele>
        <time>2026-05-27T07:32:54Z</time>
      </trkpt>
      <trkpt lat="43.51515" lon="6.37867">
        <ele>222</ele>
        <time>2026-05-27T07:32:58Z</time>
      </trkpt>
      <trkpt lat="43.51514" lon="6.37878">
        <ele>224</ele>
        <time>2026-05-27T07:33:08Z</time>
      </trkpt>
      <trkpt lat="43.51502" lon="6.37885">
        <ele>232</ele>
        <time>2026-05-27T07:33:18Z</time>
      </trkpt>
      <trkpt lat="43.51508" lon="6.37861">
        <ele>244</ele>
        <time>2026-05-27T07:33:36Z</time>
      </trkpt>
      <trkpt lat="43.51509" lon="6.37853">
        <ele>246</ele>
        <time>2026-05-27T07:33:38Z</time>
      </trkpt>
      <trkpt lat="43.51511" lon="6.37851">
        <ele>247</ele>
        <time>2026-05-27T07:33:40Z</time>
      </trkpt>
      <trkpt lat="43.51516" lon="6.37852">
        <ele>250</ele>
        <time>2026-05-27T07:33:46Z</time>
      </trkpt>
      <trkpt lat="43.51519" lon="6.37843">
        <ele>252</ele>
        <time>2026-05-27T07:33:54Z</time>
      </trkpt>
      <trkpt lat="43.51521" lon="6.37839">
        <ele>252</ele>
        <time>2026-05-27T07:33:58Z</time>
      </trkpt>
      <trkpt lat="43.51523" lon="6.37842">
        <ele>253</ele>
        <time>2026-05-27T07:34:16Z</time>
      </trkpt>
      <trkpt lat="43.51517" lon="6.37845">
        <ele>254</ele>
        <time>2026-05-27T07:34:24Z</time>
      </trkpt>
      <trkpt lat="43.51515" lon="6.37847">
        <ele>254</ele>
        <time>2026-05-27T07:34:26Z</time>
      </trkpt>
      <trkpt lat="43.51511" lon="6.37847">
        <ele>254</ele>
        <time>2026-05-27T07:34:40Z</time>
      </trkpt>
      <trkpt lat="43.51509" lon="6.37848">
        <ele>254</ele>
        <time>2026-05-27T07:34:44Z</time>
      </trkpt>
      <trkpt lat="43.51505" lon="6.37848">
        <ele>255</ele>
        <time>2026-05-27T07:35:00Z</time>
      </trkpt>
      <trkpt lat="43.51507" lon="6.37853">
        <ele>255</ele>
        <time>2026-05-27T07:35:08Z</time>
      </trkpt>
      <trkpt lat="43.51503" lon="6.37857">
        <ele>255</ele>
        <time>2026-05-27T07:35:12Z</time>
      </trkpt>
      <trkpt lat="43.515" lon="6.3787">
        <ele>256</ele>
        <time>2026-05-27T07:35:16Z</time>
      </trkpt>
      <trkpt lat="43.51505" lon="6.37887">
        <ele>257</ele>
        <time>2026-05-27T07:35:20Z</time>
      </trkpt>
      <trkpt lat="43.51492" lon="6.3794">
        <ele>260</ele>
        <time>2026-05-27T07:35:36Z</time>
      </trkpt>
      <trkpt lat="43.51423" lon="6.37897">
        <ele>261</ele>
        <time>2026-05-27T07:35:44Z</time>
      </trkpt>
      <trkpt lat="43.51421" lon="6.37901">
        <ele>262</ele>
        <time>2026-05-27T07:35:46Z</time>
      </trkpt>
      <trkpt lat="43.51418" lon="6.37915">
        <ele>263</ele>
        <time>2026-05-27T07:35:50Z</time>
      </trkpt>
      <trkpt lat="43.51424" lon="6.37915">
        <ele>263</ele>
        <time>2026-05-27T07:35:52Z</time>
      </trkpt>
      <trkpt lat="43.51426" lon="6.37919">
        <ele>261</ele>
        <time>2026-05-27T07:35:58Z</time>
      </trkpt>
      <trkpt lat="43.51429" lon="6.37922">
        <ele>259</ele>
        <time>2026-05-27T07:36:02Z</time>
      </trkpt>
      <trkpt lat="43.51434" lon="6.37921">
        <ele>256</ele>
        <time>2026-05-27T07:36:08Z</time>
      </trkpt>
      <trkpt lat="43.51439" lon="6.3792">
        <ele>251</ele>
        <time>2026-05-27T07:36:14Z</time>
      </trkpt>
      <trkpt lat="43.51446" lon="6.37909">
        <ele>244</ele>
        <time>2026-05-27T07:36:46Z</time>
      </trkpt>
      <trkpt lat="43.51446" lon="6.37906">
        <ele>242</ele>
        <time>2026-05-27T07:37:18Z</time>
      </trkpt>
      <trkpt lat="43.51449" lon="6.37916">
        <ele>239</ele>
        <time>2026-05-27T07:37:48Z</time>
      </trkpt>
      <trkpt lat="43.51442" lon="6.37918">
        <ele>236</ele>
        <time>2026-05-27T07:38:00Z</time>
      </trkpt>
      <trkpt lat="43.51438" lon="6.37916">
        <ele>234</ele>
        <time>2026-05-27T07:38:12Z</time>
      </trkpt>
      <trkpt lat="43.51435" lon="6.37914">
        <ele>234</ele>
        <time>2026-05-27T07:38:16Z</time>
      </trkpt>
      <trkpt lat="43.51439" lon="6.37901">
        <ele>231</ele>
        <time>2026-05-27T07:38:28Z</time>
      </trkpt>
      <trkpt lat="43.51438" lon="6.37898">
        <ele>230</ele>
        <time>2026-05-27T07:38:32Z</time>
      </trkpt>
      <trkpt lat="43.51436" lon="6.37895">
        <ele>228</ele>
        <time>2026-05-27T07:38:38Z</time>
      </trkpt>
      <trkpt lat="43.51428" lon="6.37891">
        <ele>225</ele>
        <time>2026-05-27T07:38:48Z</time>
      </trkpt>
      <trkpt lat="43.51423" lon="6.379">
        <ele>222</ele>
        <time>2026-05-27T07:39:00Z</time>
      </trkpt>
      <trkpt lat="43.51421" lon="6.37901">
        <ele>222</ele>
        <time>2026-05-27T07:39:02Z</time>
      </trkpt>
      <trkpt lat="43.51419" lon="6.37902">
        <ele>221</ele>
        <time>2026-05-27T07:39:10Z</time>
      </trkpt>
      <trkpt lat="43.51422" lon="6.37911">
        <ele>219</ele>
        <time>2026-05-27T07:39:36Z</time>
      </trkpt>
      <trkpt lat="43.51423" lon="6.37913">
        <ele>218</ele>
        <time>2026-05-27T07:39:40Z</time>
      </trkpt>
      <trkpt lat="43.51427" lon="6.37907">
        <ele>218</ele>
        <time>2026-05-27T07:40:14Z</time>
      </trkpt>
      <trkpt lat="43.51425" lon="6.37904">
        <ele>219</ele>
        <time>2026-05-27T07:40:18Z</time>
      </trkpt>
      <trkpt lat="43.51424" lon="6.37902">
        <ele>219</ele>
        <time>2026-05-27T07:40:24Z</time>
      </trkpt>
      <trkpt lat="43.51426" lon="6.37902">
        <ele>219</ele>
        <time>2026-05-27T07:40:40Z</time>
      </trkpt>
      <trkpt lat="43.51421" lon="6.37902">
        <ele>219</ele>
        <time>2026-05-27T07:40:48Z</time>
      </trkpt>
      <trkpt lat="43.51419" lon="6.37904">
        <ele>219</ele>
        <time>2026-05-27T07:40:50Z</time>
      </trkpt>
      <trkpt lat="43.51417" lon="6.37902">
        <ele>219</ele>
        <time>2026-05-27T07:40:56Z</time>
      </trkpt>
      <trkpt lat="43.51411" lon="6.37905">
        <ele>217</ele>
        <time>2026-05-27T07:41:06Z</time>
      </trkpt>
      <trkpt lat="43.51403" lon="6.379">
        <ele>216</ele>
        <time>2026-05-27T07:41:16Z</time>
      </trkpt>
      <trkpt lat="43.514" lon="6.37884">
        <ele>218</ele>
        <time>2026-05-27T07:41:48Z</time>
      </trkpt>
      <trkpt lat="43.51401" lon="6.3788">
        <ele>219</ele>
        <time>2026-05-27T07:41:52Z</time>
      </trkpt>
      <trkpt lat="43.51405" lon="6.3788">
        <ele>221</ele>
        <time>2026-05-27T07:42:06Z</time>
      </trkpt>
      <trkpt lat="43.51407" lon="6.37883">
        <ele>223</ele>
        <time>2026-05-27T07:42:10Z</time>
      </trkpt>
      <trkpt lat="43.51406" lon="6.37896">
        <ele>228</ele>
        <time>2026-05-27T07:42:40Z</time>
      </trkpt>
      <trkpt lat="43.51401" lon="6.37897">
        <ele>230</ele>
        <time>2026-05-27T07:42:46Z</time>
      </trkpt>
      <trkpt lat="43.51393" lon="6.37892">
        <ele>230</ele>
        <time>2026-05-27T07:43:14Z</time>
      </trkpt>
      <trkpt lat="43.51392" lon="6.3789">
        <ele>229</ele>
        <time>2026-05-27T07:43:18Z</time>
      </trkpt>
      <trkpt lat="43.51393" lon="6.37872">
        <ele>224</ele>
        <time>2026-05-27T07:43:36Z</time>
      </trkpt>
      <trkpt lat="43.51395" lon="6.37869">
        <ele>224</ele>
        <time>2026-05-27T07:43:38Z</time>
      </trkpt>
      <trkpt lat="43.51396" lon="6.37862">
        <ele>223</ele>
        <time>2026-05-27T07:43:46Z</time>
      </trkpt>
      <trkpt lat="43.51398" lon="6.37861">
        <ele>222</ele>
        <time>2026-05-27T07:43:52Z</time>
      </trkpt>
      <trkpt lat="43.51402" lon="6.37858">
        <ele>222</ele>
        <time>2026-05-27T07:43:56Z</time>
      </trkpt>
      <trkpt lat="43.51402" lon="6.37856">
        <ele>222</ele>
        <time>2026-05-27T07:44:04Z</time>
      </trkpt>
      <trkpt lat="43.51388" lon="6.37852">
        <ele>221</ele>
        <time>2026-05-27T07:44:22Z</time>
      </trkpt>
      <trkpt lat="43.51384" lon="6.37852">
        <ele>221</ele>
        <time>2026-05-27T07:44:28Z</time>
      </trkpt>
      <trkpt lat="43.51372" lon="6.37847">
        <ele>221</ele>
        <time>2026-05-27T07:44:48Z</time>
      </trkpt>
      <trkpt lat="43.51371" lon="6.37844">
        <ele>221</ele>
        <time>2026-05-27T07:44:50Z</time>
      </trkpt>
      <trkpt lat="43.51361" lon="6.37846">
        <ele>221</ele>
        <time>2026-05-27T07:44:58Z</time>
      </trkpt>
      <trkpt lat="43.51357" lon="6.37849">
        <ele>222</ele>
        <time>2026-05-27T07:45:02Z</time>
      </trkpt>
      <trkpt lat="43.51355" lon="6.37848">
        <ele>222</ele>
        <time>2026-05-27T07:45:08Z</time>
      </trkpt>
      <trkpt lat="43.51353" lon="6.37849">
        <ele>221</ele>
        <time>2026-05-27T07:45:10Z</time>
      </trkpt>
      <trkpt lat="43.51351" lon="6.3785">
        <ele>221</ele>
        <time>2026-05-27T07:45:12Z</time>
      </trkpt>
      <trkpt lat="43.51348" lon="6.37854">
        <ele>222</ele>
        <time>2026-05-27T07:45:16Z</time>
      </trkpt>
      <trkpt lat="43.51345" lon="6.37857">
        <ele>223</ele>
        <time>2026-05-27T07:45:20Z</time>
      </trkpt>
      <trkpt lat="43.5134" lon="6.3786">
        <ele>223</ele>
        <time>2026-05-27T07:45:22Z</time>
      </trkpt>
      <trkpt lat="43.51336" lon="6.37861">
        <ele>223</ele>
        <time>2026-05-27T07:45:24Z</time>
      </trkpt>
      <trkpt lat="43.51331" lon="6.37867">
        <ele>224</ele>
        <time>2026-05-27T07:45:28Z</time>
      </trkpt>
      <trkpt lat="43.51329" lon="6.37868">
        <ele>225</ele>
        <time>2026-05-27T07:45:30Z</time>
      </trkpt>
      <trkpt lat="43.51326" lon="6.37867">
        <ele>225</ele>
        <time>2026-05-27T07:45:34Z</time>
      </trkpt>
      <trkpt lat="43.51323" lon="6.37867">
        <ele>225</ele>
        <time>2026-05-27T07:45:36Z</time>
      </trkpt>
      <trkpt lat="43.51321" lon="6.37868">
        <ele>226</ele>
        <time>2026-05-27T07:45:40Z</time>
      </trkpt>
      <trkpt lat="43.51321" lon="6.37871">
        <ele>226</ele>
        <time>2026-05-27T07:45:46Z</time>
      </trkpt>
      <trkpt lat="43.51319" lon="6.37871">
        <ele>226</ele>
        <time>2026-05-27T07:45:56Z</time>
      </trkpt>
      <trkpt lat="43.51312" lon="6.37868">
        <ele>225</ele>
        <time>2026-05-27T07:46:04Z</time>
      </trkpt>
      <trkpt lat="43.5131" lon="6.37868">
        <ele>225</ele>
        <time>2026-05-27T07:46:06Z</time>
      </trkpt>
      <trkpt lat="43.51306" lon="6.37869">
        <ele>225</ele>
        <time>2026-05-27T07:46:10Z</time>
      </trkpt>
      <trkpt lat="43.51303" lon="6.3787">
        <ele>225</ele>
        <time>2026-05-27T07:46:14Z</time>
      </trkpt>
      <trkpt lat="43.51299" lon="6.37868">
        <ele>225</ele>
        <time>2026-05-27T07:46:18Z</time>
      </trkpt>
      <trkpt lat="43.51297" lon="6.3787">
        <ele>225</ele>
        <time>2026-05-27T07:46:22Z</time>
      </trkpt>
      <trkpt lat="43.51295" lon="6.37868">
        <ele>224</ele>
        <time>2026-05-27T07:46:26Z</time>
      </trkpt>
      <trkpt lat="43.51294" lon="6.37866">
        <ele>224</ele>
        <time>2026-05-27T07:46:28Z</time>
      </trkpt>
      <trkpt lat="43.51295" lon="6.37863">
        <ele>224</ele>
        <time>2026-05-27T07:46:30Z</time>
      </trkpt>
      <trkpt lat="43.51296" lon="6.37861">
        <ele>224</ele>
        <time>2026-05-27T07:46:32Z</time>
      </trkpt>
      <trkpt lat="43.51298" lon="6.37862">
        <ele>224</ele>
        <time>2026-05-27T07:46:36Z</time>
      </trkpt>
      <trkpt lat="43.513" lon="6.37864">
        <ele>224</ele>
        <time>2026-05-27T07:46:44Z</time>
      </trkpt>
      <trkpt lat="43.51299" lon="6.37867">
        <ele>224</ele>
        <time>2026-05-27T07:46:48Z</time>
      </trkpt>
      <trkpt lat="43.51301" lon="6.37869">
        <ele>224</ele>
        <time>2026-05-27T07:47:04Z</time>
      </trkpt>
      <trkpt lat="43.51303" lon="6.37869">
        <ele>224</ele>
        <time>2026-05-27T07:47:06Z</time>
      </trkpt>
      <trkpt lat="43.51306" lon="6.37869">
        <ele>224</ele>
        <time>2026-05-27T07:47:10Z</time>
      </trkpt>
      <trkpt lat="43.51303" lon="6.37861">
        <ele>224</ele>
        <time>2026-05-27T07:47:38Z</time>
      </trkpt>
      <trkpt lat="43.51305" lon="6.37857">
        <ele>223</ele>
        <time>2026-05-27T07:47:42Z</time>
      </trkpt>
      <trkpt lat="43.5131" lon="6.37852">
        <ele>222</ele>
        <time>2026-05-27T07:47:46Z</time>
      </trkpt>
      <trkpt lat="43.51313" lon="6.37849">
        <ele>222</ele>
        <time>2026-05-27T07:47:48Z</time>
      </trkpt>
      <trkpt lat="43.51323" lon="6.37846">
        <ele>222</ele>
        <time>2026-05-27T07:47:56Z</time>
      </trkpt>
      <trkpt lat="43.51325" lon="6.37844">
        <ele>222</ele>
        <time>2026-05-27T07:47:58Z</time>
      </trkpt>
      <trkpt lat="43.51328" lon="6.37845">
        <ele>223</ele>
        <time>2026-05-27T07:48:00Z</time>
      </trkpt>
      <trkpt lat="43.51331" lon="6.37844">
        <ele>224</ele>
        <time>2026-05-27T07:48:02Z</time>
      </trkpt>
      <trkpt lat="43.51333" lon="6.37843">
        <ele>225</ele>
        <time>2026-05-27T07:48:04Z</time>
      </trkpt>
      <trkpt lat="43.51338" lon="6.37842">
        <ele>227</ele>
        <time>2026-05-27T07:48:10Z</time>
      </trkpt>
      <trkpt lat="43.5134" lon="6.3784">
        <ele>227</ele>
        <time>2026-05-27T07:48:14Z</time>
      </trkpt>
      <trkpt lat="43.51347" lon="6.37837">
        <ele>227</ele>
        <time>2026-05-27T07:48:22Z</time>
      </trkpt>
      <trkpt lat="43.5135" lon="6.37836">
        <ele>227</ele>
        <time>2026-05-27T07:48:26Z</time>
      </trkpt>
      <trkpt lat="43.51352" lon="6.37836">
        <ele>227</ele>
        <time>2026-05-27T07:48:28Z</time>
      </trkpt>
      <trkpt lat="43.51356" lon="6.37834">
        <ele>226</ele>
        <time>2026-05-27T07:48:32Z</time>
      </trkpt>
      <trkpt lat="43.51358" lon="6.37833">
        <ele>226</ele>
        <time>2026-05-27T07:48:34Z</time>
      </trkpt>
      <trkpt lat="43.51361" lon="6.37832">
        <ele>225</ele>
        <time>2026-05-27T07:48:38Z</time>
      </trkpt>
      <trkpt lat="43.51373" lon="6.3783">
        <ele>222</ele>
        <time>2026-05-27T07:48:52Z</time>
      </trkpt>
      <trkpt lat="43.51378" lon="6.37827">
        <ele>221</ele>
        <time>2026-05-27T07:48:58Z</time>
      </trkpt>
      <trkpt lat="43.51383" lon="6.37827">
        <ele>221</ele>
        <time>2026-05-27T07:49:02Z</time>
      </trkpt>
      <trkpt lat="43.51388" lon="6.37827">
        <ele>221</ele>
        <time>2026-05-27T07:49:06Z</time>
      </trkpt>
      <trkpt lat="43.5139" lon="6.37828">
        <ele>221</ele>
        <time>2026-05-27T07:49:08Z</time>
      </trkpt>
      <trkpt lat="43.51397" lon="6.37828">
        <ele>220</ele>
        <time>2026-05-27T07:49:14Z</time>
      </trkpt>
      <trkpt lat="43.51399" lon="6.37829">
        <ele>220</ele>
        <time>2026-05-27T07:49:16Z</time>
      </trkpt>
      <trkpt lat="43.51401" lon="6.37831">
        <ele>220</ele>
        <time>2026-05-27T07:49:20Z</time>
      </trkpt>
      <trkpt lat="43.51404" lon="6.37831">
        <ele>220</ele>
        <time>2026-05-27T07:49:24Z</time>
      </trkpt>
      <trkpt lat="43.51406" lon="6.37832">
        <ele>219</ele>
        <time>2026-05-27T07:49:26Z</time>
      </trkpt>
      <trkpt lat="43.51408" lon="6.37832">
        <ele>219</ele>
        <time>2026-05-27T07:49:28Z</time>
      </trkpt>
      <trkpt lat="43.51414" lon="6.37833">
        <ele>219</ele>
        <time>2026-05-27T07:49:32Z</time>
      </trkpt>
      <trkpt lat="43.51417" lon="6.37834">
        <ele>219</ele>
        <time>2026-05-27T07:49:34Z</time>
      </trkpt>
      <trkpt lat="43.51428" lon="6.3784">
        <ele>219</ele>
        <time>2026-05-27T07:49:42Z</time>
      </trkpt>
      <trkpt lat="43.51429" lon="6.37841">
        <ele>219</ele>
        <time>2026-05-27T07:49:44Z</time>
      </trkpt>
      <trkpt lat="43.51434" lon="6.37845">
        <ele>218</ele>
        <time>2026-05-27T07:49:48Z</time>
      </trkpt>
      <trkpt lat="43.51437" lon="6.37847">
        <ele>218</ele>
        <time>2026-05-27T07:49:50Z</time>
      </trkpt>
      <trkpt lat="43.51439" lon="6.37848">
        <ele>217</ele>
        <time>2026-05-27T07:49:52Z</time>
      </trkpt>
      <trkpt lat="43.51442" lon="6.3785">
        <ele>215</ele>
        <time>2026-05-27T07:49:56Z</time>
      </trkpt>
      <trkpt lat="43.51445" lon="6.37851">
        <ele>215</ele>
        <time>2026-05-27T07:49:58Z</time>
      </trkpt>
      <trkpt lat="43.51447" lon="6.37853">
        <ele>214</ele>
        <time>2026-05-27T07:50:00Z</time>
      </trkpt>
      <trkpt lat="43.51452" lon="6.37858">
        <ele>214</ele>
        <time>2026-05-27T07:50:04Z</time>
      </trkpt>
      <trkpt lat="43.51455" lon="6.3786">
        <ele>214</ele>
        <time>2026-05-27T07:50:06Z</time>
      </trkpt>
      <trkpt lat="43.5146" lon="6.37864">
        <ele>215</ele>
        <time>2026-05-27T07:50:12Z</time>
      </trkpt>
      <trkpt lat="43.51467" lon="6.3787">
        <ele>216</ele>
        <time>2026-05-27T07:50:20Z</time>
      </trkpt>
      <trkpt lat="43.51479" lon="6.37885">
        <ele>210</ele>
        <time>2026-05-27T07:50:36Z</time>
      </trkpt>
      <trkpt lat="43.5148" lon="6.37888">
        <ele>209</ele>
        <time>2026-05-27T07:50:38Z</time>
      </trkpt>
      <trkpt lat="43.51481" lon="6.3789">
        <ele>209</ele>
        <time>2026-05-27T07:50:40Z</time>
      </trkpt>
      <trkpt lat="43.51489" lon="6.37903">
        <ele>208</ele>
        <time>2026-05-27T07:50:52Z</time>
      </trkpt>
      <trkpt lat="43.51492" lon="6.37911">
        <ele>207</ele>
        <time>2026-05-27T07:50:58Z</time>
      </trkpt>
      <trkpt lat="43.51494" lon="6.37911">
        <ele>207</ele>
        <time>2026-05-27T07:51:02Z</time>
      </trkpt>
      <trkpt lat="43.51497" lon="6.37914">
        <ele>207</ele>
        <time>2026-05-27T07:51:06Z</time>
      </trkpt>
      <trkpt lat="43.51498" lon="6.3792">
        <ele>207</ele>
        <time>2026-05-27T07:51:10Z</time>
      </trkpt>
      <trkpt lat="43.51501" lon="6.37922">
        <ele>207</ele>
        <time>2026-05-27T07:51:14Z</time>
      </trkpt>
      <trkpt lat="43.51503" lon="6.37924">
        <ele>208</ele>
        <time>2026-05-27T07:51:20Z</time>
      </trkpt>
      <trkpt lat="43.51501" lon="6.37937">
        <ele>211</ele>
        <time>2026-05-27T07:51:48Z</time>
      </trkpt>
      <trkpt lat="43.51502" lon="6.37935">
        <ele>211</ele>
        <time>2026-05-27T07:51:50Z</time>
      </trkpt>
      <trkpt lat="43.51511" lon="6.37927">
        <ele>213</ele>
        <time>2026-05-27T07:52:00Z</time>
      </trkpt>
      <trkpt lat="43.51514" lon="6.37925">
        <ele>213</ele>
        <time>2026-05-27T07:52:04Z</time>
      </trkpt>
      <trkpt lat="43.51516" lon="6.37922">
        <ele>213</ele>
        <time>2026-05-27T07:52:06Z</time>
      </trkpt>
      <trkpt lat="43.51516" lon="6.3792">
        <ele>213</ele>
        <time>2026-05-27T07:52:08Z</time>
      </trkpt>
      <trkpt lat="43.51518" lon="6.37918">
        <ele>213</ele>
        <time>2026-05-27T07:52:10Z</time>
      </trkpt>
      <trkpt lat="43.51519" lon="6.37916">
        <ele>213</ele>
        <time>2026-05-27T07:52:12Z</time>
      </trkpt>
      <trkpt lat="43.51526" lon="6.3791">
        <ele>214</ele>
        <time>2026-05-27T07:52:20Z</time>
      </trkpt>
      <trkpt lat="43.5153" lon="6.37905">
        <ele>214</ele>
        <time>2026-05-27T07:52:26Z</time>
      </trkpt>
      <trkpt lat="43.51532" lon="6.37903">
        <ele>214</ele>
        <time>2026-05-27T07:52:28Z</time>
      </trkpt>
      <trkpt lat="43.51538" lon="6.37897">
        <ele>214</ele>
        <time>2026-05-27T07:52:34Z</time>
      </trkpt>
      <trkpt lat="43.51539" lon="6.37893">
        <ele>214</ele>
        <time>2026-05-27T07:52:38Z</time>
      </trkpt>
      <trkpt lat="43.5154" lon="6.37891">
        <ele>214</ele>
        <time>2026-05-27T07:52:40Z</time>
      </trkpt>
      <trkpt lat="43.51544" lon="6.37888">
        <ele>214</ele>
        <time>2026-05-27T07:52:44Z</time>
      </trkpt>
      <trkpt lat="43.51551" lon="6.37882">
        <ele>214</ele>
        <time>2026-05-27T07:52:52Z</time>
      </trkpt>
      <trkpt lat="43.51553" lon="6.3788">
        <ele>214</ele>
        <time>2026-05-27T07:52:54Z</time>
      </trkpt>
      <trkpt lat="43.51555" lon="6.37877">
        <ele>215</ele>
        <time>2026-05-27T07:52:58Z</time>
      </trkpt>
      <trkpt lat="43.51556" lon="6.37875">
        <ele>215</ele>
        <time>2026-05-27T07:53:00Z</time>
      </trkpt>
      <trkpt lat="43.51557" lon="6.37872">
        <ele>215</ele>
        <time>2026-05-27T07:53:02Z</time>
      </trkpt>
      <trkpt lat="43.51561" lon="6.3787">
        <ele>216</ele>
        <time>2026-05-27T07:53:06Z</time>
      </trkpt>
      <trkpt lat="43.51563" lon="6.37871">
        <ele>216</ele>
        <time>2026-05-27T07:53:08Z</time>
      </trkpt>
      <trkpt lat="43.51567" lon="6.37872">
        <ele>217</ele>
        <time>2026-05-27T07:53:12Z</time>
      </trkpt>
      <trkpt lat="43.51573" lon="6.37873">
        <ele>217</ele>
        <time>2026-05-27T07:53:18Z</time>
      </trkpt>
      <trkpt lat="43.51575" lon="6.37872">
        <ele>217</ele>
        <time>2026-05-27T07:53:20Z</time>
      </trkpt>
      <trkpt lat="43.51579" lon="6.37858">
        <ele>218</ele>
        <time>2026-05-27T07:53:32Z</time>
      </trkpt>
      <trkpt lat="43.51578" lon="6.37852">
        <ele>218</ele>
        <time>2026-05-27T07:53:36Z</time>
      </trkpt>
      <trkpt lat="43.51578" lon="6.37849">
        <ele>218</ele>
        <time>2026-05-27T07:53:38Z</time>
      </trkpt>
      <trkpt lat="43.51579" lon="6.37844">
        <ele>219</ele>
        <time>2026-05-27T07:53:42Z</time>
      </trkpt>
      <trkpt lat="43.5158" lon="6.37841">
        <ele>219</ele>
        <time>2026-05-27T07:53:44Z</time>
      </trkpt>
      <trkpt lat="43.51581" lon="6.37837">
        <ele>219</ele>
        <time>2026-05-27T07:53:48Z</time>
      </trkpt>
      <trkpt lat="43.51582" lon="6.37834">
        <ele>219</ele>
        <time>2026-05-27T07:53:50Z</time>
      </trkpt>
      <trkpt lat="43.51582" lon="6.37832">
        <ele>218</ele>
        <time>2026-05-27T07:53:52Z</time>
      </trkpt>
      <trkpt lat="43.51583" lon="6.37829">
        <ele>218</ele>
        <time>2026-05-27T07:53:54Z</time>
      </trkpt>
      <trkpt lat="43.51585" lon="6.37823">
        <ele>217</ele>
        <time>2026-05-27T07:53:58Z</time>
      </trkpt>
      <trkpt lat="43.51585" lon="6.37816">
        <ele>217</ele>
        <time>2026-05-27T07:54:02Z</time>
      </trkpt>
      <trkpt lat="43.51587" lon="6.3781">
        <ele>216</ele>
        <time>2026-05-27T07:54:06Z</time>
      </trkpt>
      <trkpt lat="43.51588" lon="6.37808">
        <ele>216</ele>
        <time>2026-05-27T07:54:08Z</time>
      </trkpt>
      <trkpt lat="43.5159" lon="6.37807">
        <ele>215</ele>
        <time>2026-05-27T07:54:12Z</time>
      </trkpt>
      <trkpt lat="43.51592" lon="6.37804">
        <ele>215</ele>
        <time>2026-05-27T07:54:14Z</time>
      </trkpt>
      <trkpt lat="43.51593" lon="6.37802">
        <ele>214</ele>
        <time>2026-05-27T07:54:16Z</time>
      </trkpt>
      <trkpt lat="43.51594" lon="6.37797">
        <ele>214</ele>
        <time>2026-05-27T07:54:20Z</time>
      </trkpt>
      <trkpt lat="43.51596" lon="6.37793">
        <ele>214</ele>
        <time>2026-05-27T07:54:24Z</time>
      </trkpt>
      <trkpt lat="43.516" lon="6.37786">
        <ele>214</ele>
        <time>2026-05-27T07:54:30Z</time>
      </trkpt>
      <trkpt lat="43.51601" lon="6.37783">
        <ele>214</ele>
        <time>2026-05-27T07:54:32Z</time>
      </trkpt>
      <trkpt lat="43.51602" lon="6.3778">
        <ele>215</ele>
        <time>2026-05-27T07:54:34Z</time>
      </trkpt>
      <trkpt lat="43.51604" lon="6.37775">
        <ele>215</ele>
        <time>2026-05-27T07:54:38Z</time>
      </trkpt>
      <trkpt lat="43.51603" lon="6.37771">
        <ele>215</ele>
        <time>2026-05-27T07:54:40Z</time>
      </trkpt>
      <trkpt lat="43.51603" lon="6.37767">
        <ele>216</ele>
        <time>2026-05-27T07:54:42Z</time>
      </trkpt>
      <trkpt lat="43.51609" lon="6.37758">
        <ele>216</ele>
        <time>2026-05-27T07:54:48Z</time>
      </trkpt>
      <trkpt lat="43.51611" lon="6.3775">
        <ele>216</ele>
        <time>2026-05-27T07:54:54Z</time>
      </trkpt>
      <trkpt lat="43.51613" lon="6.37732">
        <ele>218</ele>
        <time>2026-05-27T07:55:04Z</time>
      </trkpt>
      <trkpt lat="43.51614" lon="6.37724">
        <ele>219</ele>
        <time>2026-05-27T07:55:08Z</time>
      </trkpt>
      <trkpt lat="43.51616" lon="6.37714">
        <ele>219</ele>
        <time>2026-05-27T07:55:14Z</time>
      </trkpt>
      <trkpt lat="43.51615" lon="6.3771">
        <ele>220</ele>
        <time>2026-05-27T07:55:16Z</time>
      </trkpt>
      <trkpt lat="43.51615" lon="6.37706">
        <ele>220</ele>
        <time>2026-05-27T07:55:18Z</time>
      </trkpt>
      <trkpt lat="43.51619" lon="6.37697">
        <ele>221</ele>
        <time>2026-05-27T07:55:26Z</time>
      </trkpt>
      <trkpt lat="43.51619" lon="6.37694">
        <ele>221</ele>
        <time>2026-05-27T07:55:28Z</time>
      </trkpt>
      <trkpt lat="43.51621" lon="6.37688">
        <ele>222</ele>
        <time>2026-05-27T07:55:32Z</time>
      </trkpt>
      <trkpt lat="43.51624" lon="6.37684">
        <ele>223</ele>
        <time>2026-05-27T07:55:36Z</time>
      </trkpt>
      <trkpt lat="43.51626" lon="6.37682">
        <ele>224</ele>
        <time>2026-05-27T07:55:38Z</time>
      </trkpt>
      <trkpt lat="43.51625" lon="6.37679">
        <ele>225</ele>
        <time>2026-05-27T07:55:40Z</time>
      </trkpt>
      <trkpt lat="43.51626" lon="6.37673">
        <ele>225</ele>
        <time>2026-05-27T07:55:44Z</time>
      </trkpt>
      <trkpt lat="43.51627" lon="6.37666">
        <ele>225</ele>
        <time>2026-05-27T07:55:50Z</time>
      </trkpt>
      <trkpt lat="43.51628" lon="6.37663">
        <ele>225</ele>
        <time>2026-05-27T07:55:52Z</time>
      </trkpt>
      <trkpt lat="43.51629" lon="6.37657">
        <ele>225</ele>
        <time>2026-05-27T07:55:56Z</time>
      </trkpt>
      <trkpt lat="43.51629" lon="6.37654">
        <ele>225</ele>
        <time>2026-05-27T07:55:58Z</time>
      </trkpt>
      <trkpt lat="43.5163" lon="6.37646">
        <ele>223</ele>
        <time>2026-05-27T07:56:04Z</time>
      </trkpt>
      <trkpt lat="43.51629" lon="6.37641">
        <ele>222</ele>
        <time>2026-05-27T07:56:08Z</time>
      </trkpt>
      <trkpt lat="43.5163" lon="6.37638">
        <ele>222</ele>
        <time>2026-05-27T07:56:10Z</time>
      </trkpt>
      <trkpt lat="43.51634" lon="6.37631">
        <ele>221</ele>
        <time>2026-05-27T07:56:16Z</time>
      </trkpt>
      <trkpt lat="43.51635" lon="6.37624">
        <ele>220</ele>
        <time>2026-05-27T07:56:20Z</time>
      </trkpt>
      <trkpt lat="43.51636" lon="6.37621">
        <ele>220</ele>
        <time>2026-05-27T07:56:22Z</time>
      </trkpt>
      <trkpt lat="43.51637" lon="6.37618">
        <ele>220</ele>
        <time>2026-05-27T07:56:24Z</time>
      </trkpt>
      <trkpt lat="43.51638" lon="6.37615">
        <ele>220</ele>
        <time>2026-05-27T07:56:26Z</time>
      </trkpt>
      <trkpt lat="43.51639" lon="6.37611">
        <ele>220</ele>
        <time>2026-05-27T07:56:30Z</time>
      </trkpt>
      <trkpt lat="43.51648" lon="6.37598">
        <ele>220</ele>
        <time>2026-05-27T07:56:42Z</time>
      </trkpt>
      <trkpt lat="43.51649" lon="6.37595">
        <ele>220</ele>
        <time>2026-05-27T07:56:44Z</time>
      </trkpt>
      <trkpt lat="43.51655" lon="6.37581">
        <ele>220</ele>
        <time>2026-05-27T07:56:56Z</time>
      </trkpt>
      <trkpt lat="43.51657" lon="6.37578">
        <ele>220</ele>
        <time>2026-05-27T07:56:58Z</time>
      </trkpt>
      <trkpt lat="43.5166" lon="6.37577">
        <ele>220</ele>
        <time>2026-05-27T07:57:00Z</time>
      </trkpt>
      <trkpt lat="43.51662" lon="6.37576">
        <ele>220</ele>
        <time>2026-05-27T07:57:02Z</time>
      </trkpt>
      <trkpt lat="43.51664" lon="6.37575">
        <ele>220</ele>
        <time>2026-05-27T07:57:04Z</time>
      </trkpt>
      <trkpt lat="43.51666" lon="6.37572">
        <ele>219</ele>
        <time>2026-05-27T07:57:08Z</time>
      </trkpt>
      <trkpt lat="43.51669" lon="6.37568">
        <ele>219</ele>
        <time>2026-05-27T07:57:12Z</time>
      </trkpt>
      <trkpt lat="43.51672" lon="6.37564">
        <ele>219</ele>
        <time>2026-05-27T07:57:16Z</time>
      </trkpt>
      <trkpt lat="43.51675" lon="6.37561">
        <ele>219</ele>
        <time>2026-05-27T07:57:20Z</time>
      </trkpt>
      <trkpt lat="43.5168" lon="6.37554">
        <ele>219</ele>
        <time>2026-05-27T07:57:28Z</time>
      </trkpt>
      <trkpt lat="43.51683" lon="6.3755">
        <ele>219</ele>
        <time>2026-05-27T07:57:32Z</time>
      </trkpt>
      <trkpt lat="43.51685" lon="6.37549">
        <ele>219</ele>
        <time>2026-05-27T07:57:34Z</time>
      </trkpt>
      <trkpt lat="43.5169" lon="6.37538">
        <ele>219</ele>
        <time>2026-05-27T07:57:42Z</time>
      </trkpt>
      <trkpt lat="43.51691" lon="6.37535">
        <ele>219</ele>
        <time>2026-05-27T07:57:44Z</time>
      </trkpt>
      <trkpt lat="43.51689" lon="6.37531">
        <ele>219</ele>
        <time>2026-05-27T07:57:46Z</time>
      </trkpt>
      <trkpt lat="43.51689" lon="6.37528">
        <ele>220</ele>
        <time>2026-05-27T07:57:48Z</time>
      </trkpt>
      <trkpt lat="43.51691" lon="6.37524">
        <ele>221</ele>
        <time>2026-05-27T07:57:52Z</time>
      </trkpt>
      <trkpt lat="43.51694" lon="6.3752">
        <ele>222</ele>
        <time>2026-05-27T07:57:54Z</time>
      </trkpt>
      <trkpt lat="43.51695" lon="6.37516">
        <ele>223</ele>
        <time>2026-05-27T07:57:56Z</time>
      </trkpt>
      <trkpt lat="43.51695" lon="6.37513">
        <ele>223</ele>
        <time>2026-05-27T07:57:58Z</time>
      </trkpt>
      <trkpt lat="43.51697" lon="6.37507">
        <ele>223</ele>
        <time>2026-05-27T07:58:02Z</time>
      </trkpt>
      <trkpt lat="43.51698" lon="6.37506">
        <ele>223</ele>
        <time>2026-05-27T07:58:04Z</time>
      </trkpt>
      <trkpt lat="43.51701" lon="6.375">
        <ele>223</ele>
        <time>2026-05-27T07:58:08Z</time>
      </trkpt>
      <trkpt lat="43.51703" lon="6.37497">
        <ele>223</ele>
        <time>2026-05-27T07:58:10Z</time>
      </trkpt>
      <trkpt lat="43.51704" lon="6.37495">
        <ele>223</ele>
        <time>2026-05-27T07:58:12Z</time>
      </trkpt>
      <trkpt lat="43.51705" lon="6.37492">
        <ele>223</ele>
        <time>2026-05-27T07:58:14Z</time>
      </trkpt>
      <trkpt lat="43.51706" lon="6.3749">
        <ele>224</ele>
        <time>2026-05-27T07:58:16Z</time>
      </trkpt>
      <trkpt lat="43.51708" lon="6.37487">
        <ele>224</ele>
        <time>2026-05-27T07:58:20Z</time>
      </trkpt>
      <trkpt lat="43.51711" lon="6.37482">
        <ele>225</ele>
        <time>2026-05-27T07:58:24Z</time>
      </trkpt>
      <trkpt lat="43.51712" lon="6.37479">
        <ele>225</ele>
        <time>2026-05-27T07:58:26Z</time>
      </trkpt>
      <trkpt lat="43.51712" lon="6.37476">
        <ele>226</ele>
        <time>2026-05-27T07:58:28Z</time>
      </trkpt>
      <trkpt lat="43.51712" lon="6.37469">
        <ele>226</ele>
        <time>2026-05-27T07:58:32Z</time>
      </trkpt>
      <trkpt lat="43.51712" lon="6.37459">
        <ele>227</ele>
        <time>2026-05-27T07:58:36Z</time>
      </trkpt>
      <trkpt lat="43.51711" lon="6.37457">
        <ele>227</ele>
        <time>2026-05-27T07:58:38Z</time>
      </trkpt>
      <trkpt lat="43.51712" lon="6.37454">
        <ele>226</ele>
        <time>2026-05-27T07:58:40Z</time>
      </trkpt>
      <trkpt lat="43.51711" lon="6.37451">
        <ele>226</ele>
        <time>2026-05-27T07:58:42Z</time>
      </trkpt>
      <trkpt lat="43.5171" lon="6.37448">
        <ele>227</ele>
        <time>2026-05-27T07:58:48Z</time>
      </trkpt>
      <trkpt lat="43.51708" lon="6.37444">
        <ele>228</ele>
        <time>2026-05-27T07:58:50Z</time>
      </trkpt>
      <trkpt lat="43.51708" lon="6.3744">
        <ele>229</ele>
        <time>2026-05-27T07:58:52Z</time>
      </trkpt>
      <trkpt lat="43.51708" lon="6.37437">
        <ele>230</ele>
        <time>2026-05-27T07:58:54Z</time>
      </trkpt>
      <trkpt lat="43.51708" lon="6.37424">
        <ele>234</ele>
        <time>2026-05-27T07:59:02Z</time>
      </trkpt>
      <trkpt lat="43.51708" lon="6.37417">
        <ele>234</ele>
        <time>2026-05-27T07:59:06Z</time>
      </trkpt>
      <trkpt lat="43.51708" lon="6.37415">
        <ele>234</ele>
        <time>2026-05-27T07:59:08Z</time>
      </trkpt>
      <trkpt lat="43.51708" lon="6.37411">
        <ele>234</ele>
        <time>2026-05-27T07:59:10Z</time>
      </trkpt>
      <trkpt lat="43.5171" lon="6.37405">
        <ele>233</ele>
        <time>2026-05-27T07:59:14Z</time>
      </trkpt>
      <trkpt lat="43.51713" lon="6.374">
        <ele>232</ele>
        <time>2026-05-27T07:59:18Z</time>
      </trkpt>
      <trkpt lat="43.51715" lon="6.37398">
        <ele>231</ele>
        <time>2026-05-27T07:59:20Z</time>
      </trkpt>
      <trkpt lat="43.51719" lon="6.37397">
        <ele>230</ele>
        <time>2026-05-27T07:59:24Z</time>
      </trkpt>
      <trkpt lat="43.5172" lon="6.37396">
        <ele>230</ele>
        <time>2026-05-27T07:59:26Z</time>
      </trkpt>
      <trkpt lat="43.51722" lon="6.37397">
        <ele>229</ele>
        <time>2026-05-27T07:59:28Z</time>
      </trkpt>
      <trkpt lat="43.51725" lon="6.37397">
        <ele>229</ele>
        <time>2026-05-27T07:59:30Z</time>
      </trkpt>
      <trkpt lat="43.51739" lon="6.37381">
        <ele>226</ele>
        <time>2026-05-27T07:59:46Z</time>
      </trkpt>
      <trkpt lat="43.51741" lon="6.37378">
        <ele>226</ele>
        <time>2026-05-27T07:59:50Z</time>
      </trkpt>
      <trkpt lat="43.51746" lon="6.37371">
        <ele>225</ele>
        <time>2026-05-27T07:59:54Z</time>
      </trkpt>
      <trkpt lat="43.51749" lon="6.37368">
        <ele>224</ele>
        <time>2026-05-27T07:59:58Z</time>
      </trkpt>
      <trkpt lat="43.51751" lon="6.37367">
        <ele>224</ele>
        <time>2026-05-27T08:00:00Z</time>
      </trkpt>
      <trkpt lat="43.51753" lon="6.37363">
        <ele>223</ele>
        <time>2026-05-27T08:00:04Z</time>
      </trkpt>
      <trkpt lat="43.51756" lon="6.37355">
        <ele>222</ele>
        <time>2026-05-27T08:00:08Z</time>
      </trkpt>
      <trkpt lat="43.51759" lon="6.3735">
        <ele>222</ele>
        <time>2026-05-27T08:00:12Z</time>
      </trkpt>
      <trkpt lat="43.51759" lon="6.37347">
        <ele>222</ele>
        <time>2026-05-27T08:00:14Z</time>
      </trkpt>
      <trkpt lat="43.51757" lon="6.37343">
        <ele>222</ele>
        <time>2026-05-27T08:00:18Z</time>
      </trkpt>
      <trkpt lat="43.51755" lon="6.37342">
        <ele>223</ele>
        <time>2026-05-27T08:00:20Z</time>
      </trkpt>
      <trkpt lat="43.51753" lon="6.3734">
        <ele>223</ele>
        <time>2026-05-27T08:00:22Z</time>
      </trkpt>
      <trkpt lat="43.51751" lon="6.37339">
        <ele>224</ele>
        <time>2026-05-27T08:00:24Z</time>
      </trkpt>
      <trkpt lat="43.51748" lon="6.37337">
        <ele>224</ele>
        <time>2026-05-27T08:00:26Z</time>
      </trkpt>
      <trkpt lat="43.51743" lon="6.37339">
        <ele>225</ele>
        <time>2026-05-27T08:00:32Z</time>
      </trkpt>
      <trkpt lat="43.5174" lon="6.37339">
        <ele>225</ele>
        <time>2026-05-27T08:00:34Z</time>
      </trkpt>
      <trkpt lat="43.51737" lon="6.37339">
        <ele>226</ele>
        <time>2026-05-27T08:00:38Z</time>
      </trkpt>
      <trkpt lat="43.51733" lon="6.37339">
        <ele>226</ele>
        <time>2026-05-27T08:00:42Z</time>
      </trkpt>
      <trkpt lat="43.51729" lon="6.37337">
        <ele>226</ele>
        <time>2026-05-27T08:00:46Z</time>
      </trkpt>
      <trkpt lat="43.51727" lon="6.37336">
        <ele>226</ele>
        <time>2026-05-27T08:00:48Z</time>
      </trkpt>
      <trkpt lat="43.51719" lon="6.37324">
        <ele>223</ele>
        <time>2026-05-27T08:01:02Z</time>
      </trkpt>
      <trkpt lat="43.51716" lon="6.37322">
        <ele>223</ele>
        <time>2026-05-27T08:01:04Z</time>
      </trkpt>
      <trkpt lat="43.51714" lon="6.37319">
        <ele>223</ele>
        <time>2026-05-27T08:01:06Z</time>
      </trkpt>
      <trkpt lat="43.51712" lon="6.37315">
        <ele>223</ele>
        <time>2026-05-27T08:01:10Z</time>
      </trkpt>
      <trkpt lat="43.51706" lon="6.37315">
        <ele>224</ele>
        <time>2026-05-27T08:01:16Z</time>
      </trkpt>
      <trkpt lat="43.51701" lon="6.37315">
        <ele>224</ele>
        <time>2026-05-27T08:01:18Z</time>
      </trkpt>
      <trkpt lat="43.51698" lon="6.37316">
        <ele>223</ele>
        <time>2026-05-27T08:01:28Z</time>
      </trkpt>
      <trkpt lat="43.51695" lon="6.37315">
        <ele>223</ele>
        <time>2026-05-27T08:01:30Z</time>
      </trkpt>
      <trkpt lat="43.51694" lon="6.37311">
        <ele>222</ele>
        <time>2026-05-27T08:01:36Z</time>
      </trkpt>
      <trkpt lat="43.51693" lon="6.37309">
        <ele>221</ele>
        <time>2026-05-27T08:01:40Z</time>
      </trkpt>
      <trkpt lat="43.51689" lon="6.37309">
        <ele>220</ele>
        <time>2026-05-27T08:01:46Z</time>
      </trkpt>
      <trkpt lat="43.51686" lon="6.37309">
        <ele>220</ele>
        <time>2026-05-27T08:01:50Z</time>
      </trkpt>
      <trkpt lat="43.51684" lon="6.3731">
        <ele>219</ele>
        <time>2026-05-27T08:01:52Z</time>
      </trkpt>
      <trkpt lat="43.51678" lon="6.37313">
        <ele>218</ele>
        <time>2026-05-27T08:01:58Z</time>
      </trkpt>
      <trkpt lat="43.51675" lon="6.37313">
        <ele>218</ele>
        <time>2026-05-27T08:02:00Z</time>
      </trkpt>
      <trkpt lat="43.51673" lon="6.37315">
        <ele>217</ele>
        <time>2026-05-27T08:02:04Z</time>
      </trkpt>
      <trkpt lat="43.51672" lon="6.37318">
        <ele>216</ele>
        <time>2026-05-27T08:02:08Z</time>
      </trkpt>
      <trkpt lat="43.51671" lon="6.3732">
        <ele>216</ele>
        <time>2026-05-27T08:02:12Z</time>
      </trkpt>
      <trkpt lat="43.51669" lon="6.37322">
        <ele>215</ele>
        <time>2026-05-27T08:02:16Z</time>
      </trkpt>
      <trkpt lat="43.51666" lon="6.37326">
        <ele>215</ele>
        <time>2026-05-27T08:02:24Z</time>
      </trkpt>
      <trkpt lat="43.51663" lon="6.37327">
        <ele>215</ele>
        <time>2026-05-27T08:02:26Z</time>
      </trkpt>
      <trkpt lat="43.5166" lon="6.37328">
        <ele>215</ele>
        <time>2026-05-27T08:02:30Z</time>
      </trkpt>
      <trkpt lat="43.51656" lon="6.37328">
        <ele>215</ele>
        <time>2026-05-27T08:02:34Z</time>
      </trkpt>
      <trkpt lat="43.51654" lon="6.37328">
        <ele>215</ele>
        <time>2026-05-27T08:02:36Z</time>
      </trkpt>
      <trkpt lat="43.5165" lon="6.37327">
        <ele>214</ele>
        <time>2026-05-27T08:02:40Z</time>
      </trkpt>
      <trkpt lat="43.51646" lon="6.37327">
        <ele>214</ele>
        <time>2026-05-27T08:02:42Z</time>
      </trkpt>
      <trkpt lat="43.51644" lon="6.37325">
        <ele>214</ele>
        <time>2026-05-27T08:02:44Z</time>
      </trkpt>
      <trkpt lat="43.5164" lon="6.37323">
        <ele>214</ele>
        <time>2026-05-27T08:02:48Z</time>
      </trkpt>
      <trkpt lat="43.51639" lon="6.37319">
        <ele>214</ele>
        <time>2026-05-27T08:02:52Z</time>
      </trkpt>
      <trkpt lat="43.51639" lon="6.37316">
        <ele>214</ele>
        <time>2026-05-27T08:02:54Z</time>
      </trkpt>
      <trkpt lat="43.51641" lon="6.37313">
        <ele>214</ele>
        <time>2026-05-27T08:02:56Z</time>
      </trkpt>
      <trkpt lat="43.51644" lon="6.37306">
        <ele>213</ele>
        <time>2026-05-27T08:03:00Z</time>
      </trkpt>
      <trkpt lat="43.51648" lon="6.37303">
        <ele>212</ele>
        <time>2026-05-27T08:03:06Z</time>
      </trkpt>
      <trkpt lat="43.5165" lon="6.37301">
        <ele>211</ele>
        <time>2026-05-27T08:03:08Z</time>
      </trkpt>
      <trkpt lat="43.51651" lon="6.37299">
        <ele>211</ele>
        <time>2026-05-27T08:03:10Z</time>
      </trkpt>
      <trkpt lat="43.51651" lon="6.37295">
        <ele>210</ele>
        <time>2026-05-27T08:03:12Z</time>
      </trkpt>
      <trkpt lat="43.51653" lon="6.3729">
        <ele>210</ele>
        <time>2026-05-27T08:03:16Z</time>
      </trkpt>
      <trkpt lat="43.51655" lon="6.37289">
        <ele>210</ele>
        <time>2026-05-27T08:03:20Z</time>
      </trkpt>
      <trkpt lat="43.51654" lon="6.37286">
        <ele>211</ele>
        <time>2026-05-27T08:03:28Z</time>
      </trkpt>
      <trkpt lat="43.51651" lon="6.37286">
        <ele>211</ele>
        <time>2026-05-27T08:03:30Z</time>
      </trkpt>
      <trkpt lat="43.51657" lon="6.37283">
        <ele>212</ele>
        <time>2026-05-27T08:03:36Z</time>
      </trkpt>
      <trkpt lat="43.51658" lon="6.3728">
        <ele>212</ele>
        <time>2026-05-27T08:03:38Z</time>
      </trkpt>
      <trkpt lat="43.51659" lon="6.37277">
        <ele>214</ele>
        <time>2026-05-27T08:03:40Z</time>
      </trkpt>
      <trkpt lat="43.5166" lon="6.37274">
        <ele>215</ele>
        <time>2026-05-27T08:03:44Z</time>
      </trkpt>
      <trkpt lat="43.51657" lon="6.37279">
        <ele>215</ele>
        <time>2026-05-27T08:03:50Z</time>
      </trkpt>
      <trkpt lat="43.51662" lon="6.37282">
        <ele>217</ele>
        <time>2026-05-27T08:03:54Z</time>
      </trkpt>
      <trkpt lat="43.5166" lon="6.37282">
        <ele>218</ele>
        <time>2026-05-27T08:04:02Z</time>
      </trkpt>
      <trkpt lat="43.51659" lon="6.37282">
        <ele>219</ele>
        <time>2026-05-27T08:04:04Z</time>
      </trkpt>
      <trkpt lat="43.51657" lon="6.37285">
        <ele>220</ele>
        <time>2026-05-27T08:04:08Z</time>
      </trkpt>
      <trkpt lat="43.51655" lon="6.37287">
        <ele>221</ele>
        <time>2026-05-27T08:04:16Z</time>
      </trkpt>
      <trkpt lat="43.51656" lon="6.37288">
        <ele>223</ele>
        <time>2026-05-27T08:04:22Z</time>
      </trkpt>
      <trkpt lat="43.51658" lon="6.37286">
        <ele>224</ele>
        <time>2026-05-27T08:04:26Z</time>
      </trkpt>
      <trkpt lat="43.51657" lon="6.37283">
        <ele>224</ele>
        <time>2026-05-27T08:04:36Z</time>
      </trkpt>
      <trkpt lat="43.51658" lon="6.37285">
        <ele>225</ele>
        <time>2026-05-27T08:04:54Z</time>
      </trkpt>
      <trkpt lat="43.51658" lon="6.37286">
        <ele>226</ele>
        <time>2026-05-27T08:05:06Z</time>
      </trkpt>
      <trkpt lat="43.51662" lon="6.3728">
        <ele>227</ele>
        <time>2026-05-27T08:05:10Z</time>
      </trkpt>
      <trkpt lat="43.51663" lon="6.37277">
        <ele>227</ele>
        <time>2026-05-27T08:05:12Z</time>
      </trkpt>
      <trkpt lat="43.51661" lon="6.37271">
        <ele>225</ele>
        <time>2026-05-27T08:05:16Z</time>
      </trkpt>
      <trkpt lat="43.51664" lon="6.37269">
        <ele>222</ele>
        <time>2026-05-27T08:05:22Z</time>
      </trkpt>
      <trkpt lat="43.51666" lon="6.37266">
        <ele>220</ele>
        <time>2026-05-27T08:05:24Z</time>
      </trkpt>
      <trkpt lat="43.51668" lon="6.37266">
        <ele>219</ele>
        <time>2026-05-27T08:05:28Z</time>
      </trkpt>
      <trkpt lat="43.5167" lon="6.37266">
        <ele>218</ele>
        <time>2026-05-27T08:05:32Z</time>
      </trkpt>
      <trkpt lat="43.51675" lon="6.37267">
        <ele>218</ele>
        <time>2026-05-27T08:05:36Z</time>
      </trkpt>
      <trkpt lat="43.51674" lon="6.37265">
        <ele>219</ele>
        <time>2026-05-27T08:05:44Z</time>
      </trkpt>
      <trkpt lat="43.5168" lon="6.37263">
        <ele>222</ele>
        <time>2026-05-27T08:06:00Z</time>
      </trkpt>
      <trkpt lat="43.51683" lon="6.37262">
        <ele>222</ele>
        <time>2026-05-27T08:06:04Z</time>
      </trkpt>
      <trkpt lat="43.51681" lon="6.3727">
        <ele>223</ele>
        <time>2026-05-27T08:06:08Z</time>
      </trkpt>
      <trkpt lat="43.5168" lon="6.37272">
        <ele>223</ele>
        <time>2026-05-27T08:06:10Z</time>
      </trkpt>
      <trkpt lat="43.51682" lon="6.37277">
        <ele>226</ele>
        <time>2026-05-27T08:06:24Z</time>
      </trkpt>
      <trkpt lat="43.51681" lon="6.37279">
        <ele>227</ele>
        <time>2026-05-27T08:06:30Z</time>
      </trkpt>
      <trkpt lat="43.51677" lon="6.3728">
        <ele>229</ele>
        <time>2026-05-27T08:06:34Z</time>
      </trkpt>
      <trkpt lat="43.51675" lon="6.37281">
        <ele>230</ele>
        <time>2026-05-27T08:06:38Z</time>
      </trkpt>
      <trkpt lat="43.51676" lon="6.37278">
        <ele>231</ele>
        <time>2026-05-27T08:06:48Z</time>
      </trkpt>
      <trkpt lat="43.5168" lon="6.37277">
        <ele>232</ele>
        <time>2026-05-27T08:07:02Z</time>
      </trkpt>
      <trkpt lat="43.5168" lon="6.37273">
        <ele>234</ele>
        <time>2026-05-27T08:07:08Z</time>
      </trkpt>
      <trkpt lat="43.5168" lon="6.37271">
        <ele>233</ele>
        <time>2026-05-27T08:07:18Z</time>
      </trkpt>
      <trkpt lat="43.51683" lon="6.37275">
        <ele>232</ele>
        <time>2026-05-27T08:07:32Z</time>
      </trkpt>
      <trkpt lat="43.51684" lon="6.37273">
        <ele>229</ele>
        <time>2026-05-27T08:07:34Z</time>
      </trkpt>
      <trkpt lat="43.51685" lon="6.3727">
        <ele>228</ele>
        <time>2026-05-27T08:07:36Z</time>
      </trkpt>
      <trkpt lat="43.51685" lon="6.37269">
        <ele>225</ele>
        <time>2026-05-27T08:07:50Z</time>
      </trkpt>
      <trkpt lat="43.51688" lon="6.37268">
        <ele>225</ele>
        <time>2026-05-27T08:07:56Z</time>
      </trkpt>
      <trkpt lat="43.5169" lon="6.37267">
        <ele>224</ele>
        <time>2026-05-27T08:07:58Z</time>
      </trkpt>
      <trkpt lat="43.51692" lon="6.37265">
        <ele>222</ele>
        <time>2026-05-27T08:08:06Z</time>
      </trkpt>
      <trkpt lat="43.51691" lon="6.37261">
        <ele>221</ele>
        <time>2026-05-27T08:08:08Z</time>
      </trkpt>
      <trkpt lat="43.51689" lon="6.37256">
        <ele>220</ele>
        <time>2026-05-27T08:08:12Z</time>
      </trkpt>
      <trkpt lat="43.51688" lon="6.37255">
        <ele>220</ele>
        <time>2026-05-27T08:08:16Z</time>
      </trkpt>
      <trkpt lat="43.51688" lon="6.37256">
        <ele>219</ele>
        <time>2026-05-27T08:08:26Z</time>
      </trkpt>
      <trkpt lat="43.51688" lon="6.37259">
        <ele>219</ele>
        <time>2026-05-27T08:08:28Z</time>
      </trkpt>
      <trkpt lat="43.51687" lon="6.37266">
        <ele>218</ele>
        <time>2026-05-27T08:08:34Z</time>
      </trkpt>
      <trkpt lat="43.51685" lon="6.37268">
        <ele>219</ele>
        <time>2026-05-27T08:08:38Z</time>
      </trkpt>
      <trkpt lat="43.5168" lon="6.37271">
        <ele>225</ele>
        <time>2026-05-27T08:08:58Z</time>
      </trkpt>
      <trkpt lat="43.51674" lon="6.37275">
        <ele>229</ele>
        <time>2026-05-27T08:09:00Z</time>
      </trkpt>
      <trkpt lat="43.51674" lon="6.37271">
        <ele>231</ele>
        <time>2026-05-27T08:09:04Z</time>
      </trkpt>
      <trkpt lat="43.51678" lon="6.37271">
        <ele>233</ele>
        <time>2026-05-27T08:09:06Z</time>
      </trkpt>
      <trkpt lat="43.51681" lon="6.3727">
        <ele>233</ele>
        <time>2026-05-27T08:09:08Z</time>
      </trkpt>
      <trkpt lat="43.51693" lon="6.37268">
        <ele>231</ele>
        <time>2026-05-27T08:09:12Z</time>
      </trkpt>
      <trkpt lat="43.51703" lon="6.37265">
        <ele>228</ele>
        <time>2026-05-27T08:09:18Z</time>
      </trkpt>
      <trkpt lat="43.51705" lon="6.37263">
        <ele>228</ele>
        <time>2026-05-27T08:09:20Z</time>
      </trkpt>
      <trkpt lat="43.51707" lon="6.37261">
        <ele>227</ele>
        <time>2026-05-27T08:09:22Z</time>
      </trkpt>
      <trkpt lat="43.51709" lon="6.37259">
        <ele>227</ele>
        <time>2026-05-27T08:09:24Z</time>
      </trkpt>
      <trkpt lat="43.51716" lon="6.37256">
        <ele>225</ele>
        <time>2026-05-27T08:09:32Z</time>
      </trkpt>
      <trkpt lat="43.51723" lon="6.37247">
        <ele>224</ele>
        <time>2026-05-27T08:09:40Z</time>
      </trkpt>
      <trkpt lat="43.51726" lon="6.37245">
        <ele>224</ele>
        <time>2026-05-27T08:09:42Z</time>
      </trkpt>
      <trkpt lat="43.51728" lon="6.37243">
        <ele>223</ele>
        <time>2026-05-27T08:09:44Z</time>
      </trkpt>
      <trkpt lat="43.5173" lon="6.37241">
        <ele>222</ele>
        <time>2026-05-27T08:09:48Z</time>
      </trkpt>
      <trkpt lat="43.51734" lon="6.37238">
        <ele>221</ele>
        <time>2026-05-27T08:09:52Z</time>
      </trkpt>
      <trkpt lat="43.51735" lon="6.37235">
        <ele>220</ele>
        <time>2026-05-27T08:09:56Z</time>
      </trkpt>
      <trkpt lat="43.51737" lon="6.37231">
        <ele>219</ele>
        <time>2026-05-27T08:10:00Z</time>
      </trkpt>
      <trkpt lat="43.51738" lon="6.37227">
        <ele>219</ele>
        <time>2026-05-27T08:10:04Z</time>
      </trkpt>
      <trkpt lat="43.51737" lon="6.37217">
        <ele>218</ele>
        <time>2026-05-27T08:10:12Z</time>
      </trkpt>
      <trkpt lat="43.51736" lon="6.37214">
        <ele>217</ele>
        <time>2026-05-27T08:10:14Z</time>
      </trkpt>
      <trkpt lat="43.51742" lon="6.37202">
        <ele>214</ele>
        <time>2026-05-27T08:10:26Z</time>
      </trkpt>
      <trkpt lat="43.51743" lon="6.37199">
        <ele>213</ele>
        <time>2026-05-27T08:10:28Z</time>
      </trkpt>
      <trkpt lat="43.51747" lon="6.37189">
        <ele>211</ele>
        <time>2026-05-27T08:10:38Z</time>
      </trkpt>
      <trkpt lat="43.51747" lon="6.37185">
        <ele>211</ele>
        <time>2026-05-27T08:10:40Z</time>
      </trkpt>
      <trkpt lat="43.51749" lon="6.37181">
        <ele>211</ele>
        <time>2026-05-27T08:10:44Z</time>
      </trkpt>
      <trkpt lat="43.51752" lon="6.37177">
        <ele>212</ele>
        <time>2026-05-27T08:10:48Z</time>
      </trkpt>
      <trkpt lat="43.51753" lon="6.37175">
        <ele>212</ele>
        <time>2026-05-27T08:10:50Z</time>
      </trkpt>
      <trkpt lat="43.51757" lon="6.37169">
        <ele>212</ele>
        <time>2026-05-27T08:10:56Z</time>
      </trkpt>
      <trkpt lat="43.51764" lon="6.3716">
        <ele>211</ele>
        <time>2026-05-27T08:11:04Z</time>
      </trkpt>
      <trkpt lat="43.51765" lon="6.37157">
        <ele>211</ele>
        <time>2026-05-27T08:11:06Z</time>
      </trkpt>
      <trkpt lat="43.51766" lon="6.37154">
        <ele>211</ele>
        <time>2026-05-27T08:11:08Z</time>
      </trkpt>
      <trkpt lat="43.51767" lon="6.37152">
        <ele>211</ele>
        <time>2026-05-27T08:11:10Z</time>
      </trkpt>
      <trkpt lat="43.51771" lon="6.37147">
        <ele>212</ele>
        <time>2026-05-27T08:11:16Z</time>
      </trkpt>
      <trkpt lat="43.51778" lon="6.37136">
        <ele>212</ele>
        <time>2026-05-27T08:11:24Z</time>
      </trkpt>
      <trkpt lat="43.5178" lon="6.37133">
        <ele>212</ele>
        <time>2026-05-27T08:11:26Z</time>
      </trkpt>
      <trkpt lat="43.51793" lon="6.37112">
        <ele>210</ele>
        <time>2026-05-27T08:11:42Z</time>
      </trkpt>
      <trkpt lat="43.51794" lon="6.37107">
        <ele>210</ele>
        <time>2026-05-27T08:11:46Z</time>
      </trkpt>
      <trkpt lat="43.51796" lon="6.37103">
        <ele>210</ele>
        <time>2026-05-27T08:11:48Z</time>
      </trkpt>
      <trkpt lat="43.51796" lon="6.37098">
        <ele>210</ele>
        <time>2026-05-27T08:11:50Z</time>
      </trkpt>
      <trkpt lat="43.51795" lon="6.37095">
        <ele>210</ele>
        <time>2026-05-27T08:11:52Z</time>
      </trkpt>
      <trkpt lat="43.51796" lon="6.37092">
        <ele>211</ele>
        <time>2026-05-27T08:11:56Z</time>
      </trkpt>
      <trkpt lat="43.51797" lon="6.3709">
        <ele>211</ele>
        <time>2026-05-27T08:11:58Z</time>
      </trkpt>
      <trkpt lat="43.51799" lon="6.37087">
        <ele>212</ele>
        <time>2026-05-27T08:12:00Z</time>
      </trkpt>
      <trkpt lat="43.518" lon="6.37084">
        <ele>214</ele>
        <time>2026-05-27T08:12:06Z</time>
      </trkpt>
      <trkpt lat="43.51805" lon="6.37079">
        <ele>218</ele>
        <time>2026-05-27T08:12:12Z</time>
      </trkpt>
      <trkpt lat="43.51809" lon="6.37077">
        <ele>221</ele>
        <time>2026-05-27T08:12:16Z</time>
      </trkpt>
      <trkpt lat="43.51813" lon="6.37077">
        <ele>222</ele>
        <time>2026-05-27T08:12:20Z</time>
      </trkpt>
      <trkpt lat="43.51815" lon="6.37078">
        <ele>222</ele>
        <time>2026-05-27T08:12:22Z</time>
      </trkpt>
      <trkpt lat="43.51818" lon="6.37081">
        <ele>222</ele>
        <time>2026-05-27T08:12:24Z</time>
      </trkpt>
      <trkpt lat="43.51822" lon="6.37085">
        <ele>222</ele>
        <time>2026-05-27T08:12:28Z</time>
      </trkpt>
      <trkpt lat="43.51826" lon="6.37086">
        <ele>222</ele>
        <time>2026-05-27T08:12:30Z</time>
      </trkpt>
      <trkpt lat="43.51828" lon="6.37089">
        <ele>221</ele>
        <time>2026-05-27T08:12:36Z</time>
      </trkpt>
      <trkpt lat="43.51832" lon="6.37092">
        <ele>221</ele>
        <time>2026-05-27T08:12:40Z</time>
      </trkpt>
      <trkpt lat="43.51836" lon="6.37093">
        <ele>222</ele>
        <time>2026-05-27T08:12:42Z</time>
      </trkpt>
      <trkpt lat="43.51842" lon="6.37093">
        <ele>226</ele>
        <time>2026-05-27T08:12:48Z</time>
      </trkpt>
      <trkpt lat="43.51844" lon="6.37092">
        <ele>227</ele>
        <time>2026-05-27T08:12:50Z</time>
      </trkpt>
      <trkpt lat="43.51847" lon="6.37091">
        <ele>228</ele>
        <time>2026-05-27T08:12:52Z</time>
      </trkpt>
      <trkpt lat="43.51849" lon="6.3709">
        <ele>228</ele>
        <time>2026-05-27T08:12:54Z</time>
      </trkpt>
      <trkpt lat="43.51851" lon="6.37088">
        <ele>229</ele>
        <time>2026-05-27T08:12:56Z</time>
      </trkpt>
      <trkpt lat="43.51862" lon="6.37089">
        <ele>233</ele>
        <time>2026-05-27T08:13:06Z</time>
      </trkpt>
      <trkpt lat="43.51869" lon="6.37092">
        <ele>235</ele>
        <time>2026-05-27T08:13:14Z</time>
      </trkpt>
      <trkpt lat="43.51872" lon="6.37093">
        <ele>236</ele>
        <time>2026-05-27T08:13:16Z</time>
      </trkpt>
      <trkpt lat="43.51875" lon="6.37093">
        <ele>237</ele>
        <time>2026-05-27T08:13:18Z</time>
      </trkpt>
      <trkpt lat="43.51881" lon="6.37091">
        <ele>238</ele>
        <time>2026-05-27T08:13:24Z</time>
      </trkpt>
      <trkpt lat="43.51883" lon="6.37091">
        <ele>238</ele>
        <time>2026-05-27T08:13:26Z</time>
      </trkpt>
      <trkpt lat="43.51885" lon="6.37089">
        <ele>239</ele>
        <time>2026-05-27T08:13:28Z</time>
      </trkpt>
      <trkpt lat="43.51887" lon="6.37089">
        <ele>239</ele>
        <time>2026-05-27T08:13:30Z</time>
      </trkpt>
      <trkpt lat="43.5189" lon="6.37092">
        <ele>240</ele>
        <time>2026-05-27T08:13:34Z</time>
      </trkpt>
      <trkpt lat="43.51894" lon="6.37101">
        <ele>241</ele>
        <time>2026-05-27T08:13:42Z</time>
      </trkpt>
      <trkpt lat="43.51894" lon="6.37103">
        <ele>241</ele>
        <time>2026-05-27T08:13:44Z</time>
      </trkpt>
      <trkpt lat="43.51894" lon="6.3711">
        <ele>240</ele>
        <time>2026-05-27T08:13:48Z</time>
      </trkpt>
      <trkpt lat="43.51893" lon="6.37114">
        <ele>241</ele>
        <time>2026-05-27T08:13:50Z</time>
      </trkpt>
      <trkpt lat="43.51893" lon="6.37117">
        <ele>241</ele>
        <time>2026-05-27T08:13:52Z</time>
      </trkpt>
      <trkpt lat="43.51893" lon="6.37121">
        <ele>240</ele>
        <time>2026-05-27T08:13:54Z</time>
      </trkpt>
      <trkpt lat="43.519" lon="6.37134">
        <ele>241</ele>
        <time>2026-05-27T08:14:08Z</time>
      </trkpt>
      <trkpt lat="43.51903" lon="6.37135">
        <ele>240</ele>
        <time>2026-05-27T08:14:12Z</time>
      </trkpt>
      <trkpt lat="43.51908" lon="6.37136">
        <ele>240</ele>
        <time>2026-05-27T08:14:16Z</time>
      </trkpt>
      <trkpt lat="43.51911" lon="6.37138">
        <ele>240</ele>
        <time>2026-05-27T08:14:20Z</time>
      </trkpt>
      <trkpt lat="43.51917" lon="6.37141">
        <ele>239</ele>
        <time>2026-05-27T08:14:28Z</time>
      </trkpt>
      <trkpt lat="43.51922" lon="6.37142">
        <ele>239</ele>
        <time>2026-05-27T08:14:34Z</time>
      </trkpt>
      <trkpt lat="43.51927" lon="6.37143">
        <ele>238</ele>
        <time>2026-05-27T08:14:38Z</time>
      </trkpt>
      <trkpt lat="43.51931" lon="6.37148">
        <ele>236</ele>
        <time>2026-05-27T08:14:42Z</time>
      </trkpt>
      <trkpt lat="43.51933" lon="6.3715">
        <ele>236</ele>
        <time>2026-05-27T08:14:44Z</time>
      </trkpt>
      <trkpt lat="43.51934" lon="6.37154">
        <ele>235</ele>
        <time>2026-05-27T08:14:46Z</time>
      </trkpt>
      <trkpt lat="43.51935" lon="6.37156">
        <ele>234</ele>
        <time>2026-05-27T08:14:48Z</time>
      </trkpt>
      <trkpt lat="43.51937" lon="6.37158">
        <ele>233</ele>
        <time>2026-05-27T08:14:50Z</time>
      </trkpt>
      <trkpt lat="43.51959" lon="6.37175">
        <ele>232</ele>
        <time>2026-05-27T08:15:08Z</time>
      </trkpt>
      <trkpt lat="43.51961" lon="6.37178">
        <ele>232</ele>
        <time>2026-05-27T08:15:10Z</time>
      </trkpt>
      <trkpt lat="43.51963" lon="6.3718">
        <ele>232</ele>
        <time>2026-05-27T08:15:12Z</time>
      </trkpt>
      <trkpt lat="43.51965" lon="6.37182">
        <ele>233</ele>
        <time>2026-05-27T08:15:14Z</time>
      </trkpt>
      <trkpt lat="43.51966" lon="6.37185">
        <ele>233</ele>
        <time>2026-05-27T08:15:16Z</time>
      </trkpt>
      <trkpt lat="43.5197" lon="6.37194">
        <ele>234</ele>
        <time>2026-05-27T08:15:22Z</time>
      </trkpt>
      <trkpt lat="43.51972" lon="6.372">
        <ele>235</ele>
        <time>2026-05-27T08:15:26Z</time>
      </trkpt>
      <trkpt lat="43.51973" lon="6.37203">
        <ele>235</ele>
        <time>2026-05-27T08:15:28Z</time>
      </trkpt>
      <trkpt lat="43.51977" lon="6.37213">
        <ele>236</ele>
        <time>2026-05-27T08:15:36Z</time>
      </trkpt>
      <trkpt lat="43.51979" lon="6.37215">
        <ele>236</ele>
        <time>2026-05-27T08:15:38Z</time>
      </trkpt>
      <trkpt lat="43.51981" lon="6.37216">
        <ele>236</ele>
        <time>2026-05-27T08:15:40Z</time>
      </trkpt>
      <trkpt lat="43.51988" lon="6.37218">
        <ele>237</ele>
        <time>2026-05-27T08:15:46Z</time>
      </trkpt>
      <trkpt lat="43.51993" lon="6.37219">
        <ele>238</ele>
        <time>2026-05-27T08:15:50Z</time>
      </trkpt>
      <trkpt lat="43.51995" lon="6.37218">
        <ele>238</ele>
        <time>2026-05-27T08:15:52Z</time>
      </trkpt>
      <trkpt lat="43.51999" lon="6.37218">
        <ele>238</ele>
        <time>2026-05-27T08:15:56Z</time>
      </trkpt>
      <trkpt lat="43.52001" lon="6.37218">
        <ele>238</ele>
        <time>2026-05-27T08:15:58Z</time>
      </trkpt>
      <trkpt lat="43.52003" lon="6.37217">
        <ele>239</ele>
        <time>2026-05-27T08:16:00Z</time>
      </trkpt>
      <trkpt lat="43.52005" lon="6.37217">
        <ele>239</ele>
        <time>2026-05-27T08:16:02Z</time>
      </trkpt>
      <trkpt lat="43.52007" lon="6.37218">
        <ele>239</ele>
        <time>2026-05-27T08:16:04Z</time>
      </trkpt>
      <trkpt lat="43.52011" lon="6.37218">
        <ele>239</ele>
        <time>2026-05-27T08:16:08Z</time>
      </trkpt>
      <trkpt lat="43.52014" lon="6.37218">
        <ele>239</ele>
        <time>2026-05-27T08:16:10Z</time>
      </trkpt>
      <trkpt lat="43.52018" lon="6.37218">
        <ele>239</ele>
        <time>2026-05-27T08:16:12Z</time>
      </trkpt>
      <trkpt lat="43.52021" lon="6.37218">
        <ele>239</ele>
        <time>2026-05-27T08:16:14Z</time>
      </trkpt>
      <trkpt lat="43.52026" lon="6.37213">
        <ele>239</ele>
        <time>2026-05-27T08:16:24Z</time>
      </trkpt>
      <trkpt lat="43.52029" lon="6.3721">
        <ele>240</ele>
        <time>2026-05-27T08:16:28Z</time>
      </trkpt>
      <trkpt lat="43.52032" lon="6.3721">
        <ele>240</ele>
        <time>2026-05-27T08:16:30Z</time>
      </trkpt>
      <trkpt lat="43.52035" lon="6.3721">
        <ele>240</ele>
        <time>2026-05-27T08:16:32Z</time>
      </trkpt>
      <trkpt lat="43.52037" lon="6.37208">
        <ele>240</ele>
        <time>2026-05-27T08:16:34Z</time>
      </trkpt>
      <trkpt lat="43.52042" lon="6.37207">
        <ele>240</ele>
        <time>2026-05-27T08:16:38Z</time>
      </trkpt>
      <trkpt lat="43.52044" lon="6.37207">
        <ele>240</ele>
        <time>2026-05-27T08:16:40Z</time>
      </trkpt>
      <trkpt lat="43.52046" lon="6.37207">
        <ele>240</ele>
        <time>2026-05-27T08:16:42Z</time>
      </trkpt>
      <trkpt lat="43.52054" lon="6.372">
        <ele>240</ele>
        <time>2026-05-27T08:16:50Z</time>
      </trkpt>
      <trkpt lat="43.52057" lon="6.37199">
        <ele>240</ele>
        <time>2026-05-27T08:16:52Z</time>
      </trkpt>
      <trkpt lat="43.52059" lon="6.37198">
        <ele>239</ele>
        <time>2026-05-27T08:16:54Z</time>
      </trkpt>
      <trkpt lat="43.52061" lon="6.37197">
        <ele>239</ele>
        <time>2026-05-27T08:16:56Z</time>
      </trkpt>
      <trkpt lat="43.52063" lon="6.37196">
        <ele>239</ele>
        <time>2026-05-27T08:16:58Z</time>
      </trkpt>
      <trkpt lat="43.52065" lon="6.37193">
        <ele>239</ele>
        <time>2026-05-27T08:17:00Z</time>
      </trkpt>
      <trkpt lat="43.52068" lon="6.37191">
        <ele>238</ele>
        <time>2026-05-27T08:17:02Z</time>
      </trkpt>
      <trkpt lat="43.52069" lon="6.37189">
        <ele>238</ele>
        <time>2026-05-27T08:17:04Z</time>
      </trkpt>
      <trkpt lat="43.52069" lon="6.37184">
        <ele>238</ele>
        <time>2026-05-27T08:17:06Z</time>
      </trkpt>
      <trkpt lat="43.52073" lon="6.37182">
        <ele>239</ele>
        <time>2026-05-27T08:17:10Z</time>
      </trkpt>
      <trkpt lat="43.52075" lon="6.37179">
        <ele>239</ele>
        <time>2026-05-27T08:17:12Z</time>
      </trkpt>
      <trkpt lat="43.52077" lon="6.37175">
        <ele>240</ele>
        <time>2026-05-27T08:17:14Z</time>
      </trkpt>
      <trkpt lat="43.52081" lon="6.37171">
        <ele>241</ele>
        <time>2026-05-27T08:17:18Z</time>
      </trkpt>
      <trkpt lat="43.52082" lon="6.37169">
        <ele>242</ele>
        <time>2026-05-27T08:17:20Z</time>
      </trkpt>
      <trkpt lat="43.52086" lon="6.37154">
        <ele>243</ele>
        <time>2026-05-27T08:17:30Z</time>
      </trkpt>
      <trkpt lat="43.52088" lon="6.37152">
        <ele>244</ele>
        <time>2026-05-27T08:17:32Z</time>
      </trkpt>
      <trkpt lat="43.5209" lon="6.37152">
        <ele>244</ele>
        <time>2026-05-27T08:17:36Z</time>
      </trkpt>
      <trkpt lat="43.52086" lon="6.37155">
        <ele>244</ele>
        <time>2026-05-27T08:18:44Z</time>
      </trkpt>
      <trkpt lat="43.52088" lon="6.37155">
        <ele>244</ele>
        <time>2026-05-27T08:18:54Z</time>
      </trkpt>
      <trkpt lat="43.5209" lon="6.37156">
        <ele>244</ele>
        <time>2026-05-27T08:19:00Z</time>
      </trkpt>
      <trkpt lat="43.52095" lon="6.37154">
        <ele>245</ele>
        <time>2026-05-27T08:19:14Z</time>
      </trkpt>
      <trkpt lat="43.52092" lon="6.37152">
        <ele>245</ele>
        <time>2026-05-27T08:19:18Z</time>
      </trkpt>
      <trkpt lat="43.52089" lon="6.37152">
        <ele>245</ele>
        <time>2026-05-27T08:19:20Z</time>
      </trkpt>
      <trkpt lat="43.52087" lon="6.37154">
        <ele>245</ele>
        <time>2026-05-27T08:19:24Z</time>
      </trkpt>
      <trkpt lat="43.52082" lon="6.37159">
        <ele>244</ele>
        <time>2026-05-27T08:19:32Z</time>
      </trkpt>
      <trkpt lat="43.52083" lon="6.37156">
        <ele>244</ele>
        <time>2026-05-27T08:19:42Z</time>
      </trkpt>
      <trkpt lat="43.52085" lon="6.37158">
        <ele>244</ele>
        <time>2026-05-27T08:20:08Z</time>
      </trkpt>
      <trkpt lat="43.52082" lon="6.3715">
        <ele>244</ele>
        <time>2026-05-27T08:20:20Z</time>
      </trkpt>
      <trkpt lat="43.52081" lon="6.37149">
        <ele>244</ele>
        <time>2026-05-27T08:20:22Z</time>
      </trkpt>
      <trkpt lat="43.52079" lon="6.37149">
        <ele>244</ele>
        <time>2026-05-27T08:20:24Z</time>
      </trkpt>
      <trkpt lat="43.52076" lon="6.37148">
        <ele>244</ele>
        <time>2026-05-27T08:20:26Z</time>
      </trkpt>
      <trkpt lat="43.52072" lon="6.37147">
        <ele>244</ele>
        <time>2026-05-27T08:20:30Z</time>
      </trkpt>
      <trkpt lat="43.5207" lon="6.37146">
        <ele>244</ele>
        <time>2026-05-27T08:20:32Z</time>
      </trkpt>
      <trkpt lat="43.52051" lon="6.37148">
        <ele>243</ele>
        <time>2026-05-27T08:20:44Z</time>
      </trkpt>
      <trkpt lat="43.52048" lon="6.37146">
        <ele>244</ele>
        <time>2026-05-27T08:20:46Z</time>
      </trkpt>
      <trkpt lat="43.52046" lon="6.37144">
        <ele>244</ele>
        <time>2026-05-27T08:20:48Z</time>
      </trkpt>
      <trkpt lat="43.52046" lon="6.37141">
        <ele>244</ele>
        <time>2026-05-27T08:20:50Z</time>
      </trkpt>
      <trkpt lat="43.52047" lon="6.37137">
        <ele>244</ele>
        <time>2026-05-27T08:20:52Z</time>
      </trkpt>
      <trkpt lat="43.52048" lon="6.37135">
        <ele>243</ele>
        <time>2026-05-27T08:20:54Z</time>
      </trkpt>
      <trkpt lat="43.52052" lon="6.37133">
        <ele>242</ele>
        <time>2026-05-27T08:20:58Z</time>
      </trkpt>
      <trkpt lat="43.52062" lon="6.37135">
        <ele>241</ele>
        <time>2026-05-27T08:21:06Z</time>
      </trkpt>
      <trkpt lat="43.52065" lon="6.37137">
        <ele>241</ele>
        <time>2026-05-27T08:21:10Z</time>
      </trkpt>
      <trkpt lat="43.52068" lon="6.37138">
        <ele>241</ele>
        <time>2026-05-27T08:21:14Z</time>
      </trkpt>
      <trkpt lat="43.5207" lon="6.37138">
        <ele>241</ele>
        <time>2026-05-27T08:21:16Z</time>
      </trkpt>
      <trkpt lat="43.52073" lon="6.37138">
        <ele>241</ele>
        <time>2026-05-27T08:21:18Z</time>
      </trkpt>
      <trkpt lat="43.52078" lon="6.37134">
        <ele>242</ele>
        <time>2026-05-27T08:21:22Z</time>
      </trkpt>
      <trkpt lat="43.52088" lon="6.3713">
        <ele>243</ele>
        <time>2026-05-27T08:21:28Z</time>
      </trkpt>
      <trkpt lat="43.5209" lon="6.37127">
        <ele>244</ele>
        <time>2026-05-27T08:21:32Z</time>
      </trkpt>
      <trkpt lat="43.52091" lon="6.37124">
        <ele>245</ele>
        <time>2026-05-27T08:21:34Z</time>
      </trkpt>
      <trkpt lat="43.52093" lon="6.3712">
        <ele>245</ele>
        <time>2026-05-27T08:21:36Z</time>
      </trkpt>
      <trkpt lat="43.52095" lon="6.3712">
        <ele>245</ele>
        <time>2026-05-27T08:21:40Z</time>
      </trkpt>
      <trkpt lat="43.52097" lon="6.37117">
        <ele>244</ele>
        <time>2026-05-27T08:21:42Z</time>
      </trkpt>
      <trkpt lat="43.52099" lon="6.37114">
        <ele>243</ele>
        <time>2026-05-27T08:21:44Z</time>
      </trkpt>
      <trkpt lat="43.52102" lon="6.3711">
        <ele>241</ele>
        <time>2026-05-27T08:21:48Z</time>
      </trkpt>
      <trkpt lat="43.52104" lon="6.37108">
        <ele>241</ele>
        <time>2026-05-27T08:21:50Z</time>
      </trkpt>
      <trkpt lat="43.52104" lon="6.37105">
        <ele>241</ele>
        <time>2026-05-27T08:21:52Z</time>
      </trkpt>
      <trkpt lat="43.52108" lon="6.37101">
        <ele>242</ele>
        <time>2026-05-27T08:21:56Z</time>
      </trkpt>
      <trkpt lat="43.5211" lon="6.37099">
        <ele>242</ele>
        <time>2026-05-27T08:21:58Z</time>
      </trkpt>
      <trkpt lat="43.52112" lon="6.37096">
        <ele>243</ele>
        <time>2026-05-27T08:22:00Z</time>
      </trkpt>
      <trkpt lat="43.52114" lon="6.37093">
        <ele>243</ele>
        <time>2026-05-27T08:22:02Z</time>
      </trkpt>
      <trkpt lat="43.52115" lon="6.3709">
        <ele>245</ele>
        <time>2026-05-27T08:22:04Z</time>
      </trkpt>
      <trkpt lat="43.52117" lon="6.37089">
        <ele>245</ele>
        <time>2026-05-27T08:22:06Z</time>
      </trkpt>
      <trkpt lat="43.52119" lon="6.37088">
        <ele>247</ele>
        <time>2026-05-27T08:22:08Z</time>
      </trkpt>
      <trkpt lat="43.52122" lon="6.37086">
        <ele>247</ele>
        <time>2026-05-27T08:22:12Z</time>
      </trkpt>
      <trkpt lat="43.52124" lon="6.37084">
        <ele>248</ele>
        <time>2026-05-27T08:22:14Z</time>
      </trkpt>
      <trkpt lat="43.52128" lon="6.37078">
        <ele>249</ele>
        <time>2026-05-27T08:22:18Z</time>
      </trkpt>
      <trkpt lat="43.5213" lon="6.37075">
        <ele>249</ele>
        <time>2026-05-27T08:22:20Z</time>
      </trkpt>
      <trkpt lat="43.52133" lon="6.37072">
        <ele>250</ele>
        <time>2026-05-27T08:22:22Z</time>
      </trkpt>
      <trkpt lat="43.52134" lon="6.3707">
        <ele>250</ele>
        <time>2026-05-27T08:22:24Z</time>
      </trkpt>
      <trkpt lat="43.52135" lon="6.37067">
        <ele>250</ele>
        <time>2026-05-27T08:22:26Z</time>
      </trkpt>
      <trkpt lat="43.52136" lon="6.37064">
        <ele>251</ele>
        <time>2026-05-27T08:22:28Z</time>
      </trkpt>
      <trkpt lat="43.5214" lon="6.37059">
        <ele>251</ele>
        <time>2026-05-27T08:22:32Z</time>
      </trkpt>
      <trkpt lat="43.52142" lon="6.37057">
        <ele>251</ele>
        <time>2026-05-27T08:22:34Z</time>
      </trkpt>
      <trkpt lat="43.52144" lon="6.37053">
        <ele>250</ele>
        <time>2026-05-27T08:22:38Z</time>
      </trkpt>
      <trkpt lat="43.52147" lon="6.3705">
        <ele>250</ele>
        <time>2026-05-27T08:22:42Z</time>
      </trkpt>
      <trkpt lat="43.52158" lon="6.37044">
        <ele>248</ele>
        <time>2026-05-27T08:22:52Z</time>
      </trkpt>
      <trkpt lat="43.5216" lon="6.37041">
        <ele>248</ele>
        <time>2026-05-27T08:22:54Z</time>
      </trkpt>
      <trkpt lat="43.52162" lon="6.37039">
        <ele>248</ele>
        <time>2026-05-27T08:22:56Z</time>
      </trkpt>
      <trkpt lat="43.52163" lon="6.37037">
        <ele>247</ele>
        <time>2026-05-27T08:22:58Z</time>
      </trkpt>
      <trkpt lat="43.52164" lon="6.37033">
        <ele>247</ele>
        <time>2026-05-27T08:23:00Z</time>
      </trkpt>
      <trkpt lat="43.52164" lon="6.3703">
        <ele>247</ele>
        <time>2026-05-27T08:23:02Z</time>
      </trkpt>
      <trkpt lat="43.52165" lon="6.37026">
        <ele>247</ele>
        <time>2026-05-27T08:23:04Z</time>
      </trkpt>
      <trkpt lat="43.52166" lon="6.37024">
        <ele>247</ele>
        <time>2026-05-27T08:23:06Z</time>
      </trkpt>
      <trkpt lat="43.52168" lon="6.37019">
        <ele>247</ele>
        <time>2026-05-27T08:23:10Z</time>
      </trkpt>
      <trkpt lat="43.5217" lon="6.37016">
        <ele>247</ele>
        <time>2026-05-27T08:23:12Z</time>
      </trkpt>
      <trkpt lat="43.52172" lon="6.37015">
        <ele>248</ele>
        <time>2026-05-27T08:23:14Z</time>
      </trkpt>
      <trkpt lat="43.52174" lon="6.37013">
        <ele>248</ele>
        <time>2026-05-27T08:23:16Z</time>
      </trkpt>
      <trkpt lat="43.52185" lon="6.37005">
        <ele>250</ele>
        <time>2026-05-27T08:23:26Z</time>
      </trkpt>
      <trkpt lat="43.52187" lon="6.37003">
        <ele>250</ele>
        <time>2026-05-27T08:23:28Z</time>
      </trkpt>
      <trkpt lat="43.5219" lon="6.36995">
        <ele>250</ele>
        <time>2026-05-27T08:23:32Z</time>
      </trkpt>
      <trkpt lat="43.52192" lon="6.36993">
        <ele>250</ele>
        <time>2026-05-27T08:23:34Z</time>
      </trkpt>
      <trkpt lat="43.52194" lon="6.3699">
        <ele>250</ele>
        <time>2026-05-27T08:23:36Z</time>
      </trkpt>
      <trkpt lat="43.52195" lon="6.36987">
        <ele>250</ele>
        <time>2026-05-27T08:23:38Z</time>
      </trkpt>
      <trkpt lat="43.52197" lon="6.36985">
        <ele>250</ele>
        <time>2026-05-27T08:23:40Z</time>
      </trkpt>
      <trkpt lat="43.52199" lon="6.36983">
        <ele>250</ele>
        <time>2026-05-27T08:23:42Z</time>
      </trkpt>
      <trkpt lat="43.52211" lon="6.36969">
        <ele>250</ele>
        <time>2026-05-27T08:23:57Z</time>
      </trkpt>
      <trkpt lat="43.52213" lon="6.36969">
        <ele>250</ele>
        <time>2026-05-27T08:23:59Z</time>
      </trkpt>
      <trkpt lat="43.52222" lon="6.36969">
        <ele>250</ele>
        <time>2026-05-27T08:24:05Z</time>
      </trkpt>
      <trkpt lat="43.52224" lon="6.36968">
        <ele>249</ele>
        <time>2026-05-27T08:24:07Z</time>
      </trkpt>
      <trkpt lat="43.52227" lon="6.36968">
        <ele>249</ele>
        <time>2026-05-27T08:24:09Z</time>
      </trkpt>
      <trkpt lat="43.52229" lon="6.36967">
        <ele>249</ele>
        <time>2026-05-27T08:24:11Z</time>
      </trkpt>
      <trkpt lat="43.52231" lon="6.36966">
        <ele>249</ele>
        <time>2026-05-27T08:24:13Z</time>
      </trkpt>
      <trkpt lat="43.52234" lon="6.36962">
        <ele>248</ele>
        <time>2026-05-27T08:24:17Z</time>
      </trkpt>
      <trkpt lat="43.52237" lon="6.36961">
        <ele>248</ele>
        <time>2026-05-27T08:24:19Z</time>
      </trkpt>
      <trkpt lat="43.52239" lon="6.3696">
        <ele>248</ele>
        <time>2026-05-27T08:24:21Z</time>
      </trkpt>
      <trkpt lat="43.52242" lon="6.36957">
        <ele>248</ele>
        <time>2026-05-27T08:24:23Z</time>
      </trkpt>
      <trkpt lat="43.52246" lon="6.36952">
        <ele>248</ele>
        <time>2026-05-27T08:24:27Z</time>
      </trkpt>
      <trkpt lat="43.52246" lon="6.36948">
        <ele>248</ele>
        <time>2026-05-27T08:24:29Z</time>
      </trkpt>
      <trkpt lat="43.52248" lon="6.36946">
        <ele>248</ele>
        <time>2026-05-27T08:24:31Z</time>
      </trkpt>
      <trkpt lat="43.52249" lon="6.36944">
        <ele>249</ele>
        <time>2026-05-27T08:24:33Z</time>
      </trkpt>
      <trkpt lat="43.52255" lon="6.36934">
        <ele>249</ele>
        <time>2026-05-27T08:24:40Z</time>
      </trkpt>
      <trkpt lat="43.52256" lon="6.36932">
        <ele>249</ele>
        <time>2026-05-27T08:24:42Z</time>
      </trkpt>
      <trkpt lat="43.52258" lon="6.36928">
        <ele>249</ele>
        <time>2026-05-27T08:24:44Z</time>
      </trkpt>
      <trkpt lat="43.52259" lon="6.36926">
        <ele>249</ele>
        <time>2026-05-27T08:24:46Z</time>
      </trkpt>
      <trkpt lat="43.52265" lon="6.36917">
        <ele>251</ele>
        <time>2026-05-27T08:24:54Z</time>
      </trkpt>
      <trkpt lat="43.52266" lon="6.36914">
        <ele>251</ele>
        <time>2026-05-27T08:24:56Z</time>
      </trkpt>
      <trkpt lat="43.52269" lon="6.36908">
        <ele>252</ele>
        <time>2026-05-27T08:25:00Z</time>
      </trkpt>
      <trkpt lat="43.52269" lon="6.36906">
        <ele>253</ele>
        <time>2026-05-27T08:25:02Z</time>
      </trkpt>
      <trkpt lat="43.52271" lon="6.369">
        <ele>253</ele>
        <time>2026-05-27T08:25:06Z</time>
      </trkpt>
      <trkpt lat="43.52274" lon="6.36893">
        <ele>253</ele>
        <time>2026-05-27T08:25:10Z</time>
      </trkpt>
      <trkpt lat="43.52275" lon="6.36889">
        <ele>253</ele>
        <time>2026-05-27T08:25:12Z</time>
      </trkpt>
      <trkpt lat="43.52275" lon="6.36887">
        <ele>253</ele>
        <time>2026-05-27T08:25:14Z</time>
      </trkpt>
      <trkpt lat="43.5228" lon="6.36882">
        <ele>252</ele>
        <time>2026-05-27T08:25:18Z</time>
      </trkpt>
      <trkpt lat="43.52283" lon="6.3688">
        <ele>252</ele>
        <time>2026-05-27T08:25:20Z</time>
      </trkpt>
      <trkpt lat="43.52287" lon="6.36873">
        <ele>252</ele>
        <time>2026-05-27T08:25:24Z</time>
      </trkpt>
      <trkpt lat="43.52288" lon="6.36867">
        <ele>252</ele>
        <time>2026-05-27T08:25:28Z</time>
      </trkpt>
      <trkpt lat="43.5229" lon="6.36862">
        <ele>252</ele>
        <time>2026-05-27T08:25:32Z</time>
      </trkpt>
      <trkpt lat="43.5229" lon="6.36859">
        <ele>253</ele>
        <time>2026-05-27T08:25:34Z</time>
      </trkpt>
      <trkpt lat="43.52289" lon="6.36856">
        <ele>253</ele>
        <time>2026-05-27T08:25:36Z</time>
      </trkpt>
      <trkpt lat="43.52302" lon="6.3683">
        <ele>250</ele>
        <time>2026-05-27T08:25:56Z</time>
      </trkpt>
      <trkpt lat="43.52302" lon="6.36825">
        <ele>250</ele>
        <time>2026-05-27T08:25:58Z</time>
      </trkpt>
      <trkpt lat="43.52303" lon="6.36821">
        <ele>250</ele>
        <time>2026-05-27T08:26:00Z</time>
      </trkpt>
      <trkpt lat="43.52304" lon="6.36816">
        <ele>250</ele>
        <time>2026-05-27T08:26:04Z</time>
      </trkpt>
      <trkpt lat="43.52303" lon="6.36813">
        <ele>250</ele>
        <time>2026-05-27T08:26:06Z</time>
      </trkpt>
      <trkpt lat="43.52304" lon="6.36809">
        <ele>251</ele>
        <time>2026-05-27T08:26:08Z</time>
      </trkpt>
      <trkpt lat="43.52304" lon="6.36807">
        <ele>251</ele>
        <time>2026-05-27T08:26:10Z</time>
      </trkpt>
      <trkpt lat="43.52303" lon="6.36803">
        <ele>252</ele>
        <time>2026-05-27T08:26:12Z</time>
      </trkpt>
      <trkpt lat="43.52302" lon="6.368">
        <ele>252</ele>
        <time>2026-05-27T08:26:14Z</time>
      </trkpt>
      <trkpt lat="43.52301" lon="6.36797">
        <ele>253</ele>
        <time>2026-05-27T08:26:16Z</time>
      </trkpt>
      <trkpt lat="43.52297" lon="6.36791">
        <ele>254</ele>
        <time>2026-05-27T08:26:20Z</time>
      </trkpt>
      <trkpt lat="43.52288" lon="6.36784">
        <ele>256</ele>
        <time>2026-05-27T08:26:26Z</time>
      </trkpt>
      <trkpt lat="43.52284" lon="6.36781">
        <ele>256</ele>
        <time>2026-05-27T08:26:30Z</time>
      </trkpt>
      <trkpt lat="43.52281" lon="6.3678">
        <ele>257</ele>
        <time>2026-05-27T08:26:32Z</time>
      </trkpt>
      <trkpt lat="43.52278" lon="6.36779">
        <ele>257</ele>
        <time>2026-05-27T08:26:34Z</time>
      </trkpt>
      <trkpt lat="43.52273" lon="6.36775">
        <ele>258</ele>
        <time>2026-05-27T08:26:38Z</time>
      </trkpt>
      <trkpt lat="43.52268" lon="6.36774">
        <ele>259</ele>
        <time>2026-05-27T08:26:42Z</time>
      </trkpt>
      <trkpt lat="43.52262" lon="6.36773">
        <ele>260</ele>
        <time>2026-05-27T08:26:48Z</time>
      </trkpt>
      <trkpt lat="43.52259" lon="6.36771">
        <ele>261</ele>
        <time>2026-05-27T08:26:50Z</time>
      </trkpt>
      <trkpt lat="43.52257" lon="6.3677">
        <ele>261</ele>
        <time>2026-05-27T08:26:52Z</time>
      </trkpt>
      <trkpt lat="43.52255" lon="6.3677">
        <ele>262</ele>
        <time>2026-05-27T08:26:54Z</time>
      </trkpt>
      <trkpt lat="43.52252" lon="6.3677">
        <ele>263</ele>
        <time>2026-05-27T08:26:56Z</time>
      </trkpt>
      <trkpt lat="43.5225" lon="6.36771">
        <ele>263</ele>
        <time>2026-05-27T08:26:58Z</time>
      </trkpt>
      <trkpt lat="43.52247" lon="6.36772">
        <ele>264</ele>
        <time>2026-05-27T08:27:00Z</time>
      </trkpt>
      <trkpt lat="43.52244" lon="6.36772">
        <ele>264</ele>
        <time>2026-05-27T08:27:02Z</time>
      </trkpt>
      <trkpt lat="43.52241" lon="6.36771">
        <ele>264</ele>
        <time>2026-05-27T08:27:04Z</time>
      </trkpt>
      <trkpt lat="43.52239" lon="6.3677">
        <ele>264</ele>
        <time>2026-05-27T08:27:06Z</time>
      </trkpt>
      <trkpt lat="43.52233" lon="6.36767">
        <ele>264</ele>
        <time>2026-05-27T08:27:10Z</time>
      </trkpt>
      <trkpt lat="43.52231" lon="6.36765">
        <ele>264</ele>
        <time>2026-05-27T08:27:12Z</time>
      </trkpt>
      <trkpt lat="43.52225" lon="6.36762">
        <ele>263</ele>
        <time>2026-05-27T08:27:18Z</time>
      </trkpt>
      <trkpt lat="43.52223" lon="6.36762">
        <ele>262</ele>
        <time>2026-05-27T08:27:20Z</time>
      </trkpt>
      <trkpt lat="43.52221" lon="6.36761">
        <ele>262</ele>
        <time>2026-05-27T08:27:22Z</time>
      </trkpt>
      <trkpt lat="43.52219" lon="6.36759">
        <ele>261</ele>
        <time>2026-05-27T08:27:26Z</time>
      </trkpt>
      <trkpt lat="43.52218" lon="6.36757">
        <ele>261</ele>
        <time>2026-05-27T08:27:30Z</time>
      </trkpt>
      <trkpt lat="43.52217" lon="6.36751">
        <ele>259</ele>
        <time>2026-05-27T08:27:38Z</time>
      </trkpt>
      <trkpt lat="43.52214" lon="6.36748">
        <ele>258</ele>
        <time>2026-05-27T08:27:42Z</time>
      </trkpt>
      <trkpt lat="43.52212" lon="6.36748">
        <ele>258</ele>
        <time>2026-05-27T08:27:44Z</time>
      </trkpt>
      <trkpt lat="43.52212" lon="6.36744">
        <ele>258</ele>
        <time>2026-05-27T08:27:58Z</time>
      </trkpt>
      <trkpt lat="43.5221" lon="6.36742">
        <ele>257</ele>
        <time>2026-05-27T08:28:00Z</time>
      </trkpt>
      <trkpt lat="43.52206" lon="6.36741">
        <ele>258</ele>
        <time>2026-05-27T08:28:04Z</time>
      </trkpt>
      <trkpt lat="43.52202" lon="6.36739">
        <ele>258</ele>
        <time>2026-05-27T08:28:08Z</time>
      </trkpt>
      <trkpt lat="43.52201" lon="6.36738">
        <ele>258</ele>
        <time>2026-05-27T08:28:10Z</time>
      </trkpt>
      <trkpt lat="43.52199" lon="6.36738">
        <ele>258</ele>
        <time>2026-05-27T08:28:14Z</time>
      </trkpt>
      <trkpt lat="43.52196" lon="6.36735">
        <ele>258</ele>
        <time>2026-05-27T08:28:26Z</time>
      </trkpt>
      <trkpt lat="43.52194" lon="6.36735">
        <ele>259</ele>
        <time>2026-05-27T08:28:36Z</time>
      </trkpt>
      <trkpt lat="43.52191" lon="6.36734">
        <ele>259</ele>
        <time>2026-05-27T08:28:40Z</time>
      </trkpt>
      <trkpt lat="43.52185" lon="6.36733">
        <ele>259</ele>
        <time>2026-05-27T08:28:46Z</time>
      </trkpt>
      <trkpt lat="43.52183" lon="6.36732">
        <ele>259</ele>
        <time>2026-05-27T08:28:50Z</time>
      </trkpt>
      <trkpt lat="43.52179" lon="6.36731">
        <ele>259</ele>
        <time>2026-05-27T08:28:54Z</time>
      </trkpt>
      <trkpt lat="43.52178" lon="6.36732">
        <ele>259</ele>
        <time>2026-05-27T08:28:56Z</time>
      </trkpt>
      <trkpt lat="43.52175" lon="6.36733">
        <ele>259</ele>
        <time>2026-05-27T08:28:58Z</time>
      </trkpt>
      <trkpt lat="43.52169" lon="6.36734">
        <ele>259</ele>
        <time>2026-05-27T08:29:04Z</time>
      </trkpt>
      <trkpt lat="43.52161" lon="6.3673">
        <ele>259</ele>
        <time>2026-05-27T08:29:08Z</time>
      </trkpt>
      <trkpt lat="43.52158" lon="6.36729">
        <ele>259</ele>
        <time>2026-05-27T08:29:10Z</time>
      </trkpt>
      <trkpt lat="43.52154" lon="6.36729">
        <ele>259</ele>
        <time>2026-05-27T08:29:14Z</time>
      </trkpt>
      <trkpt lat="43.52152" lon="6.36729">
        <ele>259</ele>
        <time>2026-05-27T08:29:16Z</time>
      </trkpt>
      <trkpt lat="43.52148" lon="6.36729">
        <ele>259</ele>
        <time>2026-05-27T08:29:20Z</time>
      </trkpt>
      <trkpt lat="43.52138" lon="6.36727">
        <ele>259</ele>
        <time>2026-05-27T08:29:30Z</time>
      </trkpt>
      <trkpt lat="43.52136" lon="6.36727">
        <ele>258</ele>
        <time>2026-05-27T08:29:32Z</time>
      </trkpt>
      <trkpt lat="43.52134" lon="6.36727">
        <ele>258</ele>
        <time>2026-05-27T08:29:34Z</time>
      </trkpt>
      <trkpt lat="43.52131" lon="6.36727">
        <ele>258</ele>
        <time>2026-05-27T08:29:36Z</time>
      </trkpt>
      <trkpt lat="43.52125" lon="6.36727">
        <ele>257</ele>
        <time>2026-05-27T08:29:40Z</time>
      </trkpt>
      <trkpt lat="43.52122" lon="6.36725">
        <ele>257</ele>
        <time>2026-05-27T08:29:42Z</time>
      </trkpt>
      <trkpt lat="43.52118" lon="6.36723">
        <ele>256</ele>
        <time>2026-05-27T08:29:46Z</time>
      </trkpt>
      <trkpt lat="43.52116" lon="6.36723">
        <ele>256</ele>
        <time>2026-05-27T08:29:48Z</time>
      </trkpt>
      <trkpt lat="43.52114" lon="6.36721">
        <ele>256</ele>
        <time>2026-05-27T08:29:50Z</time>
      </trkpt>
      <trkpt lat="43.52111" lon="6.3672">
        <ele>256</ele>
        <time>2026-05-27T08:29:52Z</time>
      </trkpt>
      <trkpt lat="43.52109" lon="6.3672">
        <ele>255</ele>
        <time>2026-05-27T08:29:54Z</time>
      </trkpt>
      <trkpt lat="43.52103" lon="6.36717">
        <ele>254</ele>
        <time>2026-05-27T08:30:00Z</time>
      </trkpt>
      <trkpt lat="43.521" lon="6.36717">
        <ele>254</ele>
        <time>2026-05-27T08:30:02Z</time>
      </trkpt>
      <trkpt lat="43.52097" lon="6.36716">
        <ele>254</ele>
        <time>2026-05-27T08:30:04Z</time>
      </trkpt>
      <trkpt lat="43.52091" lon="6.3671">
        <ele>253</ele>
        <time>2026-05-27T08:30:12Z</time>
      </trkpt>
      <trkpt lat="43.52082" lon="6.36707">
        <ele>251</ele>
        <time>2026-05-27T08:30:22Z</time>
      </trkpt>
      <trkpt lat="43.5208" lon="6.36707">
        <ele>251</ele>
        <time>2026-05-27T08:30:24Z</time>
      </trkpt>
      <trkpt lat="43.52072" lon="6.36703">
        <ele>250</ele>
        <time>2026-05-27T08:30:30Z</time>
      </trkpt>
      <trkpt lat="43.52067" lon="6.367">
        <ele>249</ele>
        <time>2026-05-27T08:30:34Z</time>
      </trkpt>
      <trkpt lat="43.52057" lon="6.36694">
        <ele>248</ele>
        <time>2026-05-27T08:30:42Z</time>
      </trkpt>
      <trkpt lat="43.52054" lon="6.36692">
        <ele>248</ele>
        <time>2026-05-27T08:30:46Z</time>
      </trkpt>
      <trkpt lat="43.5205" lon="6.36689">
        <ele>248</ele>
        <time>2026-05-27T08:30:50Z</time>
      </trkpt>
      <trkpt lat="43.52043" lon="6.36689">
        <ele>248</ele>
        <time>2026-05-27T08:30:56Z</time>
      </trkpt>
      <trkpt lat="43.52041" lon="6.36689">
        <ele>248</ele>
        <time>2026-05-27T08:30:58Z</time>
      </trkpt>
      <trkpt lat="43.52039" lon="6.3669">
        <ele>247</ele>
        <time>2026-05-27T08:31:00Z</time>
      </trkpt>
      <trkpt lat="43.52031" lon="6.36697">
        <ele>247</ele>
        <time>2026-05-27T08:31:06Z</time>
      </trkpt>
      <trkpt lat="43.52026" lon="6.36698">
        <ele>246</ele>
        <time>2026-05-27T08:31:12Z</time>
      </trkpt>
      <trkpt lat="43.52019" lon="6.36702">
        <ele>246</ele>
        <time>2026-05-27T08:31:18Z</time>
      </trkpt>
      <trkpt lat="43.52017" lon="6.36701">
        <ele>246</ele>
        <time>2026-05-27T08:31:20Z</time>
      </trkpt>
      <trkpt lat="43.52014" lon="6.36699">
        <ele>246</ele>
        <time>2026-05-27T08:31:22Z</time>
      </trkpt>
      <trkpt lat="43.52007" lon="6.36691">
        <ele>246</ele>
        <time>2026-05-27T08:31:28Z</time>
      </trkpt>
      <trkpt lat="43.52002" lon="6.36686">
        <ele>245</ele>
        <time>2026-05-27T08:31:32Z</time>
      </trkpt>
      <trkpt lat="43.52" lon="6.36684">
        <ele>245</ele>
        <time>2026-05-27T08:31:34Z</time>
      </trkpt>
      <trkpt lat="43.51998" lon="6.36685">
        <ele>245</ele>
        <time>2026-05-27T08:31:36Z</time>
      </trkpt>
      <trkpt lat="43.51979" lon="6.36697">
        <ele>244</ele>
        <time>2026-05-27T08:31:52Z</time>
      </trkpt>
      <trkpt lat="43.51977" lon="6.36699">
        <ele>244</ele>
        <time>2026-05-27T08:31:54Z</time>
      </trkpt>
      <trkpt lat="43.51973" lon="6.36701">
        <ele>244</ele>
        <time>2026-05-27T08:31:58Z</time>
      </trkpt>
      <trkpt lat="43.51966" lon="6.367">
        <ele>244</ele>
        <time>2026-05-27T08:32:04Z</time>
      </trkpt>
      <trkpt lat="43.51964" lon="6.36701">
        <ele>244</ele>
        <time>2026-05-27T08:32:06Z</time>
      </trkpt>
      <trkpt lat="43.51961" lon="6.36701">
        <ele>244</ele>
        <time>2026-05-27T08:32:08Z</time>
      </trkpt>
      <trkpt lat="43.51956" lon="6.36701">
        <ele>244</ele>
        <time>2026-05-27T08:32:12Z</time>
      </trkpt>
      <trkpt lat="43.51953" lon="6.36701">
        <ele>244</ele>
        <time>2026-05-27T08:32:16Z</time>
      </trkpt>
      <trkpt lat="43.51951" lon="6.36702">
        <ele>244</ele>
        <time>2026-05-27T08:32:18Z</time>
      </trkpt>
      <trkpt lat="43.51948" lon="6.36702">
        <ele>244</ele>
        <time>2026-05-27T08:32:20Z</time>
      </trkpt>
      <trkpt lat="43.51946" lon="6.36703">
        <ele>244</ele>
        <time>2026-05-27T08:32:22Z</time>
      </trkpt>
      <trkpt lat="43.51927" lon="6.36706">
        <ele>244</ele>
        <time>2026-05-27T08:32:38Z</time>
      </trkpt>
      <trkpt lat="43.51925" lon="6.36707">
        <ele>244</ele>
        <time>2026-05-27T08:32:40Z</time>
      </trkpt>
      <trkpt lat="43.51917" lon="6.36709">
        <ele>243</ele>
        <time>2026-05-27T08:32:46Z</time>
      </trkpt>
      <trkpt lat="43.51913" lon="6.3671">
        <ele>243</ele>
        <time>2026-05-27T08:32:50Z</time>
      </trkpt>
      <trkpt lat="43.5191" lon="6.36709">
        <ele>243</ele>
        <time>2026-05-27T08:32:52Z</time>
      </trkpt>
      <trkpt lat="43.51908" lon="6.36708">
        <ele>243</ele>
        <time>2026-05-27T08:32:54Z</time>
      </trkpt>
      <trkpt lat="43.51903" lon="6.36705">
        <ele>243</ele>
        <time>2026-05-27T08:33:00Z</time>
      </trkpt>
      <trkpt lat="43.51901" lon="6.36705">
        <ele>243</ele>
        <time>2026-05-27T08:33:02Z</time>
      </trkpt>
      <trkpt lat="43.51899" lon="6.36704">
        <ele>244</ele>
        <time>2026-05-27T08:33:06Z</time>
      </trkpt>
      <trkpt lat="43.51908" lon="6.36697">
        <ele>246</ele>
        <time>2026-05-27T08:33:24Z</time>
      </trkpt>
      <trkpt lat="43.51905" lon="6.36704">
        <ele>248</ele>
        <time>2026-05-27T08:33:34Z</time>
      </trkpt>
      <trkpt lat="43.51903" lon="6.36705">
        <ele>249</ele>
        <time>2026-05-27T08:33:38Z</time>
      </trkpt>
      <trkpt lat="43.51902" lon="6.36702">
        <ele>250</ele>
        <time>2026-05-27T08:33:44Z</time>
      </trkpt>
      <trkpt lat="43.51905" lon="6.36698">
        <ele>253</ele>
        <time>2026-05-27T08:34:20Z</time>
      </trkpt>
      <trkpt lat="43.51906" lon="6.36702">
        <ele>256</ele>
        <time>2026-05-27T08:35:20Z</time>
      </trkpt>
      <trkpt lat="43.51908" lon="6.36693">
        <ele>258</ele>
        <time>2026-05-27T08:35:30Z</time>
      </trkpt>
      <trkpt lat="43.5191" lon="6.36686">
        <ele>259</ele>
        <time>2026-05-27T08:35:36Z</time>
      </trkpt>
      <trkpt lat="43.51911" lon="6.36682">
        <ele>259</ele>
        <time>2026-05-27T08:35:40Z</time>
      </trkpt>
      <trkpt lat="43.51915" lon="6.36678">
        <ele>258</ele>
        <time>2026-05-27T08:35:46Z</time>
      </trkpt>
      <trkpt lat="43.51917" lon="6.36676">
        <ele>257</ele>
        <time>2026-05-27T08:35:48Z</time>
      </trkpt>
      <trkpt lat="43.51919" lon="6.36667">
        <ele>256</ele>
        <time>2026-05-27T08:35:56Z</time>
      </trkpt>
      <trkpt lat="43.5192" lon="6.36664">
        <ele>256</ele>
        <time>2026-05-27T08:36:00Z</time>
      </trkpt>
      <trkpt lat="43.51922" lon="6.3666">
        <ele>255</ele>
        <time>2026-05-27T08:36:04Z</time>
      </trkpt>
      <trkpt lat="43.51922" lon="6.36658">
        <ele>255</ele>
        <time>2026-05-27T08:36:06Z</time>
      </trkpt>
      <trkpt lat="43.51924" lon="6.36653">
        <ele>255</ele>
        <time>2026-05-27T08:36:10Z</time>
      </trkpt>
      <trkpt lat="43.51927" lon="6.36643">
        <ele>255</ele>
        <time>2026-05-27T08:36:20Z</time>
      </trkpt>
      <trkpt lat="43.51929" lon="6.36641">
        <ele>255</ele>
        <time>2026-05-27T08:36:22Z</time>
      </trkpt>
      <trkpt lat="43.5193" lon="6.36639">
        <ele>255</ele>
        <time>2026-05-27T08:36:24Z</time>
      </trkpt>
      <trkpt lat="43.51937" lon="6.36639">
        <ele>255</ele>
        <time>2026-05-27T08:36:30Z</time>
      </trkpt>
      <trkpt lat="43.5194" lon="6.36637">
        <ele>255</ele>
        <time>2026-05-27T08:36:32Z</time>
      </trkpt>
      <trkpt lat="43.51943" lon="6.36636">
        <ele>255</ele>
        <time>2026-05-27T08:36:34Z</time>
      </trkpt>
      <trkpt lat="43.51944" lon="6.36634">
        <ele>256</ele>
        <time>2026-05-27T08:36:36Z</time>
      </trkpt>
      <trkpt lat="43.51945" lon="6.36629">
        <ele>255</ele>
        <time>2026-05-27T08:36:40Z</time>
      </trkpt>
      <trkpt lat="43.51942" lon="6.36626">
        <ele>255</ele>
        <time>2026-05-27T08:36:44Z</time>
      </trkpt>
      <trkpt lat="43.5194" lon="6.36625">
        <ele>255</ele>
        <time>2026-05-27T08:36:48Z</time>
      </trkpt>
      <trkpt lat="43.51937" lon="6.36622">
        <ele>255</ele>
        <time>2026-05-27T08:36:52Z</time>
      </trkpt>
      <trkpt lat="43.51936" lon="6.3662">
        <ele>255</ele>
        <time>2026-05-27T08:36:56Z</time>
      </trkpt>
      <trkpt lat="43.51934" lon="6.36617">
        <ele>256</ele>
        <time>2026-05-27T08:37:02Z</time>
      </trkpt>
      <trkpt lat="43.51933" lon="6.36611">
        <ele>256</ele>
        <time>2026-05-27T08:37:06Z</time>
      </trkpt>
      <trkpt lat="43.51931" lon="6.36604">
        <ele>258</ele>
        <time>2026-05-27T08:37:10Z</time>
      </trkpt>
      <trkpt lat="43.51931" lon="6.36601">
        <ele>258</ele>
        <time>2026-05-27T08:37:12Z</time>
      </trkpt>
      <trkpt lat="43.51933" lon="6.366">
        <ele>259</ele>
        <time>2026-05-27T08:37:18Z</time>
      </trkpt>
      <trkpt lat="43.51936" lon="6.36599">
        <ele>259</ele>
        <time>2026-05-27T08:37:20Z</time>
      </trkpt>
      <trkpt lat="43.51938" lon="6.36598">
        <ele>260</ele>
        <time>2026-05-27T08:37:22Z</time>
      </trkpt>
      <trkpt lat="43.5194" lon="6.36595">
        <ele>261</ele>
        <time>2026-05-27T08:37:26Z</time>
      </trkpt>
      <trkpt lat="43.5194" lon="6.36592">
        <ele>261</ele>
        <time>2026-05-27T08:37:30Z</time>
      </trkpt>
      <trkpt lat="43.5194" lon="6.36585">
        <ele>262</ele>
        <time>2026-05-27T08:37:38Z</time>
      </trkpt>
      <trkpt lat="43.51939" lon="6.36582">
        <ele>263</ele>
        <time>2026-05-27T08:37:42Z</time>
      </trkpt>
      <trkpt lat="43.51938" lon="6.36577">
        <ele>263</ele>
        <time>2026-05-27T08:37:46Z</time>
      </trkpt>
      <trkpt lat="43.51938" lon="6.36563">
        <ele>264</ele>
        <time>2026-05-27T08:37:58Z</time>
      </trkpt>
      <trkpt lat="43.51938" lon="6.36559">
        <ele>264</ele>
        <time>2026-05-27T08:38:00Z</time>
      </trkpt>
      <trkpt lat="43.51935" lon="6.36552">
        <ele>264</ele>
        <time>2026-05-27T08:38:08Z</time>
      </trkpt>
      <trkpt lat="43.51933" lon="6.36549">
        <ele>263</ele>
        <time>2026-05-27T08:38:12Z</time>
      </trkpt>
      <trkpt lat="43.51932" lon="6.36544">
        <ele>263</ele>
        <time>2026-05-27T08:38:16Z</time>
      </trkpt>
      <trkpt lat="43.51931" lon="6.36543">
        <ele>263</ele>
        <time>2026-05-27T08:38:18Z</time>
      </trkpt>
      <trkpt lat="43.51929" lon="6.36542">
        <ele>263</ele>
        <time>2026-05-27T08:38:20Z</time>
      </trkpt>
      <trkpt lat="43.5192" lon="6.36535">
        <ele>263</ele>
        <time>2026-05-27T08:38:30Z</time>
      </trkpt>
      <trkpt lat="43.51916" lon="6.36535">
        <ele>263</ele>
        <time>2026-05-27T08:38:34Z</time>
      </trkpt>
      <trkpt lat="43.51913" lon="6.36534">
        <ele>264</ele>
        <time>2026-05-27T08:38:36Z</time>
      </trkpt>
      <trkpt lat="43.51909" lon="6.36532">
        <ele>264</ele>
        <time>2026-05-27T08:38:40Z</time>
      </trkpt>
      <trkpt lat="43.51907" lon="6.36531">
        <ele>264</ele>
        <time>2026-05-27T08:38:42Z</time>
      </trkpt>
      <trkpt lat="43.51905" lon="6.3653">
        <ele>264</ele>
        <time>2026-05-27T08:38:44Z</time>
      </trkpt>
      <trkpt lat="43.51902" lon="6.36526">
        <ele>264</ele>
        <time>2026-05-27T08:38:48Z</time>
      </trkpt>
      <trkpt lat="43.51901" lon="6.36524">
        <ele>264</ele>
        <time>2026-05-27T08:38:50Z</time>
      </trkpt>
      <trkpt lat="43.51894" lon="6.36516">
        <ele>264</ele>
        <time>2026-05-27T08:39:00Z</time>
      </trkpt>
      <trkpt lat="43.51888" lon="6.36511">
        <ele>264</ele>
        <time>2026-05-27T08:39:04Z</time>
      </trkpt>
      <trkpt lat="43.51884" lon="6.36506">
        <ele>264</ele>
        <time>2026-05-27T08:39:08Z</time>
      </trkpt>
      <trkpt lat="43.51882" lon="6.36504">
        <ele>264</ele>
        <time>2026-05-27T08:39:12Z</time>
      </trkpt>
      <trkpt lat="43.51879" lon="6.36502">
        <ele>264</ele>
        <time>2026-05-27T08:39:16Z</time>
      </trkpt>
      <trkpt lat="43.51877" lon="6.365">
        <ele>265</ele>
        <time>2026-05-27T08:39:18Z</time>
      </trkpt>
      <trkpt lat="43.51875" lon="6.36498">
        <ele>265</ele>
        <time>2026-05-27T08:39:20Z</time>
      </trkpt>
      <trkpt lat="43.51869" lon="6.36493">
        <ele>265</ele>
        <time>2026-05-27T08:39:26Z</time>
      </trkpt>
      <trkpt lat="43.51866" lon="6.36492">
        <ele>266</ele>
        <time>2026-05-27T08:39:30Z</time>
      </trkpt>
      <trkpt lat="43.51864" lon="6.36491">
        <ele>266</ele>
        <time>2026-05-27T08:39:34Z</time>
      </trkpt>
      <trkpt lat="43.51863" lon="6.36486">
        <ele>268</ele>
        <time>2026-05-27T08:40:02Z</time>
      </trkpt>
      <trkpt lat="43.51862" lon="6.36483">
        <ele>269</ele>
        <time>2026-05-27T08:40:20Z</time>
      </trkpt>
      <trkpt lat="43.5186" lon="6.36481">
        <ele>270</ele>
        <time>2026-05-27T08:40:22Z</time>
      </trkpt>
      <trkpt lat="43.51859" lon="6.36479">
        <ele>270</ele>
        <time>2026-05-27T08:40:24Z</time>
      </trkpt>
      <trkpt lat="43.51857" lon="6.36476">
        <ele>270</ele>
        <time>2026-05-27T08:40:28Z</time>
      </trkpt>
      <trkpt lat="43.51856" lon="6.36474">
        <ele>270</ele>
        <time>2026-05-27T08:40:30Z</time>
      </trkpt>
      <trkpt lat="43.51859" lon="6.36457">
        <ele>269</ele>
        <time>2026-05-27T08:40:44Z</time>
      </trkpt>
      <trkpt lat="43.51857" lon="6.36457">
        <ele>269</ele>
        <time>2026-05-27T08:40:46Z</time>
      </trkpt>
      <trkpt lat="43.51854" lon="6.36458">
        <ele>269</ele>
        <time>2026-05-27T08:40:50Z</time>
      </trkpt>
      <trkpt lat="43.51852" lon="6.36459">
        <ele>269</ele>
        <time>2026-05-27T08:40:52Z</time>
      </trkpt>
      <trkpt lat="43.51843" lon="6.36461">
        <ele>269</ele>
        <time>2026-05-27T08:41:02Z</time>
      </trkpt>
      <trkpt lat="43.51831" lon="6.36461">
        <ele>267</ele>
        <time>2026-05-27T08:41:12Z</time>
      </trkpt>
      <trkpt lat="43.51827" lon="6.36456">
        <ele>267</ele>
        <time>2026-05-27T08:41:18Z</time>
      </trkpt>
      <trkpt lat="43.51823" lon="6.36453">
        <ele>266</ele>
        <time>2026-05-27T08:41:22Z</time>
      </trkpt>
      <trkpt lat="43.51817" lon="6.36453">
        <ele>266</ele>
        <time>2026-05-27T08:41:26Z</time>
      </trkpt>
      <trkpt lat="43.51815" lon="6.36453">
        <ele>266</ele>
        <time>2026-05-27T08:41:28Z</time>
      </trkpt>
      <trkpt lat="43.51812" lon="6.36454">
        <ele>266</ele>
        <time>2026-05-27T08:41:30Z</time>
      </trkpt>
      <trkpt lat="43.5179" lon="6.36454">
        <ele>264</ele>
        <time>2026-05-27T08:41:50Z</time>
      </trkpt>
      <trkpt lat="43.51787" lon="6.36453">
        <ele>263</ele>
        <time>2026-05-27T08:41:54Z</time>
      </trkpt>
      <trkpt lat="43.51783" lon="6.36451">
        <ele>264</ele>
        <time>2026-05-27T08:41:58Z</time>
      </trkpt>
      <trkpt lat="43.51781" lon="6.3645">
        <ele>264</ele>
        <time>2026-05-27T08:42:02Z</time>
      </trkpt>
      <trkpt lat="43.51779" lon="6.36448">
        <ele>264</ele>
        <time>2026-05-27T08:42:04Z</time>
      </trkpt>
      <trkpt lat="43.51774" lon="6.36444">
        <ele>264</ele>
        <time>2026-05-27T08:42:08Z</time>
      </trkpt>
      <trkpt lat="43.51772" lon="6.36441">
        <ele>264</ele>
        <time>2026-05-27T08:42:10Z</time>
      </trkpt>
      <trkpt lat="43.51768" lon="6.36437">
        <ele>265</ele>
        <time>2026-05-27T08:42:14Z</time>
      </trkpt>
      <trkpt lat="43.51766" lon="6.36436">
        <ele>265</ele>
        <time>2026-05-27T08:42:16Z</time>
      </trkpt>
      <trkpt lat="43.51764" lon="6.36434">
        <ele>266</ele>
        <time>2026-05-27T08:42:18Z</time>
      </trkpt>
      <trkpt lat="43.51762" lon="6.36433">
        <ele>266</ele>
        <time>2026-05-27T08:42:20Z</time>
      </trkpt>
      <trkpt lat="43.5176" lon="6.36431">
        <ele>266</ele>
        <time>2026-05-27T08:42:22Z</time>
      </trkpt>
      <trkpt lat="43.51757" lon="6.36428">
        <ele>266</ele>
        <time>2026-05-27T08:42:26Z</time>
      </trkpt>
      <trkpt lat="43.51754" lon="6.36427">
        <ele>266</ele>
        <time>2026-05-27T08:42:28Z</time>
      </trkpt>
      <trkpt lat="43.51752" lon="6.36427">
        <ele>267</ele>
        <time>2026-05-27T08:42:30Z</time>
      </trkpt>
      <trkpt lat="43.51748" lon="6.36423">
        <ele>268</ele>
        <time>2026-05-27T08:42:34Z</time>
      </trkpt>
      <trkpt lat="43.51745" lon="6.36421">
        <ele>268</ele>
        <time>2026-05-27T08:42:36Z</time>
      </trkpt>
      <trkpt lat="43.51743" lon="6.36419">
        <ele>268</ele>
        <time>2026-05-27T08:42:38Z</time>
      </trkpt>
      <trkpt lat="43.51741" lon="6.36418">
        <ele>269</ele>
        <time>2026-05-27T08:42:40Z</time>
      </trkpt>
      <trkpt lat="43.51738" lon="6.36417">
        <ele>269</ele>
        <time>2026-05-27T08:42:42Z</time>
      </trkpt>
      <trkpt lat="43.51734" lon="6.36414">
        <ele>270</ele>
        <time>2026-05-27T08:42:46Z</time>
      </trkpt>
      <trkpt lat="43.51731" lon="6.3641">
        <ele>270</ele>
        <time>2026-05-27T08:42:50Z</time>
      </trkpt>
      <trkpt lat="43.51728" lon="6.36406">
        <ele>270</ele>
        <time>2026-05-27T08:42:54Z</time>
      </trkpt>
      <trkpt lat="43.51726" lon="6.36404">
        <ele>270</ele>
        <time>2026-05-27T08:42:56Z</time>
      </trkpt>
      <trkpt lat="43.51724" lon="6.36403">
        <ele>270</ele>
        <time>2026-05-27T08:42:58Z</time>
      </trkpt>
      <trkpt lat="43.51721" lon="6.36401">
        <ele>270</ele>
        <time>2026-05-27T08:43:00Z</time>
      </trkpt>
      <trkpt lat="43.51719" lon="6.36399">
        <ele>271</ele>
        <time>2026-05-27T08:43:02Z</time>
      </trkpt>
      <trkpt lat="43.51717" lon="6.36398">
        <ele>271</ele>
        <time>2026-05-27T08:43:04Z</time>
      </trkpt>
      <trkpt lat="43.51709" lon="6.36389">
        <ele>271</ele>
        <time>2026-05-27T08:43:12Z</time>
      </trkpt>
      <trkpt lat="43.51704" lon="6.36384">
        <ele>272</ele>
        <time>2026-05-27T08:43:18Z</time>
      </trkpt>
      <trkpt lat="43.51701" lon="6.36378">
        <ele>272</ele>
        <time>2026-05-27T08:43:24Z</time>
      </trkpt>
      <trkpt lat="43.517" lon="6.36376">
        <ele>271</ele>
        <time>2026-05-27T08:43:26Z</time>
      </trkpt>
      <trkpt lat="43.51699" lon="6.36373">
        <ele>271</ele>
        <time>2026-05-27T08:43:28Z</time>
      </trkpt>
      <trkpt lat="43.51699" lon="6.36371">
        <ele>271</ele>
        <time>2026-05-27T08:43:30Z</time>
      </trkpt>
      <trkpt lat="43.51698" lon="6.36368">
        <ele>271</ele>
        <time>2026-05-27T08:43:32Z</time>
      </trkpt>
      <trkpt lat="43.51696" lon="6.36365">
        <ele>271</ele>
        <time>2026-05-27T08:43:34Z</time>
      </trkpt>
      <trkpt lat="43.51695" lon="6.36363">
        <ele>271</ele>
        <time>2026-05-27T08:43:36Z</time>
      </trkpt>
      <trkpt lat="43.51692" lon="6.36358">
        <ele>272</ele>
        <time>2026-05-27T08:43:40Z</time>
      </trkpt>
      <trkpt lat="43.51691" lon="6.36355">
        <ele>272</ele>
        <time>2026-05-27T08:43:42Z</time>
      </trkpt>
      <trkpt lat="43.5169" lon="6.36352">
        <ele>272</ele>
        <time>2026-05-27T08:43:44Z</time>
      </trkpt>
      <trkpt lat="43.51689" lon="6.3635">
        <ele>273</ele>
        <time>2026-05-27T08:43:46Z</time>
      </trkpt>
      <trkpt lat="43.51687" lon="6.36348">
        <ele>273</ele>
        <time>2026-05-27T08:43:48Z</time>
      </trkpt>
      <trkpt lat="43.51685" lon="6.36346">
        <ele>273</ele>
        <time>2026-05-27T08:43:50Z</time>
      </trkpt>
      <trkpt lat="43.51681" lon="6.36342">
        <ele>273</ele>
        <time>2026-05-27T08:43:54Z</time>
      </trkpt>
      <trkpt lat="43.51679" lon="6.3634">
        <ele>273</ele>
        <time>2026-05-27T08:43:56Z</time>
      </trkpt>
      <trkpt lat="43.51665" lon="6.36332">
        <ele>275</ele>
        <time>2026-05-27T08:44:08Z</time>
      </trkpt>
      <trkpt lat="43.51655" lon="6.36329">
        <ele>275</ele>
        <time>2026-05-27T08:44:14Z</time>
      </trkpt>
      <trkpt lat="43.51653" lon="6.36329">
        <ele>276</ele>
        <time>2026-05-27T08:44:16Z</time>
      </trkpt>
      <trkpt lat="43.51651" lon="6.36329">
        <ele>276</ele>
        <time>2026-05-27T08:44:18Z</time>
      </trkpt>
      <trkpt lat="43.51648" lon="6.36326">
        <ele>277</ele>
        <time>2026-05-27T08:44:22Z</time>
      </trkpt>
      <trkpt lat="43.51645" lon="6.36324">
        <ele>277</ele>
        <time>2026-05-27T08:44:24Z</time>
      </trkpt>
      <trkpt lat="43.51643" lon="6.36322">
        <ele>278</ele>
        <time>2026-05-27T08:44:26Z</time>
      </trkpt>
      <trkpt lat="43.51642" lon="6.36319">
        <ele>278</ele>
        <time>2026-05-27T08:44:28Z</time>
      </trkpt>
      <trkpt lat="43.5164" lon="6.36317">
        <ele>278</ele>
        <time>2026-05-27T08:44:30Z</time>
      </trkpt>
      <trkpt lat="43.51637" lon="6.36317">
        <ele>278</ele>
        <time>2026-05-27T08:44:36Z</time>
      </trkpt>
      <trkpt lat="43.51632" lon="6.36319">
        <ele>279</ele>
        <time>2026-05-27T08:44:40Z</time>
      </trkpt>
      <trkpt lat="43.5163" lon="6.36317">
        <ele>279</ele>
        <time>2026-05-27T08:44:44Z</time>
      </trkpt>
      <trkpt lat="43.51629" lon="6.36313">
        <ele>279</ele>
        <time>2026-05-27T08:44:48Z</time>
      </trkpt>
      <trkpt lat="43.51628" lon="6.36312">
        <ele>280</ele>
        <time>2026-05-27T08:44:50Z</time>
      </trkpt>
      <trkpt lat="43.51624" lon="6.36313">
        <ele>280</ele>
        <time>2026-05-27T08:44:54Z</time>
      </trkpt>
      <trkpt lat="43.51622" lon="6.36311">
        <ele>280</ele>
        <time>2026-05-27T08:45:01Z</time>
      </trkpt>
      <trkpt lat="43.51609" lon="6.36297">
        <ele>282</ele>
        <time>2026-05-27T08:45:13Z</time>
      </trkpt>
      <trkpt lat="43.51607" lon="6.36296">
        <ele>282</ele>
        <time>2026-05-27T08:45:15Z</time>
      </trkpt>
      <trkpt lat="43.51604" lon="6.36296">
        <ele>282</ele>
        <time>2026-05-27T08:45:17Z</time>
      </trkpt>
      <trkpt lat="43.51602" lon="6.36291">
        <ele>279</ele>
        <time>2026-05-27T08:45:21Z</time>
      </trkpt>
      <trkpt lat="43.516" lon="6.3629">
        <ele>278</ele>
        <time>2026-05-27T08:45:23Z</time>
      </trkpt>
      <trkpt lat="43.51597" lon="6.36289">
        <ele>277</ele>
        <time>2026-05-27T08:45:25Z</time>
      </trkpt>
      <trkpt lat="43.51588" lon="6.36288">
        <ele>276</ele>
        <time>2026-05-27T08:45:31Z</time>
      </trkpt>
      <trkpt lat="43.51587" lon="6.36286">
        <ele>275</ele>
        <time>2026-05-27T08:45:33Z</time>
      </trkpt>
      <trkpt lat="43.51585" lon="6.36282">
        <ele>275</ele>
        <time>2026-05-27T08:45:37Z</time>
      </trkpt>
      <trkpt lat="43.51584" lon="6.36278">
        <ele>275</ele>
        <time>2026-05-27T08:45:39Z</time>
      </trkpt>
      <trkpt lat="43.51582" lon="6.36276">
        <ele>275</ele>
        <time>2026-05-27T08:45:41Z</time>
      </trkpt>
      <trkpt lat="43.51581" lon="6.36274">
        <ele>275</ele>
        <time>2026-05-27T08:45:43Z</time>
      </trkpt>
      <trkpt lat="43.51578" lon="6.36273">
        <ele>275</ele>
        <time>2026-05-27T08:45:45Z</time>
      </trkpt>
      <trkpt lat="43.51575" lon="6.3627">
        <ele>275</ele>
        <time>2026-05-27T08:45:49Z</time>
      </trkpt>
      <trkpt lat="43.51575" lon="6.36267">
        <ele>275</ele>
        <time>2026-05-27T08:45:51Z</time>
      </trkpt>
      <trkpt lat="43.51573" lon="6.36265">
        <ele>275</ele>
        <time>2026-05-27T08:45:53Z</time>
      </trkpt>
      <trkpt lat="43.5157" lon="6.36263">
        <ele>276</ele>
        <time>2026-05-27T08:45:55Z</time>
      </trkpt>
      <trkpt lat="43.51568" lon="6.3626">
        <ele>276</ele>
        <time>2026-05-27T08:45:57Z</time>
      </trkpt>
      <trkpt lat="43.51566" lon="6.36259">
        <ele>276</ele>
        <time>2026-05-27T08:45:59Z</time>
      </trkpt>
      <trkpt lat="43.51564" lon="6.36249">
        <ele>277</ele>
        <time>2026-05-27T08:46:05Z</time>
      </trkpt>
      <trkpt lat="43.51561" lon="6.36243">
        <ele>277</ele>
        <time>2026-05-27T08:46:09Z</time>
      </trkpt>
      <trkpt lat="43.51561" lon="6.3624">
        <ele>277</ele>
        <time>2026-05-27T08:46:11Z</time>
      </trkpt>
      <trkpt lat="43.51558" lon="6.36231">
        <ele>276</ele>
        <time>2026-05-27T08:46:17Z</time>
      </trkpt>
      <trkpt lat="43.51558" lon="6.36223">
        <ele>276</ele>
        <time>2026-05-27T08:46:23Z</time>
      </trkpt>
      <trkpt lat="43.51558" lon="6.3622">
        <ele>275</ele>
        <time>2026-05-27T08:46:25Z</time>
      </trkpt>
      <trkpt lat="43.51558" lon="6.36216">
        <ele>275</ele>
        <time>2026-05-27T08:46:27Z</time>
      </trkpt>
      <trkpt lat="43.51557" lon="6.36214">
        <ele>275</ele>
        <time>2026-05-27T08:46:29Z</time>
      </trkpt>
      <trkpt lat="43.51554" lon="6.36213">
        <ele>275</ele>
        <time>2026-05-27T08:46:33Z</time>
      </trkpt>
      <trkpt lat="43.51553" lon="6.36211">
        <ele>275</ele>
        <time>2026-05-27T08:46:35Z</time>
      </trkpt>
      <trkpt lat="43.51552" lon="6.36208">
        <ele>276</ele>
        <time>2026-05-27T08:46:37Z</time>
      </trkpt>
      <trkpt lat="43.51548" lon="6.36204">
        <ele>275</ele>
        <time>2026-05-27T08:46:43Z</time>
      </trkpt>
      <trkpt lat="43.51546" lon="6.36202">
        <ele>275</ele>
        <time>2026-05-27T08:46:45Z</time>
      </trkpt>
      <trkpt lat="43.51543" lon="6.36199">
        <ele>275</ele>
        <time>2026-05-27T08:46:49Z</time>
      </trkpt>
      <trkpt lat="43.51542" lon="6.36197">
        <ele>275</ele>
        <time>2026-05-27T08:46:51Z</time>
      </trkpt>
      <trkpt lat="43.5154" lon="6.36196">
        <ele>275</ele>
        <time>2026-05-27T08:46:53Z</time>
      </trkpt>
      <trkpt lat="43.51535" lon="6.36196">
        <ele>275</ele>
        <time>2026-05-27T08:46:57Z</time>
      </trkpt>
      <trkpt lat="43.51532" lon="6.36196">
        <ele>275</ele>
        <time>2026-05-27T08:46:59Z</time>
      </trkpt>
      <trkpt lat="43.51528" lon="6.36197">
        <ele>274</ele>
        <time>2026-05-27T08:47:01Z</time>
      </trkpt>
      <trkpt lat="43.51525" lon="6.36197">
        <ele>274</ele>
        <time>2026-05-27T08:47:03Z</time>
      </trkpt>
      <trkpt lat="43.51522" lon="6.36198">
        <ele>274</ele>
        <time>2026-05-27T08:47:05Z</time>
      </trkpt>
      <trkpt lat="43.51518" lon="6.36199">
        <ele>274</ele>
        <time>2026-05-27T08:47:09Z</time>
      </trkpt>
      <trkpt lat="43.51516" lon="6.36201">
        <ele>274</ele>
        <time>2026-05-27T08:47:11Z</time>
      </trkpt>
      <trkpt lat="43.51511" lon="6.36205">
        <ele>274</ele>
        <time>2026-05-27T08:47:15Z</time>
      </trkpt>
      <trkpt lat="43.51509" lon="6.36205">
        <ele>274</ele>
        <time>2026-05-27T08:47:17Z</time>
      </trkpt>
      <trkpt lat="43.51506" lon="6.36207">
        <ele>273</ele>
        <time>2026-05-27T08:47:21Z</time>
      </trkpt>
      <trkpt lat="43.515" lon="6.36209">
        <ele>272</ele>
        <time>2026-05-27T08:47:27Z</time>
      </trkpt>
      <trkpt lat="43.51489" lon="6.36218">
        <ele>272</ele>
        <time>2026-05-27T08:47:37Z</time>
      </trkpt>
      <trkpt lat="43.51485" lon="6.36223">
        <ele>271</ele>
        <time>2026-05-27T08:47:43Z</time>
      </trkpt>
      <trkpt lat="43.51483" lon="6.36225">
        <ele>271</ele>
        <time>2026-05-27T08:47:45Z</time>
      </trkpt>
      <trkpt lat="43.51477" lon="6.3623">
        <ele>271</ele>
        <time>2026-05-27T08:47:51Z</time>
      </trkpt>
      <trkpt lat="43.51475" lon="6.36231">
        <ele>271</ele>
        <time>2026-05-27T08:47:53Z</time>
      </trkpt>
      <trkpt lat="43.51468" lon="6.36235">
        <ele>271</ele>
        <time>2026-05-27T08:48:01Z</time>
      </trkpt>
      <trkpt lat="43.51462" lon="6.36239">
        <ele>271</ele>
        <time>2026-05-27T08:48:05Z</time>
      </trkpt>
      <trkpt lat="43.51455" lon="6.36244">
        <ele>271</ele>
        <time>2026-05-27T08:48:13Z</time>
      </trkpt>
      <trkpt lat="43.51451" lon="6.36244">
        <ele>271</ele>
        <time>2026-05-27T08:48:17Z</time>
      </trkpt>
      <trkpt lat="43.51448" lon="6.36242">
        <ele>271</ele>
        <time>2026-05-27T08:48:21Z</time>
      </trkpt>
      <trkpt lat="43.51444" lon="6.36246">
        <ele>271</ele>
        <time>2026-05-27T08:48:27Z</time>
      </trkpt>
      <trkpt lat="43.51443" lon="6.36249">
        <ele>272</ele>
        <time>2026-05-27T08:48:31Z</time>
      </trkpt>
      <trkpt lat="43.51441" lon="6.36252">
        <ele>272</ele>
        <time>2026-05-27T08:48:33Z</time>
      </trkpt>
      <trkpt lat="43.51441" lon="6.36255">
        <ele>272</ele>
        <time>2026-05-27T08:48:37Z</time>
      </trkpt>
      <trkpt lat="43.51443" lon="6.36251">
        <ele>273</ele>
        <time>2026-05-27T08:49:05Z</time>
      </trkpt>
      <trkpt lat="43.51444" lon="6.36253">
        <ele>274</ele>
        <time>2026-05-27T08:49:17Z</time>
      </trkpt>
      <trkpt lat="43.51442" lon="6.36254">
        <ele>275</ele>
        <time>2026-05-27T08:49:25Z</time>
      </trkpt>
      <trkpt lat="43.5144" lon="6.36256">
        <ele>276</ele>
        <time>2026-05-27T08:49:31Z</time>
      </trkpt>
      <trkpt lat="43.51434" lon="6.36255">
        <ele>277</ele>
        <time>2026-05-27T08:49:39Z</time>
      </trkpt>
      <trkpt lat="43.51432" lon="6.36262">
        <ele>277</ele>
        <time>2026-05-27T08:50:23Z</time>
      </trkpt>
      <trkpt lat="43.51432" lon="6.36265">
        <ele>278</ele>
        <time>2026-05-27T08:50:27Z</time>
      </trkpt>
      <trkpt lat="43.51432" lon="6.36268">
        <ele>278</ele>
        <time>2026-05-27T08:50:31Z</time>
      </trkpt>
      <trkpt lat="43.51429" lon="6.36271">
        <ele>279</ele>
        <time>2026-05-27T08:50:35Z</time>
      </trkpt>
      <trkpt lat="43.51426" lon="6.36279">
        <ele>280</ele>
        <time>2026-05-27T08:50:41Z</time>
      </trkpt>
      <trkpt lat="43.51426" lon="6.36283">
        <ele>280</ele>
        <time>2026-05-27T08:50:43Z</time>
      </trkpt>
      <trkpt lat="43.51427" lon="6.36294">
        <ele>278</ele>
        <time>2026-05-27T08:50:51Z</time>
      </trkpt>
      <trkpt lat="43.51425" lon="6.36298">
        <ele>275</ele>
        <time>2026-05-27T08:50:55Z</time>
      </trkpt>
      <trkpt lat="43.51427" lon="6.36305">
        <ele>272</ele>
        <time>2026-05-27T08:50:59Z</time>
      </trkpt>
      <trkpt lat="43.51428" lon="6.36309">
        <ele>271</ele>
        <time>2026-05-27T08:51:03Z</time>
      </trkpt>
      <trkpt lat="43.51432" lon="6.36313">
        <ele>269</ele>
        <time>2026-05-27T08:51:09Z</time>
      </trkpt>
      <trkpt lat="43.51437" lon="6.36316">
        <ele>269</ele>
        <time>2026-05-27T08:51:13Z</time>
      </trkpt>
      <trkpt lat="43.51438" lon="6.3632">
        <ele>269</ele>
        <time>2026-05-27T08:51:15Z</time>
      </trkpt>
      <trkpt lat="43.51438" lon="6.36323">
        <ele>269</ele>
        <time>2026-05-27T08:51:17Z</time>
      </trkpt>
      <trkpt lat="43.51438" lon="6.36327">
        <ele>269</ele>
        <time>2026-05-27T08:51:21Z</time>
      </trkpt>
      <trkpt lat="43.51437" lon="6.3633">
        <ele>269</ele>
        <time>2026-05-27T08:51:27Z</time>
      </trkpt>
      <trkpt lat="43.51434" lon="6.36332">
        <ele>268</ele>
        <time>2026-05-27T08:51:31Z</time>
      </trkpt>
      <trkpt lat="43.51429" lon="6.36336">
        <ele>268</ele>
        <time>2026-05-27T08:51:37Z</time>
      </trkpt>
      <trkpt lat="43.51426" lon="6.36336">
        <ele>267</ele>
        <time>2026-05-27T08:51:41Z</time>
      </trkpt>
      <trkpt lat="43.51424" lon="6.36335">
        <ele>267</ele>
        <time>2026-05-27T08:51:43Z</time>
      </trkpt>
      <trkpt lat="43.51417" lon="6.36329">
        <ele>267</ele>
        <time>2026-05-27T08:51:53Z</time>
      </trkpt>
      <trkpt lat="43.51415" lon="6.36327">
        <ele>267</ele>
        <time>2026-05-27T08:51:55Z</time>
      </trkpt>
      <trkpt lat="43.51409" lon="6.36323">
        <ele>268</ele>
        <time>2026-05-27T08:51:59Z</time>
      </trkpt>
      <trkpt lat="43.51408" lon="6.3632">
        <ele>268</ele>
        <time>2026-05-27T08:52:01Z</time>
      </trkpt>
      <trkpt lat="43.51407" lon="6.36318">
        <ele>268</ele>
        <time>2026-05-27T08:52:03Z</time>
      </trkpt>
      <trkpt lat="43.51403" lon="6.36316">
        <ele>268</ele>
        <time>2026-05-27T08:52:07Z</time>
      </trkpt>
      <trkpt lat="43.51401" lon="6.36314">
        <ele>268</ele>
        <time>2026-05-27T08:52:09Z</time>
      </trkpt>
      <trkpt lat="43.51399" lon="6.3631">
        <ele>267</ele>
        <time>2026-05-27T08:52:13Z</time>
      </trkpt>
      <trkpt lat="43.51397" lon="6.36301">
        <ele>267</ele>
        <time>2026-05-27T08:52:17Z</time>
      </trkpt>
      <trkpt lat="43.51396" lon="6.36298">
        <ele>267</ele>
        <time>2026-05-27T08:52:19Z</time>
      </trkpt>
      <trkpt lat="43.51391" lon="6.36285">
        <ele>268</ele>
        <time>2026-05-27T08:52:27Z</time>
      </trkpt>
      <trkpt lat="43.5139" lon="6.36282">
        <ele>267</ele>
        <time>2026-05-27T08:52:29Z</time>
      </trkpt>
      <trkpt lat="43.51388" lon="6.36278">
        <ele>268</ele>
        <time>2026-05-27T08:52:31Z</time>
      </trkpt>
      <trkpt lat="43.51387" lon="6.36275">
        <ele>268</ele>
        <time>2026-05-27T08:52:33Z</time>
      </trkpt>
      <trkpt lat="43.51378" lon="6.36264">
        <ele>268</ele>
        <time>2026-05-27T08:52:41Z</time>
      </trkpt>
      <trkpt lat="43.51378" lon="6.36261">
        <ele>268</ele>
        <time>2026-05-27T08:52:43Z</time>
      </trkpt>
      <trkpt lat="43.51377" lon="6.36259">
        <ele>268</ele>
        <time>2026-05-27T08:52:45Z</time>
      </trkpt>
      <trkpt lat="43.51375" lon="6.36256">
        <ele>268</ele>
        <time>2026-05-27T08:52:47Z</time>
      </trkpt>
      <trkpt lat="43.51372" lon="6.3625">
        <ele>267</ele>
        <time>2026-05-27T08:52:51Z</time>
      </trkpt>
      <trkpt lat="43.51371" lon="6.36247">
        <ele>267</ele>
        <time>2026-05-27T08:52:53Z</time>
      </trkpt>
      <trkpt lat="43.51375" lon="6.36247">
        <ele>267</ele>
        <time>2026-05-27T08:52:55Z</time>
      </trkpt>
      <trkpt lat="43.51378" lon="6.36244">
        <ele>266</ele>
        <time>2026-05-27T08:52:57Z</time>
      </trkpt>
      <trkpt lat="43.51376" lon="6.36241">
        <ele>265</ele>
        <time>2026-05-27T08:52:59Z</time>
      </trkpt>
      <trkpt lat="43.51374" lon="6.36239">
        <ele>265</ele>
        <time>2026-05-27T08:53:01Z</time>
      </trkpt>
      <trkpt lat="43.51372" lon="6.36236">
        <ele>265</ele>
        <time>2026-05-27T08:53:03Z</time>
      </trkpt>
      <trkpt lat="43.5137" lon="6.36232">
        <ele>265</ele>
        <time>2026-05-27T08:53:05Z</time>
      </trkpt>
      <trkpt lat="43.51358" lon="6.36221">
        <ele>268</ele>
        <time>2026-05-27T08:53:11Z</time>
      </trkpt>
      <trkpt lat="43.51356" lon="6.36217">
        <ele>268</ele>
        <time>2026-05-27T08:53:13Z</time>
      </trkpt>
      <trkpt lat="43.51355" lon="6.36213">
        <ele>269</ele>
        <time>2026-05-27T08:53:15Z</time>
      </trkpt>
      <trkpt lat="43.51355" lon="6.3621">
        <ele>270</ele>
        <time>2026-05-27T08:53:17Z</time>
      </trkpt>
      <trkpt lat="43.51353" lon="6.36208">
        <ele>271</ele>
        <time>2026-05-27T08:53:19Z</time>
      </trkpt>
      <trkpt lat="43.51352" lon="6.36205">
        <ele>271</ele>
        <time>2026-05-27T08:53:21Z</time>
      </trkpt>
      <trkpt lat="43.51352" lon="6.36202">
        <ele>272</ele>
        <time>2026-05-27T08:53:23Z</time>
      </trkpt>
      <trkpt lat="43.5135" lon="6.36198">
        <ele>272</ele>
        <time>2026-05-27T08:53:26Z</time>
      </trkpt>
      <trkpt lat="43.51344" lon="6.36188">
        <ele>272</ele>
        <time>2026-05-27T08:53:32Z</time>
      </trkpt>
      <trkpt lat="43.51342" lon="6.36187">
        <ele>271</ele>
        <time>2026-05-27T08:53:34Z</time>
      </trkpt>
      <trkpt lat="43.51339" lon="6.36187">
        <ele>272</ele>
        <time>2026-05-27T08:53:38Z</time>
      </trkpt>
      <trkpt lat="43.51338" lon="6.36189">
        <ele>272</ele>
        <time>2026-05-27T08:53:40Z</time>
      </trkpt>
      <trkpt lat="43.51336" lon="6.36194">
        <ele>272</ele>
        <time>2026-05-27T08:53:44Z</time>
      </trkpt>
      <trkpt lat="43.51337" lon="6.36197">
        <ele>272</ele>
        <time>2026-05-27T08:53:46Z</time>
      </trkpt>
      <trkpt lat="43.5134" lon="6.36203">
        <ele>271</ele>
        <time>2026-05-27T08:53:54Z</time>
      </trkpt>
      <trkpt lat="43.51343" lon="6.36205">
        <ele>270</ele>
        <time>2026-05-27T08:53:56Z</time>
      </trkpt>
      <trkpt lat="43.51344" lon="6.36209">
        <ele>270</ele>
        <time>2026-05-27T08:54:00Z</time>
      </trkpt>
      <trkpt lat="43.5134" lon="6.36209">
        <ele>269</ele>
        <time>2026-05-27T08:54:04Z</time>
      </trkpt>
      <trkpt lat="43.51337" lon="6.36209">
        <ele>268</ele>
        <time>2026-05-27T08:54:12Z</time>
      </trkpt>
      <trkpt lat="43.51334" lon="6.36206">
        <ele>267</ele>
        <time>2026-05-27T08:54:16Z</time>
      </trkpt>
      <trkpt lat="43.51331" lon="6.36204">
        <ele>266</ele>
        <time>2026-05-27T08:54:18Z</time>
      </trkpt>
      <trkpt lat="43.5133" lon="6.36202">
        <ele>266</ele>
        <time>2026-05-27T08:54:20Z</time>
      </trkpt>
      <trkpt lat="43.51328" lon="6.36193">
        <ele>265</ele>
        <time>2026-05-27T08:54:28Z</time>
      </trkpt>
      <trkpt lat="43.51328" lon="6.36188">
        <ele>264</ele>
        <time>2026-05-27T08:54:32Z</time>
      </trkpt>
      <trkpt lat="43.51328" lon="6.36183">
        <ele>262</ele>
        <time>2026-05-27T08:54:36Z</time>
      </trkpt>
      <trkpt lat="43.51327" lon="6.3618">
        <ele>262</ele>
        <time>2026-05-27T08:54:38Z</time>
      </trkpt>
      <trkpt lat="43.51327" lon="6.36174">
        <ele>260</ele>
        <time>2026-05-27T08:54:42Z</time>
      </trkpt>
      <trkpt lat="43.51328" lon="6.3617">
        <ele>259</ele>
        <time>2026-05-27T08:54:44Z</time>
      </trkpt>
      <trkpt lat="43.51328" lon="6.36163">
        <ele>258</ele>
        <time>2026-05-27T08:54:48Z</time>
      </trkpt>
      <trkpt lat="43.51328" lon="6.36159">
        <ele>257</ele>
        <time>2026-05-27T08:54:50Z</time>
      </trkpt>
      <trkpt lat="43.51328" lon="6.36157">
        <ele>257</ele>
        <time>2026-05-27T08:54:52Z</time>
      </trkpt>
      <trkpt lat="43.51328" lon="6.36153">
        <ele>256</ele>
        <time>2026-05-27T08:54:54Z</time>
      </trkpt>
      <trkpt lat="43.51325" lon="6.36144">
        <ele>255</ele>
        <time>2026-05-27T08:55:00Z</time>
      </trkpt>
      <trkpt lat="43.51324" lon="6.36141">
        <ele>255</ele>
        <time>2026-05-27T08:55:02Z</time>
      </trkpt>
      <trkpt lat="43.51321" lon="6.36137">
        <ele>255</ele>
        <time>2026-05-27T08:55:04Z</time>
      </trkpt>
      <trkpt lat="43.51321" lon="6.36134">
        <ele>255</ele>
        <time>2026-05-27T08:55:06Z</time>
      </trkpt>
      <trkpt lat="43.51317" lon="6.36127">
        <ele>255</ele>
        <time>2026-05-27T08:55:12Z</time>
      </trkpt>
      <trkpt lat="43.51316" lon="6.36123">
        <ele>254</ele>
        <time>2026-05-27T08:55:14Z</time>
      </trkpt>
      <trkpt lat="43.51315" lon="6.3612">
        <ele>254</ele>
        <time>2026-05-27T08:55:16Z</time>
      </trkpt>
      <trkpt lat="43.51315" lon="6.36116">
        <ele>254</ele>
        <time>2026-05-27T08:55:20Z</time>
      </trkpt>
      <trkpt lat="43.51314" lon="6.36113">
        <ele>254</ele>
        <time>2026-05-27T08:55:22Z</time>
      </trkpt>
      <trkpt lat="43.51308" lon="6.36101">
        <ele>255</ele>
        <time>2026-05-27T08:55:32Z</time>
      </trkpt>
      <trkpt lat="43.51303" lon="6.36095">
        <ele>255</ele>
        <time>2026-05-27T08:55:36Z</time>
      </trkpt>
      <trkpt lat="43.513" lon="6.36092">
        <ele>255</ele>
        <time>2026-05-27T08:55:38Z</time>
      </trkpt>
      <trkpt lat="43.51299" lon="6.36089">
        <ele>255</ele>
        <time>2026-05-27T08:55:40Z</time>
      </trkpt>
      <trkpt lat="43.51298" lon="6.36086">
        <ele>255</ele>
        <time>2026-05-27T08:55:42Z</time>
      </trkpt>
      <trkpt lat="43.51293" lon="6.36087">
        <ele>256</ele>
        <time>2026-05-27T08:55:48Z</time>
      </trkpt>
      <trkpt lat="43.51291" lon="6.36087">
        <ele>256</ele>
        <time>2026-05-27T08:55:50Z</time>
      </trkpt>
      <trkpt lat="43.5129" lon="6.36086">
        <ele>256</ele>
        <time>2026-05-27T08:55:54Z</time>
      </trkpt>
      <trkpt lat="43.51288" lon="6.3608">
        <ele>258</ele>
        <time>2026-05-27T08:56:20Z</time>
      </trkpt>
      <trkpt lat="43.51291" lon="6.36083">
        <ele>260</ele>
        <time>2026-05-27T08:56:26Z</time>
      </trkpt>
      <trkpt lat="43.51293" lon="6.36083">
        <ele>260</ele>
        <time>2026-05-27T08:56:28Z</time>
      </trkpt>
      <trkpt lat="43.51295" lon="6.36088">
        <ele>262</ele>
        <time>2026-05-27T08:57:06Z</time>
      </trkpt>
      <trkpt lat="43.51293" lon="6.36098">
        <ele>262</ele>
        <time>2026-05-27T08:57:12Z</time>
      </trkpt>
      <trkpt lat="43.51288" lon="6.36109">
        <ele>262</ele>
        <time>2026-05-27T08:57:18Z</time>
      </trkpt>
      <trkpt lat="43.51288" lon="6.36112">
        <ele>261</ele>
        <time>2026-05-27T08:57:20Z</time>
      </trkpt>
      <trkpt lat="43.5129" lon="6.36132">
        <ele>255</ele>
        <time>2026-05-27T08:57:34Z</time>
      </trkpt>
      <trkpt lat="43.51291" lon="6.36135">
        <ele>254</ele>
        <time>2026-05-27T08:57:36Z</time>
      </trkpt>
      <trkpt lat="43.51292" lon="6.36138">
        <ele>252</ele>
        <time>2026-05-27T08:57:38Z</time>
      </trkpt>
      <trkpt lat="43.51294" lon="6.36147">
        <ele>249</ele>
        <time>2026-05-27T08:57:46Z</time>
      </trkpt>
      <trkpt lat="43.51295" lon="6.36157">
        <ele>246</ele>
        <time>2026-05-27T08:57:52Z</time>
      </trkpt>
      <trkpt lat="43.51295" lon="6.36161">
        <ele>246</ele>
        <time>2026-05-27T08:57:54Z</time>
      </trkpt>
      <trkpt lat="43.51296" lon="6.36164">
        <ele>245</ele>
        <time>2026-05-27T08:57:56Z</time>
      </trkpt>
      <trkpt lat="43.51295" lon="6.3617">
        <ele>244</ele>
        <time>2026-05-27T08:58:00Z</time>
      </trkpt>
      <trkpt lat="43.51293" lon="6.36179">
        <ele>244</ele>
        <time>2026-05-27T08:58:04Z</time>
      </trkpt>
      <trkpt lat="43.51293" lon="6.36183">
        <ele>244</ele>
        <time>2026-05-27T08:58:06Z</time>
      </trkpt>
      <trkpt lat="43.51294" lon="6.36187">
        <ele>243</ele>
        <time>2026-05-27T08:58:08Z</time>
      </trkpt>
      <trkpt lat="43.51297" lon="6.36195">
        <ele>243</ele>
        <time>2026-05-27T08:58:12Z</time>
      </trkpt>
      <trkpt lat="43.51298" lon="6.36198">
        <ele>243</ele>
        <time>2026-05-27T08:58:14Z</time>
      </trkpt>
      <trkpt lat="43.51297" lon="6.36201">
        <ele>243</ele>
        <time>2026-05-27T08:58:18Z</time>
      </trkpt>
      <trkpt lat="43.51296" lon="6.36204">
        <ele>243</ele>
        <time>2026-05-27T08:58:22Z</time>
      </trkpt>
      <trkpt lat="43.51293" lon="6.3621">
        <ele>244</ele>
        <time>2026-05-27T08:58:28Z</time>
      </trkpt>
      <trkpt lat="43.51289" lon="6.36216">
        <ele>245</ele>
        <time>2026-05-27T08:58:34Z</time>
      </trkpt>
      <trkpt lat="43.51287" lon="6.36217">
        <ele>245</ele>
        <time>2026-05-27T08:58:36Z</time>
      </trkpt>
      <trkpt lat="43.51284" lon="6.36218">
        <ele>245</ele>
        <time>2026-05-27T08:58:38Z</time>
      </trkpt>
      <trkpt lat="43.51273" lon="6.36221">
        <ele>246</ele>
        <time>2026-05-27T08:58:44Z</time>
      </trkpt>
      <trkpt lat="43.5127" lon="6.36225">
        <ele>247</ele>
        <time>2026-05-27T08:58:46Z</time>
      </trkpt>
      <trkpt lat="43.51268" lon="6.36234">
        <ele>250</ele>
        <time>2026-05-27T08:58:54Z</time>
      </trkpt>
      <trkpt lat="43.51266" lon="6.36235">
        <ele>251</ele>
        <time>2026-05-27T08:58:56Z</time>
      </trkpt>
      <trkpt lat="43.51265" lon="6.36239">
        <ele>252</ele>
        <time>2026-05-27T08:59:00Z</time>
      </trkpt>
      <trkpt lat="43.51263" lon="6.36241">
        <ele>254</ele>
        <time>2026-05-27T08:59:02Z</time>
      </trkpt>
      <trkpt lat="43.51262" lon="6.36244">
        <ele>255</ele>
        <time>2026-05-27T08:59:04Z</time>
      </trkpt>
      <trkpt lat="43.5126" lon="6.36248">
        <ele>256</ele>
        <time>2026-05-27T08:59:08Z</time>
      </trkpt>
      <trkpt lat="43.51259" lon="6.36257">
        <ele>257</ele>
        <time>2026-05-27T08:59:14Z</time>
      </trkpt>
      <trkpt lat="43.51258" lon="6.36262">
        <ele>258</ele>
        <time>2026-05-27T08:59:16Z</time>
      </trkpt>
      <trkpt lat="43.51258" lon="6.36265">
        <ele>258</ele>
        <time>2026-05-27T08:59:18Z</time>
      </trkpt>
      <trkpt lat="43.51257" lon="6.3627">
        <ele>259</ele>
        <time>2026-05-27T08:59:22Z</time>
      </trkpt>
      <trkpt lat="43.51256" lon="6.36273">
        <ele>259</ele>
        <time>2026-05-27T08:59:24Z</time>
      </trkpt>
      <trkpt lat="43.51256" lon="6.36276">
        <ele>259</ele>
        <time>2026-05-27T08:59:26Z</time>
      </trkpt>
      <trkpt lat="43.51256" lon="6.36282">
        <ele>259</ele>
        <time>2026-05-27T08:59:30Z</time>
      </trkpt>
      <trkpt lat="43.51254" lon="6.36289">
        <ele>258</ele>
        <time>2026-05-27T08:59:34Z</time>
      </trkpt>
      <trkpt lat="43.51249" lon="6.36301">
        <ele>257</ele>
        <time>2026-05-27T08:59:40Z</time>
      </trkpt>
      <trkpt lat="43.51247" lon="6.36303">
        <ele>257</ele>
        <time>2026-05-27T08:59:42Z</time>
      </trkpt>
      <trkpt lat="43.51246" lon="6.36306">
        <ele>257</ele>
        <time>2026-05-27T08:59:44Z</time>
      </trkpt>
      <trkpt lat="43.51244" lon="6.3631">
        <ele>256</ele>
        <time>2026-05-27T08:59:48Z</time>
      </trkpt>
      <trkpt lat="43.51242" lon="6.36318">
        <ele>256</ele>
        <time>2026-05-27T08:59:54Z</time>
      </trkpt>
      <trkpt lat="43.51241" lon="6.36321">
        <ele>256</ele>
        <time>2026-05-27T08:59:56Z</time>
      </trkpt>
      <trkpt lat="43.5124" lon="6.36323">
        <ele>257</ele>
        <time>2026-05-27T08:59:58Z</time>
      </trkpt>
      <trkpt lat="43.51238" lon="6.36326">
        <ele>257</ele>
        <time>2026-05-27T09:00:00Z</time>
      </trkpt>
      <trkpt lat="43.51236" lon="6.3633">
        <ele>257</ele>
        <time>2026-05-27T09:00:02Z</time>
      </trkpt>
      <trkpt lat="43.51234" lon="6.36333">
        <ele>257</ele>
        <time>2026-05-27T09:00:04Z</time>
      </trkpt>
      <trkpt lat="43.5123" lon="6.36342">
        <ele>256</ele>
        <time>2026-05-27T09:00:10Z</time>
      </trkpt>
      <trkpt lat="43.51226" lon="6.36352">
        <ele>257</ele>
        <time>2026-05-27T09:00:18Z</time>
      </trkpt>
      <trkpt lat="43.51224" lon="6.36355">
        <ele>257</ele>
        <time>2026-05-27T09:00:20Z</time>
      </trkpt>
      <trkpt lat="43.5122" lon="6.36361">
        <ele>258</ele>
        <time>2026-05-27T09:00:24Z</time>
      </trkpt>
      <trkpt lat="43.5122" lon="6.36364">
        <ele>257</ele>
        <time>2026-05-27T09:00:26Z</time>
      </trkpt>
      <trkpt lat="43.51221" lon="6.36367">
        <ele>257</ele>
        <time>2026-05-27T09:00:28Z</time>
      </trkpt>
      <trkpt lat="43.51222" lon="6.36373">
        <ele>257</ele>
        <time>2026-05-27T09:00:32Z</time>
      </trkpt>
      <trkpt lat="43.51223" lon="6.36377">
        <ele>257</ele>
        <time>2026-05-27T09:00:34Z</time>
      </trkpt>
      <trkpt lat="43.51222" lon="6.36381">
        <ele>257</ele>
        <time>2026-05-27T09:00:36Z</time>
      </trkpt>
      <trkpt lat="43.51222" lon="6.36386">
        <ele>257</ele>
        <time>2026-05-27T09:00:38Z</time>
      </trkpt>
      <trkpt lat="43.51224" lon="6.36397">
        <ele>256</ele>
        <time>2026-05-27T09:00:42Z</time>
      </trkpt>
      <trkpt lat="43.51226" lon="6.36402">
        <ele>255</ele>
        <time>2026-05-27T09:00:44Z</time>
      </trkpt>
      <trkpt lat="43.51226" lon="6.36405">
        <ele>255</ele>
        <time>2026-05-27T09:00:46Z</time>
      </trkpt>
      <trkpt lat="43.51222" lon="6.36422">
        <ele>253</ele>
        <time>2026-05-27T09:00:56Z</time>
      </trkpt>
      <trkpt lat="43.51225" lon="6.36436">
        <ele>252</ele>
        <time>2026-05-27T09:01:02Z</time>
      </trkpt>
      <trkpt lat="43.51227" lon="6.3644">
        <ele>252</ele>
        <time>2026-05-27T09:01:04Z</time>
      </trkpt>
      <trkpt lat="43.51228" lon="6.36444">
        <ele>250</ele>
        <time>2026-05-27T09:01:06Z</time>
      </trkpt>
      <trkpt lat="43.51228" lon="6.3645">
        <ele>250</ele>
        <time>2026-05-27T09:01:08Z</time>
      </trkpt>
      <trkpt lat="43.51229" lon="6.36452">
        <ele>251</ele>
        <time>2026-05-27T09:01:10Z</time>
      </trkpt>
      <trkpt lat="43.51231" lon="6.36455">
        <ele>251</ele>
        <time>2026-05-27T09:01:12Z</time>
      </trkpt>
      <trkpt lat="43.51233" lon="6.36458">
        <ele>252</ele>
        <time>2026-05-27T09:01:14Z</time>
      </trkpt>
      <trkpt lat="43.51234" lon="6.36462">
        <ele>253</ele>
        <time>2026-05-27T09:01:16Z</time>
      </trkpt>
      <trkpt lat="43.51239" lon="6.36471">
        <ele>254</ele>
        <time>2026-05-27T09:01:22Z</time>
      </trkpt>
      <trkpt lat="43.51242" lon="6.36472">
        <ele>255</ele>
        <time>2026-05-27T09:01:24Z</time>
      </trkpt>
      <trkpt lat="43.51245" lon="6.36473">
        <ele>255</ele>
        <time>2026-05-27T09:01:26Z</time>
      </trkpt>
      <trkpt lat="43.51247" lon="6.3648">
        <ele>256</ele>
        <time>2026-05-27T09:01:30Z</time>
      </trkpt>
      <trkpt lat="43.51251" lon="6.36494">
        <ele>255</ele>
        <time>2026-05-27T09:01:38Z</time>
      </trkpt>
      <trkpt lat="43.51252" lon="6.36497">
        <ele>254</ele>
        <time>2026-05-27T09:01:40Z</time>
      </trkpt>
      <trkpt lat="43.51252" lon="6.365">
        <ele>254</ele>
        <time>2026-05-27T09:01:42Z</time>
      </trkpt>
      <trkpt lat="43.51253" lon="6.36505">
        <ele>254</ele>
        <time>2026-05-27T09:01:46Z</time>
      </trkpt>
      <trkpt lat="43.51252" lon="6.3651">
        <ele>253</ele>
        <time>2026-05-27T09:01:48Z</time>
      </trkpt>
      <trkpt lat="43.51253" lon="6.36514">
        <ele>253</ele>
        <time>2026-05-27T09:01:52Z</time>
      </trkpt>
      <trkpt lat="43.51256" lon="6.36522">
        <ele>252</ele>
        <time>2026-05-27T09:01:56Z</time>
      </trkpt>
      <trkpt lat="43.51254" lon="6.36531">
        <ele>250</ele>
        <time>2026-05-27T09:02:02Z</time>
      </trkpt>
      <trkpt lat="43.51253" lon="6.36544">
        <ele>249</ele>
        <time>2026-05-27T09:02:08Z</time>
      </trkpt>
      <trkpt lat="43.5125" lon="6.36559">
        <ele>249</ele>
        <time>2026-05-27T09:02:14Z</time>
      </trkpt>
      <trkpt lat="43.51249" lon="6.36561">
        <ele>249</ele>
        <time>2026-05-27T09:02:16Z</time>
      </trkpt>
      <trkpt lat="43.51247" lon="6.36564">
        <ele>249</ele>
        <time>2026-05-27T09:02:18Z</time>
      </trkpt>
      <trkpt lat="43.51244" lon="6.36568">
        <ele>249</ele>
        <time>2026-05-27T09:02:22Z</time>
      </trkpt>
      <trkpt lat="43.5124" lon="6.36575">
        <ele>250</ele>
        <time>2026-05-27T09:02:28Z</time>
      </trkpt>
      <trkpt lat="43.51234" lon="6.3658">
        <ele>250</ele>
        <time>2026-05-27T09:02:34Z</time>
      </trkpt>
      <trkpt lat="43.51231" lon="6.36584">
        <ele>250</ele>
        <time>2026-05-27T09:02:38Z</time>
      </trkpt>
      <trkpt lat="43.51229" lon="6.36586">
        <ele>250</ele>
        <time>2026-05-27T09:02:40Z</time>
      </trkpt>
      <trkpt lat="43.51227" lon="6.36588">
        <ele>250</ele>
        <time>2026-05-27T09:02:42Z</time>
      </trkpt>
      <trkpt lat="43.51222" lon="6.366">
        <ele>250</ele>
        <time>2026-05-27T09:02:48Z</time>
      </trkpt>
      <trkpt lat="43.51219" lon="6.36609">
        <ele>249</ele>
        <time>2026-05-27T09:02:52Z</time>
      </trkpt>
      <trkpt lat="43.51218" lon="6.36612">
        <ele>249</ele>
        <time>2026-05-27T09:02:54Z</time>
      </trkpt>
      <trkpt lat="43.51216" lon="6.36618">
        <ele>250</ele>
        <time>2026-05-27T09:02:58Z</time>
      </trkpt>
      <trkpt lat="43.51215" lon="6.36623">
        <ele>250</ele>
        <time>2026-05-27T09:03:02Z</time>
      </trkpt>
      <trkpt lat="43.51214" lon="6.36627">
        <ele>250</ele>
        <time>2026-05-27T09:03:04Z</time>
      </trkpt>
      <trkpt lat="43.51214" lon="6.3663">
        <ele>251</ele>
        <time>2026-05-27T09:03:06Z</time>
      </trkpt>
      <trkpt lat="43.51212" lon="6.36633">
        <ele>251</ele>
        <time>2026-05-27T09:03:08Z</time>
      </trkpt>
      <trkpt lat="43.51212" lon="6.36636">
        <ele>252</ele>
        <time>2026-05-27T09:03:10Z</time>
      </trkpt>
      <trkpt lat="43.5121" lon="6.36639">
        <ele>252</ele>
        <time>2026-05-27T09:03:12Z</time>
      </trkpt>
      <trkpt lat="43.51208" lon="6.36643">
        <ele>252</ele>
        <time>2026-05-27T09:03:14Z</time>
      </trkpt>
      <trkpt lat="43.51208" lon="6.36648">
        <ele>253</ele>
        <time>2026-05-27T09:03:16Z</time>
      </trkpt>
      <trkpt lat="43.51208" lon="6.36651">
        <ele>254</ele>
        <time>2026-05-27T09:03:18Z</time>
      </trkpt>
      <trkpt lat="43.51207" lon="6.36653">
        <ele>253</ele>
        <time>2026-05-27T09:03:20Z</time>
      </trkpt>
      <trkpt lat="43.51208" lon="6.36668">
        <ele>251</ele>
        <time>2026-05-27T09:03:30Z</time>
      </trkpt>
      <trkpt lat="43.51208" lon="6.36671">
        <ele>251</ele>
        <time>2026-05-27T09:03:32Z</time>
      </trkpt>
      <trkpt lat="43.51209" lon="6.36675">
        <ele>250</ele>
        <time>2026-05-27T09:03:34Z</time>
      </trkpt>
      <trkpt lat="43.51209" lon="6.36683">
        <ele>250</ele>
        <time>2026-05-27T09:03:38Z</time>
      </trkpt>
      <trkpt lat="43.51209" lon="6.36687">
        <ele>250</ele>
        <time>2026-05-27T09:03:40Z</time>
      </trkpt>
      <trkpt lat="43.5121" lon="6.36692">
        <ele>249</ele>
        <time>2026-05-27T09:03:44Z</time>
      </trkpt>
      <trkpt lat="43.5121" lon="6.36695">
        <ele>249</ele>
        <time>2026-05-27T09:03:46Z</time>
      </trkpt>
      <trkpt lat="43.5121" lon="6.367">
        <ele>249</ele>
        <time>2026-05-27T09:03:48Z</time>
      </trkpt>
      <trkpt lat="43.51211" lon="6.36703">
        <ele>250</ele>
        <time>2026-05-27T09:03:50Z</time>
      </trkpt>
      <trkpt lat="43.51211" lon="6.36706">
        <ele>250</ele>
        <time>2026-05-27T09:03:52Z</time>
      </trkpt>
      <trkpt lat="43.51211" lon="6.36712">
        <ele>251</ele>
        <time>2026-05-27T09:03:56Z</time>
      </trkpt>
      <trkpt lat="43.51211" lon="6.36715">
        <ele>251</ele>
        <time>2026-05-27T09:03:58Z</time>
      </trkpt>
      <trkpt lat="43.51211" lon="6.3672">
        <ele>252</ele>
        <time>2026-05-27T09:04:00Z</time>
      </trkpt>
      <trkpt lat="43.51212" lon="6.36729">
        <ele>253</ele>
        <time>2026-05-27T09:04:04Z</time>
      </trkpt>
      <trkpt lat="43.51211" lon="6.36732">
        <ele>254</ele>
        <time>2026-05-27T09:04:06Z</time>
      </trkpt>
      <trkpt lat="43.5121" lon="6.36735">
        <ele>254</ele>
        <time>2026-05-27T09:04:08Z</time>
      </trkpt>
      <trkpt lat="43.5121" lon="6.36738">
        <ele>255</ele>
        <time>2026-05-27T09:04:10Z</time>
      </trkpt>
      <trkpt lat="43.51211" lon="6.36741">
        <ele>255</ele>
        <time>2026-05-27T09:04:12Z</time>
      </trkpt>
      <trkpt lat="43.51211" lon="6.36745">
        <ele>255</ele>
        <time>2026-05-27T09:04:14Z</time>
      </trkpt>
      <trkpt lat="43.5121" lon="6.36751">
        <ele>255</ele>
        <time>2026-05-27T09:04:18Z</time>
      </trkpt>
      <trkpt lat="43.5121" lon="6.36754">
        <ele>256</ele>
        <time>2026-05-27T09:04:20Z</time>
      </trkpt>
      <trkpt lat="43.51209" lon="6.3676">
        <ele>256</ele>
        <time>2026-05-27T09:04:24Z</time>
      </trkpt>
      <trkpt lat="43.51208" lon="6.36762">
        <ele>256</ele>
        <time>2026-05-27T09:04:26Z</time>
      </trkpt>
      <trkpt lat="43.51207" lon="6.36768">
        <ele>255</ele>
        <time>2026-05-27T09:04:30Z</time>
      </trkpt>
      <trkpt lat="43.51205" lon="6.36773">
        <ele>255</ele>
        <time>2026-05-27T09:04:34Z</time>
      </trkpt>
      <trkpt lat="43.51206" lon="6.36778">
        <ele>255</ele>
        <time>2026-05-27T09:04:36Z</time>
      </trkpt>
      <trkpt lat="43.51203" lon="6.36783">
        <ele>256</ele>
        <time>2026-05-27T09:04:38Z</time>
      </trkpt>
      <trkpt lat="43.51201" lon="6.36788">
        <ele>256</ele>
        <time>2026-05-27T09:04:40Z</time>
      </trkpt>
      <trkpt lat="43.512" lon="6.36792">
        <ele>256</ele>
        <time>2026-05-27T09:04:42Z</time>
      </trkpt>
      <trkpt lat="43.51201" lon="6.36799">
        <ele>257</ele>
        <time>2026-05-27T09:04:44Z</time>
      </trkpt>
      <trkpt lat="43.51199" lon="6.368">
        <ele>257</ele>
        <time>2026-05-27T09:04:46Z</time>
      </trkpt>
      <trkpt lat="43.51197" lon="6.36804">
        <ele>258</ele>
        <time>2026-05-27T09:04:48Z</time>
      </trkpt>
      <trkpt lat="43.51198" lon="6.36809">
        <ele>258</ele>
        <time>2026-05-27T09:04:50Z</time>
      </trkpt>
      <trkpt lat="43.51197" lon="6.36811">
        <ele>259</ele>
        <time>2026-05-27T09:04:52Z</time>
      </trkpt>
      <trkpt lat="43.51199" lon="6.36815">
        <ele>259</ele>
        <time>2026-05-27T09:04:56Z</time>
      </trkpt>
      <trkpt lat="43.51199" lon="6.36818">
        <ele>259</ele>
        <time>2026-05-27T09:04:58Z</time>
      </trkpt>
      <trkpt lat="43.51199" lon="6.36821">
        <ele>260</ele>
        <time>2026-05-27T09:05:00Z</time>
      </trkpt>
      <trkpt lat="43.51197" lon="6.36825">
        <ele>260</ele>
        <time>2026-05-27T09:05:04Z</time>
      </trkpt>
      <trkpt lat="43.51197" lon="6.36828">
        <ele>260</ele>
        <time>2026-05-27T09:05:06Z</time>
      </trkpt>
      <trkpt lat="43.51194" lon="6.36835">
        <ele>259</ele>
        <time>2026-05-27T09:05:10Z</time>
      </trkpt>
      <trkpt lat="43.51188" lon="6.36843">
        <ele>259</ele>
        <time>2026-05-27T09:05:16Z</time>
      </trkpt>
      <trkpt lat="43.51186" lon="6.36847">
        <ele>258</ele>
        <time>2026-05-27T09:05:18Z</time>
      </trkpt>
      <trkpt lat="43.51184" lon="6.36849">
        <ele>258</ele>
        <time>2026-05-27T09:05:20Z</time>
      </trkpt>
      <trkpt lat="43.51183" lon="6.36853">
        <ele>258</ele>
        <time>2026-05-27T09:05:22Z</time>
      </trkpt>
      <trkpt lat="43.51181" lon="6.36855">
        <ele>258</ele>
        <time>2026-05-27T09:05:24Z</time>
      </trkpt>
      <trkpt lat="43.51177" lon="6.36861">
        <ele>257</ele>
        <time>2026-05-27T09:05:28Z</time>
      </trkpt>
      <trkpt lat="43.51175" lon="6.36867">
        <ele>256</ele>
        <time>2026-05-27T09:05:32Z</time>
      </trkpt>
      <trkpt lat="43.51173" lon="6.36877">
        <ele>256</ele>
        <time>2026-05-27T09:05:36Z</time>
      </trkpt>
      <trkpt lat="43.5117" lon="6.36882">
        <ele>257</ele>
        <time>2026-05-27T09:05:42Z</time>
      </trkpt>
      <trkpt lat="43.51167" lon="6.36887">
        <ele>258</ele>
        <time>2026-05-27T09:05:46Z</time>
      </trkpt>
      <trkpt lat="43.51165" lon="6.36891">
        <ele>259</ele>
        <time>2026-05-27T09:05:48Z</time>
      </trkpt>
      <trkpt lat="43.51164" lon="6.36894">
        <ele>259</ele>
        <time>2026-05-27T09:05:50Z</time>
      </trkpt>
      <trkpt lat="43.51163" lon="6.36898">
        <ele>259</ele>
        <time>2026-05-27T09:05:52Z</time>
      </trkpt>
      <trkpt lat="43.5116" lon="6.36902">
        <ele>259</ele>
        <time>2026-05-27T09:05:54Z</time>
      </trkpt>
      <trkpt lat="43.51158" lon="6.36907">
        <ele>260</ele>
        <time>2026-05-27T09:05:58Z</time>
      </trkpt>
      <trkpt lat="43.51156" lon="6.3691">
        <ele>260</ele>
        <time>2026-05-27T09:06:02Z</time>
      </trkpt>
      <trkpt lat="43.51153" lon="6.36918">
        <ele>260</ele>
        <time>2026-05-27T09:06:06Z</time>
      </trkpt>
      <trkpt lat="43.51149" lon="6.36926">
        <ele>261</ele>
        <time>2026-05-27T09:06:12Z</time>
      </trkpt>
      <trkpt lat="43.51148" lon="6.36929">
        <ele>261</ele>
        <time>2026-05-27T09:06:14Z</time>
      </trkpt>
      <trkpt lat="43.51147" lon="6.36933">
        <ele>261</ele>
        <time>2026-05-27T09:06:16Z</time>
      </trkpt>
      <trkpt lat="43.51147" lon="6.36937">
        <ele>261</ele>
        <time>2026-05-27T09:06:18Z</time>
      </trkpt>
      <trkpt lat="43.51146" lon="6.3694">
        <ele>261</ele>
        <time>2026-05-27T09:06:20Z</time>
      </trkpt>
      <trkpt lat="43.51147" lon="6.36942">
        <ele>261</ele>
        <time>2026-05-27T09:06:22Z</time>
      </trkpt>
      <trkpt lat="43.51146" lon="6.36947">
        <ele>261</ele>
        <time>2026-05-27T09:06:26Z</time>
      </trkpt>
      <trkpt lat="43.51142" lon="6.36956">
        <ele>261</ele>
        <time>2026-05-27T09:06:32Z</time>
      </trkpt>
      <trkpt lat="43.51142" lon="6.36959">
        <ele>261</ele>
        <time>2026-05-27T09:06:34Z</time>
      </trkpt>
      <trkpt lat="43.51142" lon="6.36969">
        <ele>261</ele>
        <time>2026-05-27T09:06:38Z</time>
      </trkpt>
      <trkpt lat="43.51142" lon="6.36974">
        <ele>261</ele>
        <time>2026-05-27T09:06:40Z</time>
      </trkpt>
      <trkpt lat="43.51141" lon="6.36978">
        <ele>260</ele>
        <time>2026-05-27T09:06:44Z</time>
      </trkpt>
      <trkpt lat="43.51141" lon="6.36981">
        <ele>260</ele>
        <time>2026-05-27T09:06:46Z</time>
      </trkpt>
      <trkpt lat="43.51141" lon="6.36984">
        <ele>260</ele>
        <time>2026-05-27T09:06:48Z</time>
      </trkpt>
      <trkpt lat="43.51142" lon="6.3699">
        <ele>260</ele>
        <time>2026-05-27T09:06:52Z</time>
      </trkpt>
      <trkpt lat="43.51141" lon="6.36993">
        <ele>260</ele>
        <time>2026-05-27T09:06:54Z</time>
      </trkpt>
      <trkpt lat="43.5114" lon="6.36996">
        <ele>260</ele>
        <time>2026-05-27T09:06:58Z</time>
      </trkpt>
      <trkpt lat="43.51137" lon="6.37">
        <ele>261</ele>
        <time>2026-05-27T09:07:00Z</time>
      </trkpt>
      <trkpt lat="43.51135" lon="6.37002">
        <ele>261</ele>
        <time>2026-05-27T09:07:02Z</time>
      </trkpt>
      <trkpt lat="43.51129" lon="6.37004">
        <ele>262</ele>
        <time>2026-05-27T09:07:06Z</time>
      </trkpt>
      <trkpt lat="43.51128" lon="6.37008">
        <ele>262</ele>
        <time>2026-05-27T09:07:08Z</time>
      </trkpt>
      <trkpt lat="43.51126" lon="6.37008">
        <ele>262</ele>
        <time>2026-05-27T09:07:12Z</time>
      </trkpt>
      <trkpt lat="43.51124" lon="6.37005">
        <ele>263</ele>
        <time>2026-05-27T09:07:16Z</time>
      </trkpt>
      <trkpt lat="43.51124" lon="6.37001">
        <ele>263</ele>
        <time>2026-05-27T09:07:20Z</time>
      </trkpt>
      <trkpt lat="43.51121" lon="6.37001">
        <ele>263</ele>
        <time>2026-05-27T09:07:28Z</time>
      </trkpt>
      <trkpt lat="43.51122" lon="6.37">
        <ele>265</ele>
        <time>2026-05-27T09:09:34Z</time>
      </trkpt>
      <trkpt lat="43.51119" lon="6.37001">
        <ele>266</ele>
        <time>2026-05-27T09:09:36Z</time>
      </trkpt>
      <trkpt lat="43.5112" lon="6.36998">
        <ele>267</ele>
        <time>2026-05-27T09:09:42Z</time>
      </trkpt>
      <trkpt lat="43.51117" lon="6.36998">
        <ele>271</ele>
        <time>2026-05-27T09:09:48Z</time>
      </trkpt>
      <trkpt lat="43.51117" lon="6.37001">
        <ele>272</ele>
        <time>2026-05-27T09:09:50Z</time>
      </trkpt>
      <trkpt lat="43.51113" lon="6.37004">
        <ele>273</ele>
        <time>2026-05-27T09:09:56Z</time>
      </trkpt>
      <trkpt lat="43.51111" lon="6.37006">
        <ele>274</ele>
        <time>2026-05-27T09:09:58Z</time>
      </trkpt>
      <trkpt lat="43.51109" lon="6.37007">
        <ele>274</ele>
        <time>2026-05-27T09:10:00Z</time>
      </trkpt>
      <trkpt lat="43.51106" lon="6.37008">
        <ele>274</ele>
        <time>2026-05-27T09:10:02Z</time>
      </trkpt>
      <trkpt lat="43.511" lon="6.37009">
        <ele>275</ele>
        <time>2026-05-27T09:10:10Z</time>
      </trkpt>
      <trkpt lat="43.51097" lon="6.37008">
        <ele>274</ele>
        <time>2026-05-27T09:10:14Z</time>
      </trkpt>
      <trkpt lat="43.51091" lon="6.37008">
        <ele>274</ele>
        <time>2026-05-27T09:10:20Z</time>
      </trkpt>
      <trkpt lat="43.51085" lon="6.37008">
        <ele>273</ele>
        <time>2026-05-27T09:10:26Z</time>
      </trkpt>
      <trkpt lat="43.5107" lon="6.37007">
        <ele>271</ele>
        <time>2026-05-27T09:10:42Z</time>
      </trkpt>
      <trkpt lat="43.51061" lon="6.37009">
        <ele>270</ele>
        <time>2026-05-27T09:10:52Z</time>
      </trkpt>
      <trkpt lat="43.51058" lon="6.37008">
        <ele>270</ele>
        <time>2026-05-27T09:10:56Z</time>
      </trkpt>
      <trkpt lat="43.51055" lon="6.37006">
        <ele>270</ele>
        <time>2026-05-27T09:10:58Z</time>
      </trkpt>
      <trkpt lat="43.51052" lon="6.37005">
        <ele>270</ele>
        <time>2026-05-27T09:11:02Z</time>
      </trkpt>
      <trkpt lat="43.51049" lon="6.37004">
        <ele>271</ele>
        <time>2026-05-27T09:11:04Z</time>
      </trkpt>
      <trkpt lat="43.51045" lon="6.37004">
        <ele>271</ele>
        <time>2026-05-27T09:11:08Z</time>
      </trkpt>
      <trkpt lat="43.51037" lon="6.37001">
        <ele>272</ele>
        <time>2026-05-27T09:11:14Z</time>
      </trkpt>
      <trkpt lat="43.51034" lon="6.37">
        <ele>273</ele>
        <time>2026-05-27T09:11:16Z</time>
      </trkpt>
      <trkpt lat="43.51031" lon="6.36998">
        <ele>275</ele>
        <time>2026-05-27T09:11:20Z</time>
      </trkpt>
      <trkpt lat="43.51027" lon="6.36998">
        <ele>277</ele>
        <time>2026-05-27T09:11:28Z</time>
      </trkpt>
      <trkpt lat="43.51024" lon="6.36999">
        <ele>278</ele>
        <time>2026-05-27T09:11:30Z</time>
      </trkpt>
      <trkpt lat="43.51022" lon="6.36998">
        <ele>279</ele>
        <time>2026-05-27T09:11:32Z</time>
      </trkpt>
      <trkpt lat="43.51015" lon="6.36997">
        <ele>281</ele>
        <time>2026-05-27T09:11:40Z</time>
      </trkpt>
      <trkpt lat="43.51008" lon="6.36993">
        <ele>285</ele>
        <time>2026-05-27T09:11:48Z</time>
      </trkpt>
      <trkpt lat="43.51005" lon="6.36994">
        <ele>286</ele>
        <time>2026-05-27T09:11:52Z</time>
      </trkpt>
      <trkpt lat="43.51004" lon="6.36994">
        <ele>286</ele>
        <time>2026-05-27T09:11:54Z</time>
      </trkpt>
      <trkpt lat="43.51001" lon="6.36994">
        <ele>287</ele>
        <time>2026-05-27T09:11:56Z</time>
      </trkpt>
      <trkpt lat="43.50999" lon="6.36994">
        <ele>287</ele>
        <time>2026-05-27T09:11:58Z</time>
      </trkpt>
      <trkpt lat="43.50998" lon="6.36992">
        <ele>287</ele>
        <time>2026-05-27T09:12:02Z</time>
      </trkpt>
      <trkpt lat="43.50997" lon="6.3699">
        <ele>288</ele>
        <time>2026-05-27T09:12:04Z</time>
      </trkpt>
      <trkpt lat="43.50995" lon="6.36988">
        <ele>288</ele>
        <time>2026-05-27T09:12:06Z</time>
      </trkpt>
      <trkpt lat="43.50992" lon="6.36986">
        <ele>288</ele>
        <time>2026-05-27T09:12:08Z</time>
      </trkpt>
      <trkpt lat="43.50987" lon="6.36983">
        <ele>287</ele>
        <time>2026-05-27T09:12:12Z</time>
      </trkpt>
      <trkpt lat="43.50986" lon="6.36981">
        <ele>287</ele>
        <time>2026-05-27T09:12:14Z</time>
      </trkpt>
      <trkpt lat="43.50985" lon="6.36979">
        <ele>286</ele>
        <time>2026-05-27T09:12:16Z</time>
      </trkpt>
      <trkpt lat="43.50981" lon="6.36974">
        <ele>286</ele>
        <time>2026-05-27T09:12:22Z</time>
      </trkpt>
      <trkpt lat="43.50976" lon="6.36972">
        <ele>286</ele>
        <time>2026-05-27T09:12:26Z</time>
      </trkpt>
      <trkpt lat="43.50974" lon="6.36971">
        <ele>286</ele>
        <time>2026-05-27T09:12:28Z</time>
      </trkpt>
      <trkpt lat="43.50972" lon="6.36969">
        <ele>287</ele>
        <time>2026-05-27T09:12:30Z</time>
      </trkpt>
      <trkpt lat="43.5097" lon="6.36967">
        <ele>287</ele>
        <time>2026-05-27T09:12:32Z</time>
      </trkpt>
      <trkpt lat="43.50968" lon="6.36965">
        <ele>286</ele>
        <time>2026-05-27T09:12:34Z</time>
      </trkpt>
      <trkpt lat="43.50966" lon="6.36964">
        <ele>286</ele>
        <time>2026-05-27T09:12:36Z</time>
      </trkpt>
      <trkpt lat="43.50964" lon="6.36964">
        <ele>286</ele>
        <time>2026-05-27T09:12:38Z</time>
      </trkpt>
      <trkpt lat="43.50962" lon="6.36964">
        <ele>287</ele>
        <time>2026-05-27T09:12:40Z</time>
      </trkpt>
      <trkpt lat="43.50959" lon="6.36962">
        <ele>287</ele>
        <time>2026-05-27T09:12:44Z</time>
      </trkpt>
      <trkpt lat="43.50954" lon="6.36961">
        <ele>287</ele>
        <time>2026-05-27T09:12:48Z</time>
      </trkpt>
      <trkpt lat="43.50949" lon="6.3696">
        <ele>288</ele>
        <time>2026-05-27T09:12:52Z</time>
      </trkpt>
      <trkpt lat="43.50948" lon="6.36959">
        <ele>288</ele>
        <time>2026-05-27T09:12:54Z</time>
      </trkpt>
      <trkpt lat="43.50946" lon="6.36957">
        <ele>288</ele>
        <time>2026-05-27T09:12:56Z</time>
      </trkpt>
      <trkpt lat="43.50943" lon="6.36954">
        <ele>288</ele>
        <time>2026-05-27T09:13:00Z</time>
      </trkpt>
      <trkpt lat="43.50941" lon="6.36955">
        <ele>288</ele>
        <time>2026-05-27T09:13:02Z</time>
      </trkpt>
      <trkpt lat="43.50938" lon="6.36955">
        <ele>288</ele>
        <time>2026-05-27T09:13:08Z</time>
      </trkpt>
      <trkpt lat="43.50936" lon="6.36955">
        <ele>288</ele>
        <time>2026-05-27T09:13:10Z</time>
      </trkpt>
      <trkpt lat="43.50927" lon="6.36949">
        <ele>290</ele>
        <time>2026-05-27T09:13:26Z</time>
      </trkpt>
      <trkpt lat="43.50927" lon="6.36946">
        <ele>292</ele>
        <time>2026-05-27T09:13:48Z</time>
      </trkpt>
      <trkpt lat="43.5093" lon="6.36949">
        <ele>294</ele>
        <time>2026-05-27T09:13:53Z</time>
      </trkpt>
      <trkpt lat="43.5093" lon="6.36949">
        <ele>300</ele>
        <time>2026-05-27T09:14:01Z</time>
      </trkpt>
      <trkpt lat="43.50927" lon="6.36946">
        <ele>301</ele>
        <time>2026-05-27T09:14:05Z</time>
      </trkpt>
      <trkpt lat="43.50925" lon="6.36948">
        <ele>302</ele>
        <time>2026-05-27T09:14:11Z</time>
      </trkpt>
      <trkpt lat="43.50925" lon="6.36948">
        <ele>302</ele>
        <time>2026-05-27T09:14:23Z</time>
      </trkpt>
      <trkpt lat="43.50923" lon="6.36948">
        <ele>302</ele>
        <time>2026-05-27T09:14:53Z</time>
      </trkpt>
      <trkpt lat="43.50919" lon="6.36949">
        <ele>300</ele>
        <time>2026-05-27T09:14:57Z</time>
      </trkpt>
      <trkpt lat="43.50911" lon="6.3695">
        <ele>298</ele>
        <time>2026-05-27T09:15:07Z</time>
      </trkpt>
      <trkpt lat="43.50909" lon="6.36949">
        <ele>295</ele>
        <time>2026-05-27T09:15:09Z</time>
      </trkpt>
      <trkpt lat="43.50905" lon="6.36951">
        <ele>294</ele>
        <time>2026-05-27T09:15:11Z</time>
      </trkpt>
      <trkpt lat="43.50903" lon="6.36947">
        <ele>294</ele>
        <time>2026-05-27T09:15:13Z</time>
      </trkpt>
      <trkpt lat="43.509" lon="6.36946">
        <ele>294</ele>
        <time>2026-05-27T09:15:17Z</time>
      </trkpt>
      <trkpt lat="43.50898" lon="6.36943">
        <ele>294</ele>
        <time>2026-05-27T09:15:23Z</time>
      </trkpt>
      <trkpt lat="43.50889" lon="6.36939">
        <ele>294</ele>
        <time>2026-05-27T09:15:33Z</time>
      </trkpt>
      <trkpt lat="43.50886" lon="6.36938">
        <ele>293</ele>
        <time>2026-05-27T09:15:37Z</time>
      </trkpt>
      <trkpt lat="43.50882" lon="6.36939">
        <ele>288</ele>
        <time>2026-05-27T09:15:45Z</time>
      </trkpt>
      <trkpt lat="43.5088" lon="6.36938">
        <ele>286</ele>
        <time>2026-05-27T09:15:47Z</time>
      </trkpt>
      <trkpt lat="43.50871" lon="6.36938">
        <ele>280</ele>
        <time>2026-05-27T09:15:55Z</time>
      </trkpt>
      <trkpt lat="43.50862" lon="6.3694">
        <ele>278</ele>
        <time>2026-05-27T09:16:03Z</time>
      </trkpt>
      <trkpt lat="43.50857" lon="6.36941">
        <ele>278</ele>
        <time>2026-05-27T09:16:07Z</time>
      </trkpt>
      <trkpt lat="43.50854" lon="6.36941">
        <ele>278</ele>
        <time>2026-05-27T09:16:11Z</time>
      </trkpt>
      <trkpt lat="43.50851" lon="6.36943">
        <ele>279</ele>
        <time>2026-05-27T09:16:15Z</time>
      </trkpt>
      <trkpt lat="43.50848" lon="6.36944">
        <ele>279</ele>
        <time>2026-05-27T09:16:17Z</time>
      </trkpt>
      <trkpt lat="43.50843" lon="6.36944">
        <ele>279</ele>
        <time>2026-05-27T09:16:21Z</time>
      </trkpt>
      <trkpt lat="43.5084" lon="6.36942">
        <ele>278</ele>
        <time>2026-05-27T09:16:23Z</time>
      </trkpt>
      <trkpt lat="43.50837" lon="6.36945">
        <ele>278</ele>
        <time>2026-05-27T09:16:25Z</time>
      </trkpt>
      <trkpt lat="43.50835" lon="6.36947">
        <ele>278</ele>
        <time>2026-05-27T09:16:27Z</time>
      </trkpt>
      <trkpt lat="43.50833" lon="6.36955">
        <ele>278</ele>
        <time>2026-05-27T09:16:33Z</time>
      </trkpt>
      <trkpt lat="43.50833" lon="6.36958">
        <ele>278</ele>
        <time>2026-05-27T09:16:37Z</time>
      </trkpt>
      <trkpt lat="43.50832" lon="6.36962">
        <ele>278</ele>
        <time>2026-05-27T09:16:39Z</time>
      </trkpt>
      <trkpt lat="43.50834" lon="6.36964">
        <ele>279</ele>
        <time>2026-05-27T09:16:41Z</time>
      </trkpt>
      <trkpt lat="43.50836" lon="6.36966">
        <ele>279</ele>
        <time>2026-05-27T09:16:43Z</time>
      </trkpt>
      <trkpt lat="43.50836" lon="6.36969">
        <ele>279</ele>
        <time>2026-05-27T09:16:45Z</time>
      </trkpt>
      <trkpt lat="43.50837" lon="6.36973">
        <ele>279</ele>
        <time>2026-05-27T09:16:47Z</time>
      </trkpt>
      <trkpt lat="43.50837" lon="6.36976">
        <ele>280</ele>
        <time>2026-05-27T09:16:49Z</time>
      </trkpt>
      <trkpt lat="43.50836" lon="6.36981">
        <ele>280</ele>
        <time>2026-05-27T09:16:51Z</time>
      </trkpt>
      <trkpt lat="43.50835" lon="6.36987">
        <ele>279</ele>
        <time>2026-05-27T09:16:55Z</time>
      </trkpt>
      <trkpt lat="43.50836" lon="6.3699">
        <ele>279</ele>
        <time>2026-05-27T09:16:57Z</time>
      </trkpt>
      <trkpt lat="43.50834" lon="6.37023">
        <ele>281</ele>
        <time>2026-05-27T09:17:17Z</time>
      </trkpt>
      <trkpt lat="43.50833" lon="6.37027">
        <ele>281</ele>
        <time>2026-05-27T09:17:19Z</time>
      </trkpt>
      <trkpt lat="43.50832" lon="6.37055">
        <ele>285</ele>
        <time>2026-05-27T09:17:36Z</time>
      </trkpt>
      <trkpt lat="43.50833" lon="6.3708">
        <ele>287</ele>
        <time>2026-05-27T09:17:48Z</time>
      </trkpt>
      <trkpt lat="43.50835" lon="6.37082">
        <ele>288</ele>
        <time>2026-05-27T09:17:50Z</time>
      </trkpt>
      <trkpt lat="43.50836" lon="6.37085">
        <ele>288</ele>
        <time>2026-05-27T09:17:52Z</time>
      </trkpt>
      <trkpt lat="43.50836" lon="6.37088">
        <ele>288</ele>
        <time>2026-05-27T09:17:54Z</time>
      </trkpt>
      <trkpt lat="43.50837" lon="6.37091">
        <ele>289</ele>
        <time>2026-05-27T09:17:56Z</time>
      </trkpt>
      <trkpt lat="43.50837" lon="6.37094">
        <ele>289</ele>
        <time>2026-05-27T09:17:58Z</time>
      </trkpt>
      <trkpt lat="43.50838" lon="6.37101">
        <ele>290</ele>
        <time>2026-05-27T09:18:02Z</time>
      </trkpt>
      <trkpt lat="43.50839" lon="6.37105">
        <ele>290</ele>
        <time>2026-05-27T09:18:04Z</time>
      </trkpt>
      <trkpt lat="43.50841" lon="6.37113">
        <ele>290</ele>
        <time>2026-05-27T09:18:08Z</time>
      </trkpt>
      <trkpt lat="43.50841" lon="6.37117">
        <ele>290</ele>
        <time>2026-05-27T09:18:10Z</time>
      </trkpt>
      <trkpt lat="43.5084" lon="6.37125">
        <ele>291</ele>
        <time>2026-05-27T09:18:14Z</time>
      </trkpt>
      <trkpt lat="43.50839" lon="6.37129">
        <ele>291</ele>
        <time>2026-05-27T09:18:16Z</time>
      </trkpt>
      <trkpt lat="43.5084" lon="6.37134">
        <ele>292</ele>
        <time>2026-05-27T09:18:20Z</time>
      </trkpt>
      <trkpt lat="43.50842" lon="6.37137">
        <ele>292</ele>
        <time>2026-05-27T09:18:22Z</time>
      </trkpt>
      <trkpt lat="43.50844" lon="6.37145">
        <ele>292</ele>
        <time>2026-05-27T09:18:26Z</time>
      </trkpt>
      <trkpt lat="43.50845" lon="6.3715">
        <ele>293</ele>
        <time>2026-05-27T09:18:28Z</time>
      </trkpt>
      <trkpt lat="43.5085" lon="6.37164">
        <ele>293</ele>
        <time>2026-05-27T09:18:36Z</time>
      </trkpt>
      <trkpt lat="43.50849" lon="6.37169">
        <ele>293</ele>
        <time>2026-05-27T09:18:38Z</time>
      </trkpt>
      <trkpt lat="43.50851" lon="6.37183">
        <ele>291</ele>
        <time>2026-05-27T09:18:46Z</time>
      </trkpt>
      <trkpt lat="43.50852" lon="6.37187">
        <ele>290</ele>
        <time>2026-05-27T09:18:48Z</time>
      </trkpt>
      <trkpt lat="43.50852" lon="6.37191">
        <ele>290</ele>
        <time>2026-05-27T09:18:50Z</time>
      </trkpt>
      <trkpt lat="43.50853" lon="6.37193">
        <ele>289</ele>
        <time>2026-05-27T09:18:52Z</time>
      </trkpt>
      <trkpt lat="43.50857" lon="6.37205">
        <ele>288</ele>
        <time>2026-05-27T09:18:58Z</time>
      </trkpt>
      <trkpt lat="43.50856" lon="6.37208">
        <ele>287</ele>
        <time>2026-05-27T09:19:00Z</time>
      </trkpt>
      <trkpt lat="43.50855" lon="6.37211">
        <ele>287</ele>
        <time>2026-05-27T09:19:02Z</time>
      </trkpt>
      <trkpt lat="43.50852" lon="6.37215">
        <ele>286</ele>
        <time>2026-05-27T09:19:06Z</time>
      </trkpt>
      <trkpt lat="43.5085" lon="6.37216">
        <ele>286</ele>
        <time>2026-05-27T09:19:08Z</time>
      </trkpt>
      <trkpt lat="43.50848" lon="6.37216">
        <ele>286</ele>
        <time>2026-05-27T09:19:10Z</time>
      </trkpt>
      <trkpt lat="43.50834" lon="6.37224">
        <ele>284</ele>
        <time>2026-05-27T09:19:22Z</time>
      </trkpt>
      <trkpt lat="43.50832" lon="6.37225">
        <ele>284</ele>
        <time>2026-05-27T09:19:24Z</time>
      </trkpt>
      <trkpt lat="43.50829" lon="6.37226">
        <ele>284</ele>
        <time>2026-05-27T09:19:26Z</time>
      </trkpt>
      <trkpt lat="43.50827" lon="6.37227">
        <ele>285</ele>
        <time>2026-05-27T09:19:28Z</time>
      </trkpt>
      <trkpt lat="43.50824" lon="6.3723">
        <ele>285</ele>
        <time>2026-05-27T09:19:30Z</time>
      </trkpt>
      <trkpt lat="43.50822" lon="6.37232">
        <ele>285</ele>
        <time>2026-05-27T09:19:32Z</time>
      </trkpt>
      <trkpt lat="43.50826" lon="6.37234">
        <ele>285</ele>
        <time>2026-05-27T09:19:50Z</time>
      </trkpt>
      <trkpt lat="43.50825" lon="6.37234">
        <ele>288</ele>
        <time>2026-05-27T09:20:42Z</time>
      </trkpt>
      <trkpt lat="43.50828" lon="6.37234">
        <ele>288</ele>
        <time>2026-05-27T09:20:50Z</time>
      </trkpt>
      <trkpt lat="43.50831" lon="6.37234">
        <ele>290</ele>
        <time>2026-05-27T09:20:54Z</time>
      </trkpt>
      <trkpt lat="43.50827" lon="6.37238">
        <ele>291</ele>
        <time>2026-05-27T09:21:00Z</time>
      </trkpt>
      <trkpt lat="43.50825" lon="6.37242">
        <ele>291</ele>
        <time>2026-05-27T09:21:04Z</time>
      </trkpt>
      <trkpt lat="43.50825" lon="6.37248">
        <ele>291</ele>
        <time>2026-05-27T09:21:08Z</time>
      </trkpt>
      <trkpt lat="43.50827" lon="6.37254">
        <ele>291</ele>
        <time>2026-05-27T09:21:12Z</time>
      </trkpt>
      <trkpt lat="43.50829" lon="6.37266">
        <ele>290</ele>
        <time>2026-05-27T09:21:18Z</time>
      </trkpt>
      <trkpt lat="43.50832" lon="6.37272">
        <ele>290</ele>
        <time>2026-05-27T09:21:22Z</time>
      </trkpt>
      <trkpt lat="43.50833" lon="6.37276">
        <ele>290</ele>
        <time>2026-05-27T09:21:24Z</time>
      </trkpt>
      <trkpt lat="43.50835" lon="6.37282">
        <ele>290</ele>
        <time>2026-05-27T09:21:28Z</time>
      </trkpt>
      <trkpt lat="43.50836" lon="6.37285">
        <ele>290</ele>
        <time>2026-05-27T09:21:30Z</time>
      </trkpt>
      <trkpt lat="43.50836" lon="6.3729">
        <ele>290</ele>
        <time>2026-05-27T09:21:32Z</time>
      </trkpt>
      <trkpt lat="43.50836" lon="6.37297">
        <ele>291</ele>
        <time>2026-05-27T09:21:36Z</time>
      </trkpt>
      <trkpt lat="43.50835" lon="6.37299">
        <ele>291</ele>
        <time>2026-05-27T09:21:38Z</time>
      </trkpt>
      <trkpt lat="43.5083" lon="6.37317">
        <ele>290</ele>
        <time>2026-05-27T09:21:48Z</time>
      </trkpt>
      <trkpt lat="43.50827" lon="6.37323">
        <ele>290</ele>
        <time>2026-05-27T09:21:52Z</time>
      </trkpt>
      <trkpt lat="43.50825" lon="6.37327">
        <ele>290</ele>
        <time>2026-05-27T09:21:56Z</time>
      </trkpt>
      <trkpt lat="43.50825" lon="6.3733">
        <ele>289</ele>
        <time>2026-05-27T09:21:58Z</time>
      </trkpt>
      <trkpt lat="43.50824" lon="6.37337">
        <ele>288</ele>
        <time>2026-05-27T09:22:02Z</time>
      </trkpt>
      <trkpt lat="43.50823" lon="6.3734">
        <ele>287</ele>
        <time>2026-05-27T09:22:04Z</time>
      </trkpt>
      <trkpt lat="43.50822" lon="6.37345">
        <ele>286</ele>
        <time>2026-05-27T09:22:08Z</time>
      </trkpt>
      <trkpt lat="43.50822" lon="6.37349">
        <ele>285</ele>
        <time>2026-05-27T09:22:10Z</time>
      </trkpt>
      <trkpt lat="43.50821" lon="6.37353">
        <ele>285</ele>
        <time>2026-05-27T09:22:12Z</time>
      </trkpt>
      <trkpt lat="43.50818" lon="6.37357">
        <ele>285</ele>
        <time>2026-05-27T09:22:14Z</time>
      </trkpt>
      <trkpt lat="43.50818" lon="6.37362">
        <ele>284</ele>
        <time>2026-05-27T09:22:16Z</time>
      </trkpt>
      <trkpt lat="43.50815" lon="6.37378">
        <ele>283</ele>
        <time>2026-05-27T09:22:26Z</time>
      </trkpt>
      <trkpt lat="43.50815" lon="6.37381">
        <ele>283</ele>
        <time>2026-05-27T09:22:30Z</time>
      </trkpt>
      <trkpt lat="43.50815" lon="6.37381">
        <ele>286</ele>
        <time>2026-05-27T09:23:00Z</time>
      </trkpt>
      <trkpt lat="43.50817" lon="6.37383">
        <ele>289</ele>
        <time>2026-05-27T09:23:08Z</time>
      </trkpt>
      <trkpt lat="43.50819" lon="6.37384">
        <ele>290</ele>
        <time>2026-05-27T09:23:12Z</time>
      </trkpt>
      <trkpt lat="43.50818" lon="6.37387">
        <ele>291</ele>
        <time>2026-05-27T09:23:36Z</time>
      </trkpt>
      <trkpt lat="43.50806" lon="6.37394">
        <ele>292</ele>
        <time>2026-05-27T09:23:44Z</time>
      </trkpt>
      <trkpt lat="43.50803" lon="6.37393">
        <ele>292</ele>
        <time>2026-05-27T09:23:48Z</time>
      </trkpt>
      <trkpt lat="43.50801" lon="6.37394">
        <ele>290</ele>
        <time>2026-05-27T09:25:16Z</time>
      </trkpt>
      <trkpt lat="43.50798" lon="6.37392">
        <ele>289</ele>
        <time>2026-05-27T09:25:26Z</time>
      </trkpt>
      <trkpt lat="43.50796" lon="6.37393">
        <ele>290</ele>
        <time>2026-05-27T09:25:48Z</time>
      </trkpt>
      <trkpt lat="43.50802" lon="6.3739">
        <ele>290</ele>
        <time>2026-05-27T09:26:20Z</time>
      </trkpt>
      <trkpt lat="43.50793" lon="6.37391">
        <ele>289</ele>
        <time>2026-05-27T09:26:44Z</time>
      </trkpt>
      <trkpt lat="43.5079" lon="6.37393">
        <ele>289</ele>
        <time>2026-05-27T09:26:48Z</time>
      </trkpt>
      <trkpt lat="43.50789" lon="6.37396">
        <ele>289</ele>
        <time>2026-05-27T09:26:52Z</time>
      </trkpt>
      <trkpt lat="43.50787" lon="6.37397">
        <ele>289</ele>
        <time>2026-05-27T09:26:54Z</time>
      </trkpt>
      <trkpt lat="43.50786" lon="6.37399">
        <ele>288</ele>
        <time>2026-05-27T09:26:56Z</time>
      </trkpt>
      <trkpt lat="43.50782" lon="6.37401">
        <ele>288</ele>
        <time>2026-05-27T09:27:00Z</time>
      </trkpt>
      <trkpt lat="43.5078" lon="6.37402">
        <ele>288</ele>
        <time>2026-05-27T09:27:02Z</time>
      </trkpt>
      <trkpt lat="43.50778" lon="6.37404">
        <ele>288</ele>
        <time>2026-05-27T09:27:04Z</time>
      </trkpt>
      <trkpt lat="43.50775" lon="6.37405">
        <ele>288</ele>
        <time>2026-05-27T09:27:06Z</time>
      </trkpt>
      <trkpt lat="43.50773" lon="6.37406">
        <ele>288</ele>
        <time>2026-05-27T09:27:08Z</time>
      </trkpt>
      <trkpt lat="43.50772" lon="6.37408">
        <ele>288</ele>
        <time>2026-05-27T09:27:10Z</time>
      </trkpt>
      <trkpt lat="43.5077" lon="6.37408">
        <ele>288</ele>
        <time>2026-05-27T09:27:12Z</time>
      </trkpt>
      <trkpt lat="43.50768" lon="6.37409">
        <ele>288</ele>
        <time>2026-05-27T09:27:14Z</time>
      </trkpt>
      <trkpt lat="43.50766" lon="6.3741">
        <ele>288</ele>
        <time>2026-05-27T09:27:16Z</time>
      </trkpt>
      <trkpt lat="43.50764" lon="6.37414">
        <ele>288</ele>
        <time>2026-05-27T09:27:18Z</time>
      </trkpt>
      <trkpt lat="43.50762" lon="6.37419">
        <ele>287</ele>
        <time>2026-05-27T09:27:20Z</time>
      </trkpt>
      <trkpt lat="43.50755" lon="6.37425">
        <ele>287</ele>
        <time>2026-05-27T09:27:26Z</time>
      </trkpt>
      <trkpt lat="43.50747" lon="6.37428">
        <ele>287</ele>
        <time>2026-05-27T09:27:36Z</time>
      </trkpt>
      <trkpt lat="43.50744" lon="6.37432">
        <ele>288</ele>
        <time>2026-05-27T09:27:42Z</time>
      </trkpt>
      <trkpt lat="43.5073" lon="6.37434">
        <ele>289</ele>
        <time>2026-05-27T09:27:56Z</time>
      </trkpt>
      <trkpt lat="43.50726" lon="6.37437">
        <ele>289</ele>
        <time>2026-05-27T09:28:00Z</time>
      </trkpt>
      <trkpt lat="43.50722" lon="6.37439">
        <ele>289</ele>
        <time>2026-05-27T09:28:04Z</time>
      </trkpt>
      <trkpt lat="43.50719" lon="6.37441">
        <ele>289</ele>
        <time>2026-05-27T09:28:08Z</time>
      </trkpt>
      <trkpt lat="43.50717" lon="6.37443">
        <ele>289</ele>
        <time>2026-05-27T09:28:10Z</time>
      </trkpt>
      <trkpt lat="43.50711" lon="6.37446">
        <ele>289</ele>
        <time>2026-05-27T09:28:16Z</time>
      </trkpt>
      <trkpt lat="43.50706" lon="6.37451">
        <ele>289</ele>
        <time>2026-05-27T09:28:22Z</time>
      </trkpt>
      <trkpt lat="43.50703" lon="6.37452">
        <ele>289</ele>
        <time>2026-05-27T09:28:24Z</time>
      </trkpt>
      <trkpt lat="43.50698" lon="6.37456">
        <ele>289</ele>
        <time>2026-05-27T09:28:30Z</time>
      </trkpt>
      <trkpt lat="43.50696" lon="6.37456">
        <ele>289</ele>
        <time>2026-05-27T09:28:32Z</time>
      </trkpt>
      <trkpt lat="43.50692" lon="6.37457">
        <ele>289</ele>
        <time>2026-05-27T09:28:36Z</time>
      </trkpt>
      <trkpt lat="43.50687" lon="6.37458">
        <ele>288</ele>
        <time>2026-05-27T09:28:40Z</time>
      </trkpt>
      <trkpt lat="43.50682" lon="6.37461">
        <ele>289</ele>
        <time>2026-05-27T09:28:44Z</time>
      </trkpt>
      <trkpt lat="43.5068" lon="6.37462">
        <ele>289</ele>
        <time>2026-05-27T09:28:46Z</time>
      </trkpt>
      <trkpt lat="43.50673" lon="6.37466">
        <ele>289</ele>
        <time>2026-05-27T09:28:56Z</time>
      </trkpt>
      <trkpt lat="43.5067" lon="6.37465">
        <ele>288</ele>
        <time>2026-05-27T09:29:00Z</time>
      </trkpt>
      <trkpt lat="43.50668" lon="6.37466">
        <ele>288</ele>
        <time>2026-05-27T09:29:02Z</time>
      </trkpt>
      <trkpt lat="43.50665" lon="6.37467">
        <ele>288</ele>
        <time>2026-05-27T09:29:06Z</time>
      </trkpt>
      <trkpt lat="43.50658" lon="6.3747">
        <ele>288</ele>
        <time>2026-05-27T09:29:12Z</time>
      </trkpt>
      <trkpt lat="43.50656" lon="6.37472">
        <ele>288</ele>
        <time>2026-05-27T09:29:16Z</time>
      </trkpt>
      <trkpt lat="43.50653" lon="6.37474">
        <ele>288</ele>
        <time>2026-05-27T09:29:20Z</time>
      </trkpt>
      <trkpt lat="43.5064" lon="6.37479">
        <ele>289</ele>
        <time>2026-05-27T09:29:34Z</time>
      </trkpt>
      <trkpt lat="43.50637" lon="6.37479">
        <ele>289</ele>
        <time>2026-05-27T09:29:38Z</time>
      </trkpt>
      <trkpt lat="43.50631" lon="6.37479">
        <ele>289</ele>
        <time>2026-05-27T09:29:42Z</time>
      </trkpt>
      <trkpt lat="43.50618" lon="6.37479">
        <ele>289</ele>
        <time>2026-05-27T09:29:54Z</time>
      </trkpt>
      <trkpt lat="43.50612" lon="6.37481">
        <ele>289</ele>
        <time>2026-05-27T09:30:02Z</time>
      </trkpt>
      <trkpt lat="43.50604" lon="6.37483">
        <ele>290</ele>
        <time>2026-05-27T09:30:08Z</time>
      </trkpt>
      <trkpt lat="43.50602" lon="6.37483">
        <ele>290</ele>
        <time>2026-05-27T09:30:10Z</time>
      </trkpt>
      <trkpt lat="43.50588" lon="6.37482">
        <ele>290</ele>
        <time>2026-05-27T09:30:22Z</time>
      </trkpt>
      <trkpt lat="43.50585" lon="6.37482">
        <ele>290</ele>
        <time>2026-05-27T09:30:24Z</time>
      </trkpt>
      <trkpt lat="43.50582" lon="6.37484">
        <ele>290</ele>
        <time>2026-05-27T09:30:28Z</time>
      </trkpt>
      <trkpt lat="43.5058" lon="6.37485">
        <ele>290</ele>
        <time>2026-05-27T09:30:30Z</time>
      </trkpt>
      <trkpt lat="43.50577" lon="6.37486">
        <ele>290</ele>
        <time>2026-05-27T09:30:34Z</time>
      </trkpt>
      <trkpt lat="43.50575" lon="6.37486">
        <ele>290</ele>
        <time>2026-05-27T09:30:36Z</time>
      </trkpt>
      <trkpt lat="43.50569" lon="6.37488">
        <ele>290</ele>
        <time>2026-05-27T09:30:40Z</time>
      </trkpt>
      <trkpt lat="43.50562" lon="6.3749">
        <ele>290</ele>
        <time>2026-05-27T09:30:48Z</time>
      </trkpt>
      <trkpt lat="43.50559" lon="6.3749">
        <ele>291</ele>
        <time>2026-05-27T09:30:50Z</time>
      </trkpt>
      <trkpt lat="43.50554" lon="6.37491">
        <ele>292</ele>
        <time>2026-05-27T09:30:54Z</time>
      </trkpt>
      <trkpt lat="43.50552" lon="6.3749">
        <ele>292</ele>
        <time>2026-05-27T09:30:56Z</time>
      </trkpt>
      <trkpt lat="43.5055" lon="6.37491">
        <ele>292</ele>
        <time>2026-05-27T09:30:58Z</time>
      </trkpt>
      <trkpt lat="43.50547" lon="6.37492">
        <ele>292</ele>
        <time>2026-05-27T09:31:00Z</time>
      </trkpt>
      <trkpt lat="43.50541" lon="6.37491">
        <ele>293</ele>
        <time>2026-05-27T09:31:04Z</time>
      </trkpt>
      <trkpt lat="43.50538" lon="6.37491">
        <ele>293</ele>
        <time>2026-05-27T09:31:06Z</time>
      </trkpt>
      <trkpt lat="43.50536" lon="6.3749">
        <ele>293</ele>
        <time>2026-05-27T09:31:08Z</time>
      </trkpt>
      <trkpt lat="43.50534" lon="6.3749">
        <ele>293</ele>
        <time>2026-05-27T09:31:10Z</time>
      </trkpt>
      <trkpt lat="43.50531" lon="6.3749">
        <ele>294</ele>
        <time>2026-05-27T09:31:12Z</time>
      </trkpt>
      <trkpt lat="43.50528" lon="6.37491">
        <ele>294</ele>
        <time>2026-05-27T09:31:14Z</time>
      </trkpt>
      <trkpt lat="43.50526" lon="6.3749">
        <ele>294</ele>
        <time>2026-05-27T09:31:16Z</time>
      </trkpt>
      <trkpt lat="43.50523" lon="6.3749">
        <ele>294</ele>
        <time>2026-05-27T09:31:18Z</time>
      </trkpt>
      <trkpt lat="43.50522" lon="6.3749">
        <ele>294</ele>
        <time>2026-05-27T09:31:20Z</time>
      </trkpt>
      <trkpt lat="43.50515" lon="6.37492">
        <ele>294</ele>
        <time>2026-05-27T09:31:24Z</time>
      </trkpt>
      <trkpt lat="43.50507" lon="6.37493">
        <ele>294</ele>
        <time>2026-05-27T09:31:28Z</time>
      </trkpt>
      <trkpt lat="43.50503" lon="6.37493">
        <ele>294</ele>
        <time>2026-05-27T09:31:30Z</time>
      </trkpt>
      <trkpt lat="43.50498" lon="6.37494">
        <ele>294</ele>
        <time>2026-05-27T09:31:34Z</time>
      </trkpt>
      <trkpt lat="43.50495" lon="6.37495">
        <ele>294</ele>
        <time>2026-05-27T09:31:36Z</time>
      </trkpt>
      <trkpt lat="43.50492" lon="6.3749">
        <ele>294</ele>
        <time>2026-05-27T09:31:40Z</time>
      </trkpt>
      <trkpt lat="43.50489" lon="6.37489">
        <ele>294</ele>
        <time>2026-05-27T09:31:42Z</time>
      </trkpt>
      <trkpt lat="43.50487" lon="6.37488">
        <ele>294</ele>
        <time>2026-05-27T09:31:44Z</time>
      </trkpt>
      <trkpt lat="43.50485" lon="6.37487">
        <ele>294</ele>
        <time>2026-05-27T09:31:46Z</time>
      </trkpt>
      <trkpt lat="43.50477" lon="6.37484">
        <ele>294</ele>
        <time>2026-05-27T09:31:54Z</time>
      </trkpt>
      <trkpt lat="43.50475" lon="6.37483">
        <ele>294</ele>
        <time>2026-05-27T09:31:56Z</time>
      </trkpt>
      <trkpt lat="43.50471" lon="6.37482">
        <ele>293</ele>
        <time>2026-05-27T09:32:00Z</time>
      </trkpt>
      <trkpt lat="43.50464" lon="6.3748">
        <ele>292</ele>
        <time>2026-05-27T09:32:08Z</time>
      </trkpt>
      <trkpt lat="43.50459" lon="6.37479">
        <ele>291</ele>
        <time>2026-05-27T09:32:12Z</time>
      </trkpt>
      <trkpt lat="43.50457" lon="6.37478">
        <ele>291</ele>
        <time>2026-05-27T09:32:14Z</time>
      </trkpt>
      <trkpt lat="43.50454" lon="6.37477">
        <ele>290</ele>
        <time>2026-05-27T09:32:16Z</time>
      </trkpt>
      <trkpt lat="43.5045" lon="6.37476">
        <ele>290</ele>
        <time>2026-05-27T09:32:18Z</time>
      </trkpt>
      <trkpt lat="43.50445" lon="6.37477">
        <ele>290</ele>
        <time>2026-05-27T09:32:20Z</time>
      </trkpt>
      <trkpt lat="43.50437" lon="6.37482">
        <ele>289</ele>
        <time>2026-05-27T09:32:24Z</time>
      </trkpt>
      <trkpt lat="43.50433" lon="6.37483">
        <ele>290</ele>
        <time>2026-05-27T09:32:26Z</time>
      </trkpt>
      <trkpt lat="43.5043" lon="6.37483">
        <ele>290</ele>
        <time>2026-05-27T09:32:28Z</time>
      </trkpt>
      <trkpt lat="43.50427" lon="6.37484">
        <ele>291</ele>
        <time>2026-05-27T09:32:30Z</time>
      </trkpt>
      <trkpt lat="43.50422" lon="6.37487">
        <ele>294</ele>
        <time>2026-05-27T09:32:34Z</time>
      </trkpt>
      <trkpt lat="43.50413" lon="6.37485">
        <ele>299</ele>
        <time>2026-05-27T09:32:44Z</time>
      </trkpt>
      <trkpt lat="43.5041" lon="6.37485">
        <ele>300</ele>
        <time>2026-05-27T09:32:46Z</time>
      </trkpt>
      <trkpt lat="43.50409" lon="6.37483">
        <ele>301</ele>
        <time>2026-05-27T09:32:48Z</time>
      </trkpt>
      <trkpt lat="43.50404" lon="6.3748">
        <ele>302</ele>
        <time>2026-05-27T09:32:54Z</time>
      </trkpt>
      <trkpt lat="43.50402" lon="6.37479">
        <ele>303</ele>
        <time>2026-05-27T09:32:56Z</time>
      </trkpt>
      <trkpt lat="43.50398" lon="6.37479">
        <ele>304</ele>
        <time>2026-05-27T09:32:58Z</time>
      </trkpt>
      <trkpt lat="43.50379" lon="6.37476">
        <ele>306</ele>
        <time>2026-05-27T09:33:12Z</time>
      </trkpt>
      <trkpt lat="43.50377" lon="6.37476">
        <ele>306</ele>
        <time>2026-05-27T09:33:14Z</time>
      </trkpt>
      <trkpt lat="43.50375" lon="6.37475">
        <ele>306</ele>
        <time>2026-05-27T09:33:16Z</time>
      </trkpt>
      <trkpt lat="43.50373" lon="6.37475">
        <ele>306</ele>
        <time>2026-05-27T09:33:18Z</time>
      </trkpt>
      <trkpt lat="43.50371" lon="6.37474">
        <ele>306</ele>
        <time>2026-05-27T09:33:20Z</time>
      </trkpt>
      <trkpt lat="43.50369" lon="6.37474">
        <ele>306</ele>
        <time>2026-05-27T09:33:22Z</time>
      </trkpt>
      <trkpt lat="43.50366" lon="6.37473">
        <ele>306</ele>
        <time>2026-05-27T09:33:24Z</time>
      </trkpt>
      <trkpt lat="43.50359" lon="6.37472">
        <ele>307</ele>
        <time>2026-05-27T09:33:28Z</time>
      </trkpt>
      <trkpt lat="43.50356" lon="6.37471">
        <ele>308</ele>
        <time>2026-05-27T09:33:30Z</time>
      </trkpt>
      <trkpt lat="43.50354" lon="6.3747">
        <ele>308</ele>
        <time>2026-05-27T09:33:32Z</time>
      </trkpt>
      <trkpt lat="43.5035" lon="6.37468">
        <ele>308</ele>
        <time>2026-05-27T09:33:36Z</time>
      </trkpt>
      <trkpt lat="43.50347" lon="6.37466">
        <ele>308</ele>
        <time>2026-05-27T09:33:38Z</time>
      </trkpt>
      <trkpt lat="43.50343" lon="6.37465">
        <ele>307</ele>
        <time>2026-05-27T09:33:42Z</time>
      </trkpt>
      <trkpt lat="43.50337" lon="6.37462">
        <ele>305</ele>
        <time>2026-05-27T09:33:50Z</time>
      </trkpt>
      <trkpt lat="43.50335" lon="6.37462">
        <ele>304</ele>
        <time>2026-05-27T09:33:52Z</time>
      </trkpt>
      <trkpt lat="43.50325" lon="6.37458">
        <ele>302</ele>
        <time>2026-05-27T09:33:58Z</time>
      </trkpt>
      <trkpt lat="43.50316" lon="6.37454">
        <ele>301</ele>
        <time>2026-05-27T09:34:04Z</time>
      </trkpt>
      <trkpt lat="43.50313" lon="6.37453">
        <ele>301</ele>
        <time>2026-05-27T09:34:06Z</time>
      </trkpt>
      <trkpt lat="43.50309" lon="6.37453">
        <ele>299</ele>
        <time>2026-05-27T09:34:10Z</time>
      </trkpt>
      <trkpt lat="43.50305" lon="6.37449">
        <ele>298</ele>
        <time>2026-05-27T09:34:14Z</time>
      </trkpt>
      <trkpt lat="43.50299" lon="6.37448">
        <ele>297</ele>
        <time>2026-05-27T09:34:20Z</time>
      </trkpt>
      <trkpt lat="43.50295" lon="6.37446">
        <ele>296</ele>
        <time>2026-05-27T09:34:24Z</time>
      </trkpt>
      <trkpt lat="43.50293" lon="6.37445">
        <ele>295</ele>
        <time>2026-05-27T09:34:26Z</time>
      </trkpt>
      <trkpt lat="43.5029" lon="6.37444">
        <ele>295</ele>
        <time>2026-05-27T09:34:28Z</time>
      </trkpt>
      <trkpt lat="43.50288" lon="6.37443">
        <ele>294</ele>
        <time>2026-05-27T09:34:30Z</time>
      </trkpt>
      <trkpt lat="43.50283" lon="6.37442">
        <ele>293</ele>
        <time>2026-05-27T09:34:34Z</time>
      </trkpt>
      <trkpt lat="43.50278" lon="6.37441">
        <ele>292</ele>
        <time>2026-05-27T09:34:40Z</time>
      </trkpt>
      <trkpt lat="43.50275" lon="6.37441">
        <ele>291</ele>
        <time>2026-05-27T09:34:42Z</time>
      </trkpt>
      <trkpt lat="43.50271" lon="6.37441">
        <ele>290</ele>
        <time>2026-05-27T09:34:46Z</time>
      </trkpt>
      <trkpt lat="43.50269" lon="6.3744">
        <ele>290</ele>
        <time>2026-05-27T09:34:48Z</time>
      </trkpt>
      <trkpt lat="43.50262" lon="6.3744">
        <ele>288</ele>
        <time>2026-05-27T09:34:54Z</time>
      </trkpt>
      <trkpt lat="43.50259" lon="6.37439">
        <ele>288</ele>
        <time>2026-05-27T09:34:56Z</time>
      </trkpt>
      <trkpt lat="43.50257" lon="6.37439">
        <ele>287</ele>
        <time>2026-05-27T09:34:58Z</time>
      </trkpt>
      <trkpt lat="43.50251" lon="6.37437">
        <ele>286</ele>
        <time>2026-05-27T09:35:02Z</time>
      </trkpt>
      <trkpt lat="43.50248" lon="6.37436">
        <ele>286</ele>
        <time>2026-05-27T09:35:04Z</time>
      </trkpt>
      <trkpt lat="43.50246" lon="6.37435">
        <ele>286</ele>
        <time>2026-05-27T09:35:06Z</time>
      </trkpt>
      <trkpt lat="43.50239" lon="6.37434">
        <ele>285</ele>
        <time>2026-05-27T09:35:12Z</time>
      </trkpt>
      <trkpt lat="43.50232" lon="6.37432">
        <ele>284</ele>
        <time>2026-05-27T09:35:16Z</time>
      </trkpt>
      <trkpt lat="43.50229" lon="6.37431">
        <ele>284</ele>
        <time>2026-05-27T09:35:18Z</time>
      </trkpt>
      <trkpt lat="43.50226" lon="6.3743">
        <ele>284</ele>
        <time>2026-05-27T09:35:20Z</time>
      </trkpt>
      <trkpt lat="43.50218" lon="6.37426">
        <ele>283</ele>
        <time>2026-05-27T09:35:26Z</time>
      </trkpt>
      <trkpt lat="43.50216" lon="6.37426">
        <ele>283</ele>
        <time>2026-05-27T09:35:28Z</time>
      </trkpt>
      <trkpt lat="43.50214" lon="6.37427">
        <ele>283</ele>
        <time>2026-05-27T09:35:30Z</time>
      </trkpt>
      <trkpt lat="43.50209" lon="6.37426">
        <ele>283</ele>
        <time>2026-05-27T09:35:34Z</time>
      </trkpt>
      <trkpt lat="43.50203" lon="6.37424">
        <ele>283</ele>
        <time>2026-05-27T09:35:38Z</time>
      </trkpt>
      <trkpt lat="43.502" lon="6.37423">
        <ele>283</ele>
        <time>2026-05-27T09:35:40Z</time>
      </trkpt>
      <trkpt lat="43.50197" lon="6.37422">
        <ele>283</ele>
        <time>2026-05-27T09:35:42Z</time>
      </trkpt>
      <trkpt lat="43.50194" lon="6.3742">
        <ele>283</ele>
        <time>2026-05-27T09:35:44Z</time>
      </trkpt>
      <trkpt lat="43.50174" lon="6.37402">
        <ele>281</ele>
        <time>2026-05-27T09:36:04Z</time>
      </trkpt>
      <trkpt lat="43.50166" lon="6.37395">
        <ele>279</ele>
        <time>2026-05-27T09:36:10Z</time>
      </trkpt>
      <trkpt lat="43.50145" lon="6.37372">
        <ele>273</ele>
        <time>2026-05-27T09:36:34Z</time>
      </trkpt>
      <trkpt lat="43.50142" lon="6.37369">
        <ele>272</ele>
        <time>2026-05-27T09:36:38Z</time>
      </trkpt>
      <trkpt lat="43.50137" lon="6.37358">
        <ele>270</ele>
        <time>2026-05-27T09:36:48Z</time>
      </trkpt>
      <trkpt lat="43.50137" lon="6.37349">
        <ele>269</ele>
        <time>2026-05-27T09:36:54Z</time>
      </trkpt>
      <trkpt lat="43.50135" lon="6.37344">
        <ele>268</ele>
        <time>2026-05-27T09:36:58Z</time>
      </trkpt>
      <trkpt lat="43.50132" lon="6.37339">
        <ele>267</ele>
        <time>2026-05-27T09:37:02Z</time>
      </trkpt>
      <trkpt lat="43.50121" lon="6.37332">
        <ele>266</ele>
        <time>2026-05-27T09:37:06Z</time>
      </trkpt>
      <trkpt lat="43.50119" lon="6.37328">
        <ele>267</ele>
        <time>2026-05-27T09:37:08Z</time>
      </trkpt>
      <trkpt lat="43.50118" lon="6.37326">
        <ele>268</ele>
        <time>2026-05-27T09:37:12Z</time>
      </trkpt>
      <trkpt lat="43.50118" lon="6.37322">
        <ele>269</ele>
        <time>2026-05-27T09:37:18Z</time>
      </trkpt>
      <trkpt lat="43.50117" lon="6.37324">
        <ele>269</ele>
        <time>2026-05-27T09:37:22Z</time>
      </trkpt>
      <trkpt lat="43.50115" lon="6.37325">
        <ele>271</ele>
        <time>2026-05-27T09:37:24Z</time>
      </trkpt>
      <trkpt lat="43.5011" lon="6.37326">
        <ele>273</ele>
        <time>2026-05-27T09:37:28Z</time>
      </trkpt>
      <trkpt lat="43.50108" lon="6.37326">
        <ele>273</ele>
        <time>2026-05-27T09:37:30Z</time>
      </trkpt>
      <trkpt lat="43.50105" lon="6.37326">
        <ele>273</ele>
        <time>2026-05-27T09:37:34Z</time>
      </trkpt>
      <trkpt lat="43.50102" lon="6.37328">
        <ele>273</ele>
        <time>2026-05-27T09:37:38Z</time>
      </trkpt>
      <trkpt lat="43.501" lon="6.37328">
        <ele>274</ele>
        <time>2026-05-27T09:37:40Z</time>
      </trkpt>
      <trkpt lat="43.50096" lon="6.37329">
        <ele>274</ele>
        <time>2026-05-27T09:37:44Z</time>
      </trkpt>
      <trkpt lat="43.50094" lon="6.3733">
        <ele>274</ele>
        <time>2026-05-27T09:37:46Z</time>
      </trkpt>
      <trkpt lat="43.5009" lon="6.37331">
        <ele>274</ele>
        <time>2026-05-27T09:37:50Z</time>
      </trkpt>
      <trkpt lat="43.50088" lon="6.37332">
        <ele>273</ele>
        <time>2026-05-27T09:37:52Z</time>
      </trkpt>
      <trkpt lat="43.50082" lon="6.37334">
        <ele>274</ele>
        <time>2026-05-27T09:37:56Z</time>
      </trkpt>
      <trkpt lat="43.50081" lon="6.37336">
        <ele>274</ele>
        <time>2026-05-27T09:38:04Z</time>
      </trkpt>
      <trkpt lat="43.50079" lon="6.37339">
        <ele>275</ele>
        <time>2026-05-27T09:38:10Z</time>
      </trkpt>
      <trkpt lat="43.50077" lon="6.37337">
        <ele>275</ele>
        <time>2026-05-27T09:38:14Z</time>
      </trkpt>
      <trkpt lat="43.50075" lon="6.37334">
        <ele>275</ele>
        <time>2026-05-27T09:38:22Z</time>
      </trkpt>
      <trkpt lat="43.50072" lon="6.37332">
        <ele>275</ele>
        <time>2026-05-27T09:38:26Z</time>
      </trkpt>
      <trkpt lat="43.50071" lon="6.3733">
        <ele>277</ele>
        <time>2026-05-27T09:38:30Z</time>
      </trkpt>
      <trkpt lat="43.50071" lon="6.37326">
        <ele>278</ele>
        <time>2026-05-27T09:38:58Z</time>
      </trkpt>
      <trkpt lat="43.50068" lon="6.37327">
        <ele>280</ele>
        <time>2026-05-27T09:39:40Z</time>
      </trkpt>
      <trkpt lat="43.5007" lon="6.37331">
        <ele>280</ele>
        <time>2026-05-27T09:39:50Z</time>
      </trkpt>
      <trkpt lat="43.5007" lon="6.37335">
        <ele>280</ele>
        <time>2026-05-27T09:39:54Z</time>
      </trkpt>
      <trkpt lat="43.50068" lon="6.37333">
        <ele>280</ele>
        <time>2026-05-27T09:39:58Z</time>
      </trkpt>
      <trkpt lat="43.50064" lon="6.37335">
        <ele>279</ele>
        <time>2026-05-27T09:40:02Z</time>
      </trkpt>
      <trkpt lat="43.50059" lon="6.37336">
        <ele>278</ele>
        <time>2026-05-27T09:40:08Z</time>
      </trkpt>
      <trkpt lat="43.50057" lon="6.37337">
        <ele>277</ele>
        <time>2026-05-27T09:40:12Z</time>
      </trkpt>
      <trkpt lat="43.50052" lon="6.37338">
        <ele>278</ele>
        <time>2026-05-27T09:40:18Z</time>
      </trkpt>
      <trkpt lat="43.50045" lon="6.37341">
        <ele>278</ele>
        <time>2026-05-27T09:40:26Z</time>
      </trkpt>
      <trkpt lat="43.50042" lon="6.37342">
        <ele>278</ele>
        <time>2026-05-27T09:40:30Z</time>
      </trkpt>
      <trkpt lat="43.50038" lon="6.37343">
        <ele>278</ele>
        <time>2026-05-27T09:40:34Z</time>
      </trkpt>
      <trkpt lat="43.50036" lon="6.37344">
        <ele>278</ele>
        <time>2026-05-27T09:40:36Z</time>
      </trkpt>
      <trkpt lat="43.50031" lon="6.37344">
        <ele>279</ele>
        <time>2026-05-27T09:40:44Z</time>
      </trkpt>
      <trkpt lat="43.5002" lon="6.37344">
        <ele>280</ele>
        <time>2026-05-27T09:40:58Z</time>
      </trkpt>
      <trkpt lat="43.50017" lon="6.37345">
        <ele>280</ele>
        <time>2026-05-27T09:41:02Z</time>
      </trkpt>
      <trkpt lat="43.50011" lon="6.37347">
        <ele>280</ele>
        <time>2026-05-27T09:41:08Z</time>
      </trkpt>
      <trkpt lat="43.50008" lon="6.37347">
        <ele>280</ele>
        <time>2026-05-27T09:41:12Z</time>
      </trkpt>
      <trkpt lat="43.50006" lon="6.37347">
        <ele>281</ele>
        <time>2026-05-27T09:41:14Z</time>
      </trkpt>
      <trkpt lat="43.49999" lon="6.37345">
        <ele>281</ele>
        <time>2026-05-27T09:41:22Z</time>
      </trkpt>
      <trkpt lat="43.49995" lon="6.37343">
        <ele>281</ele>
        <time>2026-05-27T09:41:26Z</time>
      </trkpt>
      <trkpt lat="43.49991" lon="6.37342">
        <ele>281</ele>
        <time>2026-05-27T09:41:30Z</time>
      </trkpt>
      <trkpt lat="43.49988" lon="6.37342">
        <ele>281</ele>
        <time>2026-05-27T09:41:34Z</time>
      </trkpt>
      <trkpt lat="43.49982" lon="6.37343">
        <ele>281</ele>
        <time>2026-05-27T09:41:40Z</time>
      </trkpt>
      <trkpt lat="43.49978" lon="6.37342">
        <ele>281</ele>
        <time>2026-05-27T09:41:46Z</time>
      </trkpt>
      <trkpt lat="43.49976" lon="6.37342">
        <ele>281</ele>
        <time>2026-05-27T09:41:48Z</time>
      </trkpt>
      <trkpt lat="43.49973" lon="6.3734">
        <ele>281</ele>
        <time>2026-05-27T09:41:52Z</time>
      </trkpt>
      <trkpt lat="43.49971" lon="6.37335">
        <ele>281</ele>
        <time>2026-05-27T09:41:58Z</time>
      </trkpt>
      <trkpt lat="43.49969" lon="6.3733">
        <ele>282</ele>
        <time>2026-05-27T09:42:02Z</time>
      </trkpt>
      <trkpt lat="43.49968" lon="6.37329">
        <ele>282</ele>
        <time>2026-05-27T09:42:04Z</time>
      </trkpt>
      <trkpt lat="43.49964" lon="6.37326">
        <ele>282</ele>
        <time>2026-05-27T09:42:10Z</time>
      </trkpt>
      <trkpt lat="43.49964" lon="6.37318">
        <ele>284</ele>
        <time>2026-05-27T09:42:24Z</time>
      </trkpt>
      <trkpt lat="43.49962" lon="6.37317">
        <ele>285</ele>
        <time>2026-05-27T09:42:28Z</time>
      </trkpt>
      <trkpt lat="43.49956" lon="6.3732">
        <ele>287</ele>
        <time>2026-05-27T09:42:52Z</time>
      </trkpt>
      <trkpt lat="43.49962" lon="6.37323">
        <ele>289</ele>
        <time>2026-05-27T09:43:12Z</time>
      </trkpt>
      <trkpt lat="43.49964" lon="6.37321">
        <ele>291</ele>
        <time>2026-05-27T09:43:20Z</time>
      </trkpt>
      <trkpt lat="43.49967" lon="6.37324">
        <ele>295</ele>
        <time>2026-05-27T09:43:22Z</time>
      </trkpt>
      <trkpt lat="43.49968" lon="6.37325">
        <ele>298</ele>
        <time>2026-05-27T09:43:24Z</time>
      </trkpt>
      <trkpt lat="43.4997" lon="6.37321">
        <ele>302</ele>
        <time>2026-05-27T09:43:32Z</time>
      </trkpt>
      <trkpt lat="43.49973" lon="6.3732">
        <ele>303</ele>
        <time>2026-05-27T09:43:36Z</time>
      </trkpt>
      <trkpt lat="43.4997" lon="6.37315">
        <ele>303</ele>
        <time>2026-05-27T09:43:42Z</time>
      </trkpt>
      <trkpt lat="43.49968" lon="6.37312">
        <ele>302</ele>
        <time>2026-05-27T09:43:44Z</time>
      </trkpt>
      <trkpt lat="43.49966" lon="6.37308">
        <ele>302</ele>
        <time>2026-05-27T09:43:46Z</time>
      </trkpt>
      <trkpt lat="43.49963" lon="6.37304">
        <ele>302</ele>
        <time>2026-05-27T09:43:50Z</time>
      </trkpt>
      <trkpt lat="43.49964" lon="6.37299">
        <ele>301</ele>
        <time>2026-05-27T09:43:54Z</time>
      </trkpt>
      <trkpt lat="43.49964" lon="6.37291">
        <ele>300</ele>
        <time>2026-05-27T09:43:58Z</time>
      </trkpt>
      <trkpt lat="43.49963" lon="6.37287">
        <ele>300</ele>
        <time>2026-05-27T09:44:00Z</time>
      </trkpt>
      <trkpt lat="43.49964" lon="6.37283">
        <ele>301</ele>
        <time>2026-05-27T09:44:02Z</time>
      </trkpt>
      <trkpt lat="43.49975" lon="6.37268">
        <ele>304</ele>
        <time>2026-05-27T09:44:14Z</time>
      </trkpt>
      <trkpt lat="43.49975" lon="6.37265">
        <ele>304</ele>
        <time>2026-05-27T09:44:16Z</time>
      </trkpt>
      <trkpt lat="43.49977" lon="6.37261">
        <ele>304</ele>
        <time>2026-05-27T09:44:18Z</time>
      </trkpt>
      <trkpt lat="43.49981" lon="6.37256">
        <ele>304</ele>
        <time>2026-05-27T09:44:24Z</time>
      </trkpt>
      <trkpt lat="43.49982" lon="6.37254">
        <ele>304</ele>
        <time>2026-05-27T09:44:26Z</time>
      </trkpt>
      <trkpt lat="43.49985" lon="6.3725">
        <ele>304</ele>
        <time>2026-05-27T09:44:30Z</time>
      </trkpt>
      <trkpt lat="43.49988" lon="6.37248">
        <ele>304</ele>
        <time>2026-05-27T09:44:32Z</time>
      </trkpt>
      <trkpt lat="43.49989" lon="6.37246">
        <ele>305</ele>
        <time>2026-05-27T09:44:34Z</time>
      </trkpt>
      <trkpt lat="43.49994" lon="6.37236">
        <ele>308</ele>
        <time>2026-05-27T09:44:40Z</time>
      </trkpt>
      <trkpt lat="43.49997" lon="6.37234">
        <ele>309</ele>
        <time>2026-05-27T09:44:44Z</time>
      </trkpt>
      <trkpt lat="43.49998" lon="6.37231">
        <ele>311</ele>
        <time>2026-05-27T09:44:46Z</time>
      </trkpt>
      <trkpt lat="43.49998" lon="6.37228">
        <ele>311</ele>
        <time>2026-05-27T09:44:48Z</time>
      </trkpt>
      <trkpt lat="43.49996" lon="6.37225">
        <ele>311</ele>
        <time>2026-05-27T09:44:50Z</time>
      </trkpt>
      <trkpt lat="43.49997" lon="6.37222">
        <ele>311</ele>
        <time>2026-05-27T09:44:52Z</time>
      </trkpt>
      <trkpt lat="43.49999" lon="6.37219">
        <ele>312</ele>
        <time>2026-05-27T09:44:54Z</time>
      </trkpt>
      <trkpt lat="43.49997" lon="6.37216">
        <ele>312</ele>
        <time>2026-05-27T09:44:56Z</time>
      </trkpt>
      <trkpt lat="43.49995" lon="6.37213">
        <ele>312</ele>
        <time>2026-05-27T09:44:58Z</time>
      </trkpt>
      <trkpt lat="43.49995" lon="6.3721">
        <ele>312</ele>
        <time>2026-05-27T09:45:00Z</time>
      </trkpt>
      <trkpt lat="43.49994" lon="6.37208">
        <ele>312</ele>
        <time>2026-05-27T09:45:02Z</time>
      </trkpt>
      <trkpt lat="43.49994" lon="6.37204">
        <ele>312</ele>
        <time>2026-05-27T09:45:04Z</time>
      </trkpt>
      <trkpt lat="43.49992" lon="6.37201">
        <ele>312</ele>
        <time>2026-05-27T09:45:06Z</time>
      </trkpt>
      <trkpt lat="43.49994" lon="6.3719">
        <ele>311</ele>
        <time>2026-05-27T09:45:12Z</time>
      </trkpt>
      <trkpt lat="43.49993" lon="6.37187">
        <ele>311</ele>
        <time>2026-05-27T09:45:14Z</time>
      </trkpt>
      <trkpt lat="43.49993" lon="6.37184">
        <ele>310</ele>
        <time>2026-05-27T09:45:18Z</time>
      </trkpt>
      <trkpt lat="43.49992" lon="6.37181">
        <ele>310</ele>
        <time>2026-05-27T09:45:20Z</time>
      </trkpt>
      <trkpt lat="43.49992" lon="6.37179">
        <ele>310</ele>
        <time>2026-05-27T09:45:22Z</time>
      </trkpt>
      <trkpt lat="43.4999" lon="6.37177">
        <ele>310</ele>
        <time>2026-05-27T09:45:24Z</time>
      </trkpt>
      <trkpt lat="43.49988" lon="6.37171">
        <ele>310</ele>
        <time>2026-05-27T09:45:30Z</time>
      </trkpt>
      <trkpt lat="43.49985" lon="6.37165">
        <ele>310</ele>
        <time>2026-05-27T09:45:36Z</time>
      </trkpt>
      <trkpt lat="43.49984" lon="6.37162">
        <ele>310</ele>
        <time>2026-05-27T09:45:38Z</time>
      </trkpt>
      <trkpt lat="43.49981" lon="6.3716">
        <ele>310</ele>
        <time>2026-05-27T09:45:40Z</time>
      </trkpt>
      <trkpt lat="43.49974" lon="6.37151">
        <ele>310</ele>
        <time>2026-05-27T09:45:46Z</time>
      </trkpt>
      <trkpt lat="43.49972" lon="6.37147">
        <ele>310</ele>
        <time>2026-05-27T09:45:48Z</time>
      </trkpt>
      <trkpt lat="43.49973" lon="6.37144">
        <ele>311</ele>
        <time>2026-05-27T09:45:50Z</time>
      </trkpt>
    </trkseg>
  </trk>
</gpx>